<?xml version="1.0" encoding="UTF-8" standalone="no" ?>
<gpx xmlns="http://www.topografix.com/GPX/1/1" xmlns:xsi="http://www.w3.org/2001/XMLSchema-instance" xsi:schemaLocation="http://www.topografix.com/GPX/1/1 http://www.topografix.com/GPX/1/1/gpx.xsd" version="1.1" creator="VisuGPX - https://www.visugpx.com">
  <metadata>
    <name>2021-01-16 08:27:14 [Suunto App]</name>
  </metadata>
  <trk>
    <name><![CDATA[2021-01-16 08:27:14 [Suunto App]_1]]></name>
    <trkseg>
      <trkpt lat="45.28251" lon="5.76617">
        <ele>1248</ele>
        <time>2021-01-16T07:27:14Z</time>
      </trkpt>
      <trkpt lat="45.2825" lon="5.76616">
        <ele>1247.8</ele>
        <time>2021-01-16T07:27:15Z</time>
      </trkpt>
      <trkpt lat="45.28258" lon="5.76626">
        <ele>1248.7</ele>
        <time>2021-01-16T07:27:22Z</time>
      </trkpt>
      <trkpt lat="45.28264" lon="5.76638">
        <ele>1249.1</ele>
        <time>2021-01-16T07:27:30Z</time>
      </trkpt>
      <trkpt lat="45.28269" lon="5.76649">
        <ele>1249.7</ele>
        <time>2021-01-16T07:27:38Z</time>
      </trkpt>
      <trkpt lat="45.28274" lon="5.7666">
        <ele>1250.5</ele>
        <time>2021-01-16T07:27:44Z</time>
      </trkpt>
      <trkpt lat="45.28278" lon="5.76673">
        <ele>1270.2</ele>
        <time>2021-01-16T07:27:51Z</time>
      </trkpt>
      <trkpt lat="45.28285" lon="5.76682">
        <ele>1271.8</ele>
        <time>2021-01-16T07:28:01Z</time>
      </trkpt>
      <trkpt lat="45.28292" lon="5.76689">
        <ele>1255.3</ele>
        <time>2021-01-16T07:28:13Z</time>
      </trkpt>
      <trkpt lat="45.283" lon="5.76698">
        <ele>1257.3</ele>
        <time>2021-01-16T07:28:23Z</time>
      </trkpt>
      <trkpt lat="45.28305" lon="5.76709">
        <ele>1259</ele>
        <time>2021-01-16T07:28:30Z</time>
      </trkpt>
      <trkpt lat="45.28311" lon="5.76719">
        <ele>1279.8</ele>
        <time>2021-01-16T07:28:41Z</time>
      </trkpt>
      <trkpt lat="45.28315" lon="5.76722">
        <ele>1261.3</ele>
        <time>2021-01-16T07:28:47Z</time>
      </trkpt>
      <trkpt lat="45.28318" lon="5.76722">
        <ele>1261.8</ele>
        <time>2021-01-16T07:28:50Z</time>
      </trkpt>
      <trkpt lat="45.2832" lon="5.76722">
        <ele>1262.1</ele>
        <time>2021-01-16T07:28:52Z</time>
      </trkpt>
      <trkpt lat="45.28323" lon="5.76723">
        <ele>1262.6</ele>
        <time>2021-01-16T07:28:55Z</time>
      </trkpt>
      <trkpt lat="45.28324" lon="5.76722">
        <ele>1262.7</ele>
        <time>2021-01-16T07:28:57Z</time>
      </trkpt>
      <trkpt lat="45.28327" lon="5.76724">
        <ele>1263.4</ele>
        <time>2021-01-16T07:28:59Z</time>
      </trkpt>
      <trkpt lat="45.28329" lon="5.76725">
        <ele>1284.6</ele>
        <time>2021-01-16T07:29:01Z</time>
      </trkpt>
      <trkpt lat="45.2833" lon="5.76728">
        <ele>1264.4</ele>
        <time>2021-01-16T07:29:03Z</time>
      </trkpt>
      <trkpt lat="45.28336" lon="5.76741">
        <ele>1267.2</ele>
        <time>2021-01-16T07:29:12Z</time>
      </trkpt>
      <trkpt lat="45.28341" lon="5.76752">
        <ele>1269.5</ele>
        <time>2021-01-16T07:29:19Z</time>
      </trkpt>
      <trkpt lat="45.28348" lon="5.76761">
        <ele>1272.1</ele>
        <time>2021-01-16T07:29:27Z</time>
      </trkpt>
      <trkpt lat="45.28351" lon="5.76761">
        <ele>1272.4</ele>
        <time>2021-01-16T07:29:30Z</time>
      </trkpt>
      <trkpt lat="45.28353" lon="5.76761">
        <ele>1272.6</ele>
        <time>2021-01-16T07:29:33Z</time>
      </trkpt>
      <trkpt lat="45.28356" lon="5.76761">
        <ele>1273</ele>
        <time>2021-01-16T07:29:37Z</time>
      </trkpt>
      <trkpt lat="45.28359" lon="5.76762">
        <ele>1273.5</ele>
        <time>2021-01-16T07:29:39Z</time>
      </trkpt>
      <trkpt lat="45.28361" lon="5.76762">
        <ele>1294.2</ele>
        <time>2021-01-16T07:29:41Z</time>
      </trkpt>
      <trkpt lat="45.28364" lon="5.76765">
        <ele>1274.8</ele>
        <time>2021-01-16T07:29:44Z</time>
      </trkpt>
      <trkpt lat="45.28365" lon="5.76767">
        <ele>1275.2</ele>
        <time>2021-01-16T07:29:46Z</time>
      </trkpt>
      <trkpt lat="45.28368" lon="5.76771">
        <ele>1276.3</ele>
        <time>2021-01-16T07:29:50Z</time>
      </trkpt>
      <trkpt lat="45.28371" lon="5.7678">
        <ele>1277.7</ele>
        <time>2021-01-16T07:29:56Z</time>
      </trkpt>
      <trkpt lat="45.28372" lon="5.76783">
        <ele>1278.3</ele>
        <time>2021-01-16T07:29:58Z</time>
      </trkpt>
      <trkpt lat="45.28373" lon="5.76786">
        <ele>1278.8</ele>
        <time>2021-01-16T07:30:00Z</time>
      </trkpt>
      <trkpt lat="45.28374" lon="5.76788">
        <ele>1279.2</ele>
        <time>2021-01-16T07:30:02Z</time>
      </trkpt>
      <trkpt lat="45.28375" lon="5.76791">
        <ele>1279.7</ele>
        <time>2021-01-16T07:30:04Z</time>
      </trkpt>
      <trkpt lat="45.28376" lon="5.76794">
        <ele>1280.1</ele>
        <time>2021-01-16T07:30:06Z</time>
      </trkpt>
      <trkpt lat="45.28378" lon="5.76797">
        <ele>1280.6</ele>
        <time>2021-01-16T07:30:09Z</time>
      </trkpt>
      <trkpt lat="45.28379" lon="5.76799">
        <ele>1301.2</ele>
        <time>2021-01-16T07:30:11Z</time>
      </trkpt>
      <trkpt lat="45.2838" lon="5.768">
        <ele>1281.1</ele>
        <time>2021-01-16T07:30:13Z</time>
      </trkpt>
      <trkpt lat="45.28383" lon="5.76801">
        <ele>1281.4</ele>
        <time>2021-01-16T07:30:16Z</time>
      </trkpt>
      <trkpt lat="45.28385" lon="5.76802">
        <ele>1281.6</ele>
        <time>2021-01-16T07:30:19Z</time>
      </trkpt>
      <trkpt lat="45.28388" lon="5.76804">
        <ele>1303.2</ele>
        <time>2021-01-16T07:30:21Z</time>
      </trkpt>
      <trkpt lat="45.2839" lon="5.76804">
        <ele>1282.1</ele>
        <time>2021-01-16T07:30:24Z</time>
      </trkpt>
      <trkpt lat="45.28392" lon="5.76804">
        <ele>1282.6</ele>
        <time>2021-01-16T07:30:27Z</time>
      </trkpt>
      <trkpt lat="45.28394" lon="5.76803">
        <ele>1283</ele>
        <time>2021-01-16T07:30:30Z</time>
      </trkpt>
      <trkpt lat="45.28396" lon="5.76802">
        <ele>1283.4</ele>
        <time>2021-01-16T07:30:32Z</time>
      </trkpt>
      <trkpt lat="45.28398" lon="5.76803">
        <ele>1283.9</ele>
        <time>2021-01-16T07:30:34Z</time>
      </trkpt>
      <trkpt lat="45.28401" lon="5.76803">
        <ele>1284.6</ele>
        <time>2021-01-16T07:30:36Z</time>
      </trkpt>
      <trkpt lat="45.28403" lon="5.76803">
        <ele>1285</ele>
        <time>2021-01-16T07:30:38Z</time>
      </trkpt>
      <trkpt lat="45.28409" lon="5.76808">
        <ele>1286.4</ele>
        <time>2021-01-16T07:30:48Z</time>
      </trkpt>
      <trkpt lat="45.28411" lon="5.76811">
        <ele>1286.9</ele>
        <time>2021-01-16T07:30:50Z</time>
      </trkpt>
      <trkpt lat="45.28412" lon="5.76812">
        <ele>1287.1</ele>
        <time>2021-01-16T07:30:52Z</time>
      </trkpt>
      <trkpt lat="45.28415" lon="5.76816">
        <ele>1287.7</ele>
        <time>2021-01-16T07:30:55Z</time>
      </trkpt>
      <trkpt lat="45.28416" lon="5.76819">
        <ele>1287.9</ele>
        <time>2021-01-16T07:30:57Z</time>
      </trkpt>
      <trkpt lat="45.28421" lon="5.7683">
        <ele>1289.3</ele>
        <time>2021-01-16T07:31:05Z</time>
      </trkpt>
      <trkpt lat="45.28429" lon="5.76837">
        <ele>1291.7</ele>
        <time>2021-01-16T07:31:13Z</time>
      </trkpt>
      <trkpt lat="45.28438" lon="5.76841">
        <ele>1294.1</ele>
        <time>2021-01-16T07:31:22Z</time>
      </trkpt>
      <trkpt lat="45.28445" lon="5.7685">
        <ele>1295.5</ele>
        <time>2021-01-16T07:31:32Z</time>
      </trkpt>
      <trkpt lat="45.28454" lon="5.76855">
        <ele>1322.2</ele>
        <time>2021-01-16T07:31:41Z</time>
      </trkpt>
      <trkpt lat="45.28462" lon="5.7686">
        <ele>1298.3</ele>
        <time>2021-01-16T07:31:49Z</time>
      </trkpt>
      <trkpt lat="45.28464" lon="5.76861">
        <ele>1325</ele>
        <time>2021-01-16T07:31:51Z</time>
      </trkpt>
      <trkpt lat="45.28466" lon="5.76863">
        <ele>1299</ele>
        <time>2021-01-16T07:31:53Z</time>
      </trkpt>
      <trkpt lat="45.28468" lon="5.76864">
        <ele>1299.4</ele>
        <time>2021-01-16T07:31:55Z</time>
      </trkpt>
      <trkpt lat="45.28471" lon="5.76865">
        <ele>1299.9</ele>
        <time>2021-01-16T07:31:57Z</time>
      </trkpt>
      <trkpt lat="45.28473" lon="5.76867">
        <ele>1300.4</ele>
        <time>2021-01-16T07:31:59Z</time>
      </trkpt>
      <trkpt lat="45.28475" lon="5.76868">
        <ele>1326.4</ele>
        <time>2021-01-16T07:32:01Z</time>
      </trkpt>
      <trkpt lat="45.28477" lon="5.76869">
        <ele>1301.2</ele>
        <time>2021-01-16T07:32:03Z</time>
      </trkpt>
      <trkpt lat="45.28479" lon="5.7687">
        <ele>1301.6</ele>
        <time>2021-01-16T07:32:05Z</time>
      </trkpt>
      <trkpt lat="45.28481" lon="5.76871">
        <ele>1302</ele>
        <time>2021-01-16T07:32:07Z</time>
      </trkpt>
      <trkpt lat="45.28483" lon="5.76873">
        <ele>1302.4</ele>
        <time>2021-01-16T07:32:09Z</time>
      </trkpt>
      <trkpt lat="45.28486" lon="5.76874">
        <ele>1327.4</ele>
        <time>2021-01-16T07:32:11Z</time>
      </trkpt>
      <trkpt lat="45.28488" lon="5.76875">
        <ele>1303.3</ele>
        <time>2021-01-16T07:32:13Z</time>
      </trkpt>
      <trkpt lat="45.28496" lon="5.7688">
        <ele>1329</ele>
        <time>2021-01-16T07:32:21Z</time>
      </trkpt>
      <trkpt lat="45.28498" lon="5.76881">
        <ele>1305</ele>
        <time>2021-01-16T07:32:23Z</time>
      </trkpt>
      <trkpt lat="45.28501" lon="5.76882">
        <ele>1305.4</ele>
        <time>2021-01-16T07:32:25Z</time>
      </trkpt>
      <trkpt lat="45.28503" lon="5.76884">
        <ele>1305.7</ele>
        <time>2021-01-16T07:32:27Z</time>
      </trkpt>
      <trkpt lat="45.28505" lon="5.76885">
        <ele>1306</ele>
        <time>2021-01-16T07:32:30Z</time>
      </trkpt>
      <trkpt lat="45.28508" lon="5.76886">
        <ele>1306.5</ele>
        <time>2021-01-16T07:32:33Z</time>
      </trkpt>
      <trkpt lat="45.2851" lon="5.76887">
        <ele>1306.9</ele>
        <time>2021-01-16T07:32:36Z</time>
      </trkpt>
      <trkpt lat="45.28512" lon="5.76888">
        <ele>1307.2</ele>
        <time>2021-01-16T07:32:38Z</time>
      </trkpt>
      <trkpt lat="45.28521" lon="5.76892">
        <ele>1308.9</ele>
        <time>2021-01-16T07:32:46Z</time>
      </trkpt>
      <trkpt lat="45.2853" lon="5.76897">
        <ele>1310.6</ele>
        <time>2021-01-16T07:32:56Z</time>
      </trkpt>
      <trkpt lat="45.28532" lon="5.76898">
        <ele>1311</ele>
        <time>2021-01-16T07:32:58Z</time>
      </trkpt>
      <trkpt lat="45.28537" lon="5.76902">
        <ele>1312</ele>
        <time>2021-01-16T07:33:03Z</time>
      </trkpt>
      <trkpt lat="45.2854" lon="5.76904">
        <ele>1312.5</ele>
        <time>2021-01-16T07:33:07Z</time>
      </trkpt>
      <trkpt lat="45.28541" lon="5.76904">
        <ele>1312.7</ele>
        <time>2021-01-16T07:33:09Z</time>
      </trkpt>
      <trkpt lat="45.28543" lon="5.76906">
        <ele>1313.1</ele>
        <time>2021-01-16T07:33:10Z</time>
      </trkpt>
      <trkpt lat="45.28545" lon="5.76907">
        <ele>1313.5</ele>
        <time>2021-01-16T07:33:12Z</time>
      </trkpt>
      <trkpt lat="45.28547" lon="5.76908">
        <ele>1313.9</ele>
        <time>2021-01-16T07:33:14Z</time>
      </trkpt>
      <trkpt lat="45.28549" lon="5.76909">
        <ele>1314.3</ele>
        <time>2021-01-16T07:33:17Z</time>
      </trkpt>
      <trkpt lat="45.28551" lon="5.7691">
        <ele>1314.7</ele>
        <time>2021-01-16T07:33:20Z</time>
      </trkpt>
      <trkpt lat="45.28553" lon="5.76909">
        <ele>1315</ele>
        <time>2021-01-16T07:33:24Z</time>
      </trkpt>
      <trkpt lat="45.28556" lon="5.7691">
        <ele>1315.6</ele>
        <time>2021-01-16T07:33:27Z</time>
      </trkpt>
      <trkpt lat="45.28558" lon="5.76908">
        <ele>1315.8</ele>
        <time>2021-01-16T07:33:30Z</time>
      </trkpt>
      <trkpt lat="45.28567" lon="5.76908">
        <ele>1317.2</ele>
        <time>2021-01-16T07:33:40Z</time>
      </trkpt>
      <trkpt lat="45.28574" lon="5.76914">
        <ele>1318.5</ele>
        <time>2021-01-16T07:33:47Z</time>
      </trkpt>
      <trkpt lat="45.2858" lon="5.76916">
        <ele>1319.5</ele>
        <time>2021-01-16T07:33:52Z</time>
      </trkpt>
      <trkpt lat="45.28582" lon="5.76915">
        <ele>1319.7</ele>
        <time>2021-01-16T07:33:55Z</time>
      </trkpt>
      <trkpt lat="45.28584" lon="5.76916">
        <ele>1320</ele>
        <time>2021-01-16T07:33:57Z</time>
      </trkpt>
      <trkpt lat="45.28586" lon="5.76917">
        <ele>1320.3</ele>
        <time>2021-01-16T07:33:59Z</time>
      </trkpt>
      <trkpt lat="45.28589" lon="5.76918">
        <ele>1320.7</ele>
        <time>2021-01-16T07:34:02Z</time>
      </trkpt>
      <trkpt lat="45.28591" lon="5.76918">
        <ele>1320.9</ele>
        <time>2021-01-16T07:34:04Z</time>
      </trkpt>
      <trkpt lat="45.28593" lon="5.76919">
        <ele>1321.2</ele>
        <time>2021-01-16T07:34:06Z</time>
      </trkpt>
      <trkpt lat="45.28595" lon="5.7692">
        <ele>1321.6</ele>
        <time>2021-01-16T07:34:08Z</time>
      </trkpt>
      <trkpt lat="45.28597" lon="5.7692">
        <ele>1353.6</ele>
        <time>2021-01-16T07:34:11Z</time>
      </trkpt>
      <trkpt lat="45.28598" lon="5.76921">
        <ele>1322</ele>
        <time>2021-01-16T07:34:13Z</time>
      </trkpt>
      <trkpt lat="45.286" lon="5.76923">
        <ele>1322.4</ele>
        <time>2021-01-16T07:34:15Z</time>
      </trkpt>
      <trkpt lat="45.28602" lon="5.76923">
        <ele>1322.6</ele>
        <time>2021-01-16T07:34:17Z</time>
      </trkpt>
      <trkpt lat="45.28605" lon="5.76924">
        <ele>1323.1</ele>
        <time>2021-01-16T07:34:20Z</time>
      </trkpt>
      <trkpt lat="45.28607" lon="5.76925">
        <ele>1323.4</ele>
        <time>2021-01-16T07:34:22Z</time>
      </trkpt>
      <trkpt lat="45.28609" lon="5.76927">
        <ele>1323.9</ele>
        <time>2021-01-16T07:34:24Z</time>
      </trkpt>
      <trkpt lat="45.28611" lon="5.76928">
        <ele>1324.2</ele>
        <time>2021-01-16T07:34:27Z</time>
      </trkpt>
      <trkpt lat="45.28613" lon="5.76931">
        <ele>1357.6</ele>
        <time>2021-01-16T07:34:31Z</time>
      </trkpt>
      <trkpt lat="45.28615" lon="5.76934">
        <ele>1325.5</ele>
        <time>2021-01-16T07:34:34Z</time>
      </trkpt>
      <trkpt lat="45.28616" lon="5.76937">
        <ele>1325.9</ele>
        <time>2021-01-16T07:34:37Z</time>
      </trkpt>
      <trkpt lat="45.28618" lon="5.7694">
        <ele>1326.6</ele>
        <time>2021-01-16T07:34:39Z</time>
      </trkpt>
      <trkpt lat="45.28619" lon="5.76943">
        <ele>1360</ele>
        <time>2021-01-16T07:34:41Z</time>
      </trkpt>
      <trkpt lat="45.28621" lon="5.76944">
        <ele>1327.4</ele>
        <time>2021-01-16T07:34:43Z</time>
      </trkpt>
      <trkpt lat="45.28623" lon="5.76947">
        <ele>1328</ele>
        <time>2021-01-16T07:34:45Z</time>
      </trkpt>
      <trkpt lat="45.28624" lon="5.7695">
        <ele>1328.6</ele>
        <time>2021-01-16T07:34:47Z</time>
      </trkpt>
      <trkpt lat="45.28625" lon="5.76952">
        <ele>1329</ele>
        <time>2021-01-16T07:34:49Z</time>
      </trkpt>
      <trkpt lat="45.28626" lon="5.76955">
        <ele>1361.8</ele>
        <time>2021-01-16T07:34:51Z</time>
      </trkpt>
      <trkpt lat="45.28631" lon="5.76963">
        <ele>1331.1</ele>
        <time>2021-01-16T07:34:59Z</time>
      </trkpt>
      <trkpt lat="45.28633" lon="5.76968">
        <ele>1331.9</ele>
        <time>2021-01-16T07:35:03Z</time>
      </trkpt>
      <trkpt lat="45.28633" lon="5.76971">
        <ele>1332.2</ele>
        <time>2021-01-16T07:35:05Z</time>
      </trkpt>
      <trkpt lat="45.28635" lon="5.76974">
        <ele>1332.8</ele>
        <time>2021-01-16T07:35:07Z</time>
      </trkpt>
      <trkpt lat="45.28641" lon="5.76983">
        <ele>1334.7</ele>
        <time>2021-01-16T07:35:13Z</time>
      </trkpt>
      <trkpt lat="45.28642" lon="5.76992">
        <ele>1336.1</ele>
        <time>2021-01-16T07:35:20Z</time>
      </trkpt>
      <trkpt lat="45.28643" lon="5.76994">
        <ele>1336.4</ele>
        <time>2021-01-16T07:35:22Z</time>
      </trkpt>
      <trkpt lat="45.28645" lon="5.77007">
        <ele>1338.6</ele>
        <time>2021-01-16T07:35:32Z</time>
      </trkpt>
      <trkpt lat="45.28647" lon="5.77017">
        <ele>1340.5</ele>
        <time>2021-01-16T07:35:39Z</time>
      </trkpt>
      <trkpt lat="45.28647" lon="5.77019">
        <ele>1371.4</ele>
        <time>2021-01-16T07:35:41Z</time>
      </trkpt>
      <trkpt lat="45.28648" lon="5.77022">
        <ele>1341.4</ele>
        <time>2021-01-16T07:35:43Z</time>
      </trkpt>
      <trkpt lat="45.28652" lon="5.77029">
        <ele>1342.7</ele>
        <time>2021-01-16T07:35:48Z</time>
      </trkpt>
      <trkpt lat="45.28655" lon="5.77041">
        <ele>1345.2</ele>
        <time>2021-01-16T07:35:56Z</time>
      </trkpt>
      <trkpt lat="45.28657" lon="5.77045">
        <ele>1346</ele>
        <time>2021-01-16T07:36:00Z</time>
      </trkpt>
      <trkpt lat="45.28658" lon="5.77047">
        <ele>1346.4</ele>
        <time>2021-01-16T07:36:02Z</time>
      </trkpt>
      <trkpt lat="45.28659" lon="5.7705">
        <ele>1346.9</ele>
        <time>2021-01-16T07:36:04Z</time>
      </trkpt>
      <trkpt lat="45.28663" lon="5.77062">
        <ele>1349.2</ele>
        <time>2021-01-16T07:36:12Z</time>
      </trkpt>
      <trkpt lat="45.28664" lon="5.77074">
        <ele>1378</ele>
        <time>2021-01-16T07:36:21Z</time>
      </trkpt>
      <trkpt lat="45.28667" lon="5.77088">
        <ele>1353.8</ele>
        <time>2021-01-16T07:36:30Z</time>
      </trkpt>
      <trkpt lat="45.28669" lon="5.77095">
        <ele>1355.1</ele>
        <time>2021-01-16T07:36:36Z</time>
      </trkpt>
      <trkpt lat="45.28669" lon="5.77098">
        <ele>1355.6</ele>
        <time>2021-01-16T07:36:39Z</time>
      </trkpt>
      <trkpt lat="45.28669" lon="5.77101">
        <ele>1381</ele>
        <time>2021-01-16T07:36:41Z</time>
      </trkpt>
      <trkpt lat="45.2867" lon="5.77105">
        <ele>1356.8</ele>
        <time>2021-01-16T07:36:44Z</time>
      </trkpt>
      <trkpt lat="45.28672" lon="5.77106">
        <ele>1356.9</ele>
        <time>2021-01-16T07:36:46Z</time>
      </trkpt>
      <trkpt lat="45.28673" lon="5.77108">
        <ele>1357.2</ele>
        <time>2021-01-16T07:36:48Z</time>
      </trkpt>
      <trkpt lat="45.28677" lon="5.7712">
        <ele>1359.4</ele>
        <time>2021-01-16T07:36:57Z</time>
      </trkpt>
      <trkpt lat="45.28678" lon="5.77129">
        <ele>1361.2</ele>
        <time>2021-01-16T07:37:03Z</time>
      </trkpt>
      <trkpt lat="45.28682" lon="5.77142">
        <ele>1363.5</ele>
        <time>2021-01-16T07:37:14Z</time>
      </trkpt>
      <trkpt lat="45.28684" lon="5.77155">
        <ele>1365.7</ele>
        <time>2021-01-16T07:37:22Z</time>
      </trkpt>
      <trkpt lat="45.28687" lon="5.77167">
        <ele>1367.6</ele>
        <time>2021-01-16T07:37:30Z</time>
      </trkpt>
      <trkpt lat="45.28689" lon="5.77181">
        <ele>1369.5</ele>
        <time>2021-01-16T07:37:38Z</time>
      </trkpt>
      <trkpt lat="45.28687" lon="5.77194">
        <ele>1371.5</ele>
        <time>2021-01-16T07:37:47Z</time>
      </trkpt>
      <trkpt lat="45.28688" lon="5.77207">
        <ele>1373.7</ele>
        <time>2021-01-16T07:37:58Z</time>
      </trkpt>
      <trkpt lat="45.28689" lon="5.77221">
        <ele>1376.2</ele>
        <time>2021-01-16T07:38:07Z</time>
      </trkpt>
      <trkpt lat="45.2869" lon="5.77235">
        <ele>1378.2</ele>
        <time>2021-01-16T07:38:18Z</time>
      </trkpt>
      <trkpt lat="45.28692" lon="5.77249">
        <ele>1380.1</ele>
        <time>2021-01-16T07:38:30Z</time>
      </trkpt>
      <trkpt lat="45.28691" lon="5.77262">
        <ele>1383</ele>
        <time>2021-01-16T07:38:40Z</time>
      </trkpt>
      <trkpt lat="45.28696" lon="5.77274">
        <ele>1385</ele>
        <time>2021-01-16T07:38:50Z</time>
      </trkpt>
      <trkpt lat="45.28696" lon="5.77287">
        <ele>1387.8</ele>
        <time>2021-01-16T07:38:59Z</time>
      </trkpt>
      <trkpt lat="45.28691" lon="5.77299">
        <ele>1391</ele>
        <time>2021-01-16T07:39:09Z</time>
      </trkpt>
      <trkpt lat="45.28689" lon="5.773">
        <ele>1404</ele>
        <time>2021-01-16T07:39:11Z</time>
      </trkpt>
      <trkpt lat="45.28687" lon="5.77302">
        <ele>1392</ele>
        <time>2021-01-16T07:39:13Z</time>
      </trkpt>
      <trkpt lat="45.28684" lon="5.77303">
        <ele>1392.6</ele>
        <time>2021-01-16T07:39:15Z</time>
      </trkpt>
      <trkpt lat="45.28682" lon="5.77304">
        <ele>1393</ele>
        <time>2021-01-16T07:39:17Z</time>
      </trkpt>
      <trkpt lat="45.2868" lon="5.77305">
        <ele>1393.4</ele>
        <time>2021-01-16T07:39:19Z</time>
      </trkpt>
      <trkpt lat="45.28678" lon="5.77306">
        <ele>1406.2</ele>
        <time>2021-01-16T07:39:21Z</time>
      </trkpt>
      <trkpt lat="45.28676" lon="5.77307">
        <ele>1394.3</ele>
        <time>2021-01-16T07:39:23Z</time>
      </trkpt>
      <trkpt lat="45.28674" lon="5.77308">
        <ele>1394.7</ele>
        <time>2021-01-16T07:39:25Z</time>
      </trkpt>
      <trkpt lat="45.28672" lon="5.7731">
        <ele>1395.4</ele>
        <time>2021-01-16T07:39:27Z</time>
      </trkpt>
      <trkpt lat="45.28671" lon="5.77312">
        <ele>1395.9</ele>
        <time>2021-01-16T07:39:30Z</time>
      </trkpt>
      <trkpt lat="45.28672" lon="5.77315">
        <ele>1396.5</ele>
        <time>2021-01-16T07:39:32Z</time>
      </trkpt>
      <trkpt lat="45.28673" lon="5.77319">
        <ele>1397.2</ele>
        <time>2021-01-16T07:39:35Z</time>
      </trkpt>
      <trkpt lat="45.28675" lon="5.77328">
        <ele>1398.9</ele>
        <time>2021-01-16T07:39:43Z</time>
      </trkpt>
      <trkpt lat="45.28676" lon="5.7733">
        <ele>1399.3</ele>
        <time>2021-01-16T07:39:45Z</time>
      </trkpt>
      <trkpt lat="45.28673" lon="5.77343">
        <ele>1402.7</ele>
        <time>2021-01-16T07:39:56Z</time>
      </trkpt>
      <trkpt lat="45.28669" lon="5.77353">
        <ele>1405.6</ele>
        <time>2021-01-16T07:40:03Z</time>
      </trkpt>
      <trkpt lat="45.28667" lon="5.77355">
        <ele>1406.4</ele>
        <time>2021-01-16T07:40:05Z</time>
      </trkpt>
      <trkpt lat="45.28665" lon="5.77356">
        <ele>1406.9</ele>
        <time>2021-01-16T07:40:07Z</time>
      </trkpt>
      <trkpt lat="45.28662" lon="5.77357">
        <ele>1407.5</ele>
        <time>2021-01-16T07:40:09Z</time>
      </trkpt>
      <trkpt lat="45.2866" lon="5.77358">
        <ele>1415.4</ele>
        <time>2021-01-16T07:40:11Z</time>
      </trkpt>
      <trkpt lat="45.28659" lon="5.77359">
        <ele>1408.3</ele>
        <time>2021-01-16T07:40:13Z</time>
      </trkpt>
      <trkpt lat="45.28657" lon="5.7736">
        <ele>1408.8</ele>
        <time>2021-01-16T07:40:15Z</time>
      </trkpt>
      <trkpt lat="45.28654" lon="5.77361">
        <ele>1409.3</ele>
        <time>2021-01-16T07:40:18Z</time>
      </trkpt>
      <trkpt lat="45.28652" lon="5.77363">
        <ele>1416.8</ele>
        <time>2021-01-16T07:40:21Z</time>
      </trkpt>
      <trkpt lat="45.2865" lon="5.77364">
        <ele>1410.5</ele>
        <time>2021-01-16T07:40:24Z</time>
      </trkpt>
      <trkpt lat="45.2865" lon="5.77367">
        <ele>1411.2</ele>
        <time>2021-01-16T07:40:28Z</time>
      </trkpt>
      <trkpt lat="45.28651" lon="5.7737">
        <ele>1411.8</ele>
        <time>2021-01-16T07:40:32Z</time>
      </trkpt>
      <trkpt lat="45.28653" lon="5.77373">
        <ele>1412.3</ele>
        <time>2021-01-16T07:40:35Z</time>
      </trkpt>
      <trkpt lat="45.28654" lon="5.77376">
        <ele>1412.8</ele>
        <time>2021-01-16T07:40:38Z</time>
      </trkpt>
      <trkpt lat="45.28655" lon="5.77379">
        <ele>1419</ele>
        <time>2021-01-16T07:40:41Z</time>
      </trkpt>
      <trkpt lat="45.28657" lon="5.77382">
        <ele>1413.8</ele>
        <time>2021-01-16T07:40:44Z</time>
      </trkpt>
      <trkpt lat="45.28662" lon="5.77385">
        <ele>1413.8</ele>
        <time>2021-01-16T07:40:49Z</time>
      </trkpt>
      <trkpt lat="45.28663" lon="5.77389">
        <ele>1420.4</ele>
        <time>2021-01-16T07:40:51Z</time>
      </trkpt>
      <trkpt lat="45.28656" lon="5.77399">
        <ele>1418.1</ele>
        <time>2021-01-16T07:41:00Z</time>
      </trkpt>
      <trkpt lat="45.28649" lon="5.77405">
        <ele>1420.6</ele>
        <time>2021-01-16T07:41:07Z</time>
      </trkpt>
      <trkpt lat="45.28646" lon="5.77406">
        <ele>1421.3</ele>
        <time>2021-01-16T07:41:09Z</time>
      </trkpt>
      <trkpt lat="45.28642" lon="5.77418">
        <ele>1424.9</ele>
        <time>2021-01-16T07:41:22Z</time>
      </trkpt>
      <trkpt lat="45.28645" lon="5.77431">
        <ele>1428.1</ele>
        <time>2021-01-16T07:41:37Z</time>
      </trkpt>
      <trkpt lat="45.28646" lon="5.77444">
        <ele>1431.6</ele>
        <time>2021-01-16T07:41:53Z</time>
      </trkpt>
      <trkpt lat="45.28648" lon="5.77457">
        <ele>1434.8</ele>
        <time>2021-01-16T07:42:02Z</time>
      </trkpt>
      <trkpt lat="45.28646" lon="5.7747">
        <ele>1438.8</ele>
        <time>2021-01-16T07:42:14Z</time>
      </trkpt>
      <trkpt lat="45.2865" lon="5.77482">
        <ele>1441.1</ele>
        <time>2021-01-16T07:42:22Z</time>
      </trkpt>
      <trkpt lat="45.28651" lon="5.77496">
        <ele>1444.4</ele>
        <time>2021-01-16T07:42:33Z</time>
      </trkpt>
      <trkpt lat="45.28648" lon="5.77509">
        <ele>1448.6</ele>
        <time>2021-01-16T07:42:42Z</time>
      </trkpt>
      <trkpt lat="45.28639" lon="5.77507">
        <ele>1450</ele>
        <time>2021-01-16T07:42:53Z</time>
      </trkpt>
      <trkpt lat="45.28637" lon="5.77508">
        <ele>1450.8</ele>
        <time>2021-01-16T07:42:56Z</time>
      </trkpt>
      <trkpt lat="45.2863" lon="5.77508">
        <ele>1452.5</ele>
        <time>2021-01-16T07:43:04Z</time>
      </trkpt>
      <trkpt lat="45.28627" lon="5.77509">
        <ele>1453.6</ele>
        <time>2021-01-16T07:43:07Z</time>
      </trkpt>
      <trkpt lat="45.28625" lon="5.77509">
        <ele>1454.1</ele>
        <time>2021-01-16T07:43:09Z</time>
      </trkpt>
      <trkpt lat="45.28617" lon="5.77511">
        <ele>1459.6</ele>
        <time>2021-01-16T07:43:21Z</time>
      </trkpt>
      <trkpt lat="45.28615" lon="5.77512">
        <ele>1457.5</ele>
        <time>2021-01-16T07:43:23Z</time>
      </trkpt>
      <trkpt lat="45.28611" lon="5.77512">
        <ele>1458.5</ele>
        <time>2021-01-16T07:43:30Z</time>
      </trkpt>
      <trkpt lat="45.28615" lon="5.77525">
        <ele>1461.2</ele>
        <time>2021-01-16T07:43:40Z</time>
      </trkpt>
      <trkpt lat="45.28612" lon="5.77538">
        <ele>1465.4</ele>
        <time>2021-01-16T07:43:54Z</time>
      </trkpt>
      <trkpt lat="45.28605" lon="5.77538">
        <ele>1467.1</ele>
        <time>2021-01-16T07:44:02Z</time>
      </trkpt>
      <trkpt lat="45.28601" lon="5.7754">
        <ele>1468.6</ele>
        <time>2021-01-16T07:44:06Z</time>
      </trkpt>
      <trkpt lat="45.28592" lon="5.77544">
        <ele>1471.9</ele>
        <time>2021-01-16T07:44:15Z</time>
      </trkpt>
      <trkpt lat="45.28589" lon="5.77545">
        <ele>1475.4</ele>
        <time>2021-01-16T07:44:21Z</time>
      </trkpt>
      <trkpt lat="45.28591" lon="5.77558">
        <ele>1475.7</ele>
        <time>2021-01-16T07:44:35Z</time>
      </trkpt>
      <trkpt lat="45.28594" lon="5.7757">
        <ele>1478</ele>
        <time>2021-01-16T07:44:47Z</time>
      </trkpt>
      <trkpt lat="45.28599" lon="5.77581">
        <ele>1479.5</ele>
        <time>2021-01-16T07:44:59Z</time>
      </trkpt>
      <trkpt lat="45.2859" lon="5.77586">
        <ele>1482.9</ele>
        <time>2021-01-16T07:45:15Z</time>
      </trkpt>
      <trkpt lat="45.28581" lon="5.77591">
        <ele>1486.2</ele>
        <time>2021-01-16T07:45:23Z</time>
      </trkpt>
      <trkpt lat="45.28582" lon="5.77605">
        <ele>1489</ele>
        <time>2021-01-16T07:45:49Z</time>
      </trkpt>
      <trkpt lat="45.28585" lon="5.77617">
        <ele>1491.3</ele>
        <time>2021-01-16T07:45:57Z</time>
      </trkpt>
      <trkpt lat="45.28577" lon="5.77624">
        <ele>1503.6</ele>
        <time>2021-01-16T07:46:11Z</time>
      </trkpt>
      <trkpt lat="45.28568" lon="5.77628">
        <ele>1498.7</ele>
        <time>2021-01-16T07:46:22Z</time>
      </trkpt>
      <trkpt lat="45.28573" lon="5.7764">
        <ele>1501</ele>
        <time>2021-01-16T07:46:39Z</time>
      </trkpt>
      <trkpt lat="45.28564" lon="5.77643">
        <ele>1504.2</ele>
        <time>2021-01-16T07:46:49Z</time>
      </trkpt>
      <trkpt lat="45.28555" lon="5.77647">
        <ele>1507.8</ele>
        <time>2021-01-16T07:47:02Z</time>
      </trkpt>
      <trkpt lat="45.28546" lon="5.77653">
        <ele>1515.8</ele>
        <time>2021-01-16T07:47:11Z</time>
      </trkpt>
      <trkpt lat="45.28537" lon="5.77654">
        <ele>1518.4</ele>
        <time>2021-01-16T07:47:21Z</time>
      </trkpt>
      <trkpt lat="45.28528" lon="5.77655">
        <ele>1517.2</ele>
        <time>2021-01-16T07:47:32Z</time>
      </trkpt>
      <trkpt lat="45.28519" lon="5.77662">
        <ele>1522</ele>
        <time>2021-01-16T07:47:43Z</time>
      </trkpt>
      <trkpt lat="45.2852" lon="5.77669">
        <ele>1526.2</ele>
        <time>2021-01-16T07:47:51Z</time>
      </trkpt>
      <trkpt lat="45.28529" lon="5.77675">
        <ele>1524</ele>
        <time>2021-01-16T07:48:02Z</time>
      </trkpt>
      <trkpt lat="45.28535" lon="5.77679">
        <ele>1530.4</ele>
        <time>2021-01-16T07:48:11Z</time>
      </trkpt>
      <trkpt lat="45.28543" lon="5.77685">
        <ele>1524.4</ele>
        <time>2021-01-16T07:48:20Z</time>
      </trkpt>
      <trkpt lat="45.28544" lon="5.77687">
        <ele>1525</ele>
        <time>2021-01-16T07:48:22Z</time>
      </trkpt>
      <trkpt lat="45.28547" lon="5.77688">
        <ele>1524.6</ele>
        <time>2021-01-16T07:48:24Z</time>
      </trkpt>
      <trkpt lat="45.28551" lon="5.77691">
        <ele>1524.8</ele>
        <time>2021-01-16T07:48:33Z</time>
      </trkpt>
      <trkpt lat="45.28553" lon="5.77694">
        <ele>1525.5</ele>
        <time>2021-01-16T07:48:37Z</time>
      </trkpt>
      <trkpt lat="45.28551" lon="5.77708">
        <ele>1531.6</ele>
        <time>2021-01-16T07:48:53Z</time>
      </trkpt>
      <trkpt lat="45.28549" lon="5.77713">
        <ele>1534.2</ele>
        <time>2021-01-16T07:49:07Z</time>
      </trkpt>
      <trkpt lat="45.28551" lon="5.77708">
        <ele>1531.6</ele>
        <time>2021-01-16T07:49:17Z</time>
      </trkpt>
      <trkpt lat="45.28551" lon="5.77704">
        <ele>1530</ele>
        <time>2021-01-16T07:49:40Z</time>
      </trkpt>
      <trkpt lat="45.28548" lon="5.77716">
        <ele>1535.7</ele>
        <time>2021-01-16T07:50:10Z</time>
      </trkpt>
      <trkpt lat="45.28555" lon="5.77725">
        <ele>1543.2</ele>
        <time>2021-01-16T07:50:21Z</time>
      </trkpt>
      <trkpt lat="45.28561" lon="5.77735">
        <ele>1540</ele>
        <time>2021-01-16T07:50:32Z</time>
      </trkpt>
      <trkpt lat="45.28567" lon="5.77747">
        <ele>1549.4</ele>
        <time>2021-01-16T07:50:41Z</time>
      </trkpt>
      <trkpt lat="45.2857" lon="5.77759">
        <ele>1547.9</ele>
        <time>2021-01-16T07:50:50Z</time>
      </trkpt>
      <trkpt lat="45.28574" lon="5.77772">
        <ele>1552.7</ele>
        <time>2021-01-16T07:51:02Z</time>
      </trkpt>
      <trkpt lat="45.28579" lon="5.77784">
        <ele>1557</ele>
        <time>2021-01-16T07:51:12Z</time>
      </trkpt>
      <trkpt lat="45.28584" lon="5.77795">
        <ele>1560.9</ele>
        <time>2021-01-16T07:51:24Z</time>
      </trkpt>
      <trkpt lat="45.28585" lon="5.77809">
        <ele>1566.4</ele>
        <time>2021-01-16T07:51:31Z</time>
      </trkpt>
      <trkpt lat="45.28589" lon="5.77822">
        <ele>1572.9</ele>
        <time>2021-01-16T07:51:40Z</time>
      </trkpt>
      <trkpt lat="45.28594" lon="5.77833">
        <ele>1577.3</ele>
        <time>2021-01-16T07:51:50Z</time>
      </trkpt>
      <trkpt lat="45.28597" lon="5.77846">
        <ele>1582.5</ele>
        <time>2021-01-16T07:51:58Z</time>
      </trkpt>
      <trkpt lat="45.286" lon="5.77859">
        <ele>1587.7</ele>
        <time>2021-01-16T07:52:15Z</time>
      </trkpt>
      <trkpt lat="45.28606" lon="5.7787">
        <ele>1591.6</ele>
        <time>2021-01-16T07:52:23Z</time>
      </trkpt>
      <trkpt lat="45.28612" lon="5.77879">
        <ele>1594.7</ele>
        <time>2021-01-16T07:52:36Z</time>
      </trkpt>
      <trkpt lat="45.28617" lon="5.77889">
        <ele>1598.8</ele>
        <time>2021-01-16T07:52:46Z</time>
      </trkpt>
      <trkpt lat="45.28627" lon="5.77893">
        <ele>1599.9</ele>
        <time>2021-01-16T07:53:02Z</time>
      </trkpt>
      <trkpt lat="45.28628" lon="5.77892">
        <ele>1599.5</ele>
        <time>2021-01-16T07:53:05Z</time>
      </trkpt>
      <trkpt lat="45.28636" lon="5.77901">
        <ele>1602.5</ele>
        <time>2021-01-16T07:53:18Z</time>
      </trkpt>
      <trkpt lat="45.28644" lon="5.77907">
        <ele>1605.6</ele>
        <time>2021-01-16T07:53:29Z</time>
      </trkpt>
      <trkpt lat="45.28638" lon="5.77918">
        <ele>1608.5</ele>
        <time>2021-01-16T07:53:43Z</time>
      </trkpt>
      <trkpt lat="45.28632" lon="5.77928">
        <ele>1612.3</ele>
        <time>2021-01-16T07:53:54Z</time>
      </trkpt>
      <trkpt lat="45.28627" lon="5.7794">
        <ele>1616.8</ele>
        <time>2021-01-16T07:54:05Z</time>
      </trkpt>
      <trkpt lat="45.2862" lon="5.77948">
        <ele>1620.1</ele>
        <time>2021-01-16T07:54:16Z</time>
      </trkpt>
      <trkpt lat="45.28614" lon="5.77958">
        <ele>1624.3</ele>
        <time>2021-01-16T07:54:28Z</time>
      </trkpt>
      <trkpt lat="45.28607" lon="5.77966">
        <ele>1628.3</ele>
        <time>2021-01-16T07:54:39Z</time>
      </trkpt>
      <trkpt lat="45.28602" lon="5.77977">
        <ele>1633.8</ele>
        <time>2021-01-16T07:54:50Z</time>
      </trkpt>
      <trkpt lat="45.28593" lon="5.77975">
        <ele>1634.4</ele>
        <time>2021-01-16T07:55:02Z</time>
      </trkpt>
      <trkpt lat="45.28583" lon="5.77973">
        <ele>1635.4</ele>
        <time>2021-01-16T07:55:15Z</time>
      </trkpt>
      <trkpt lat="45.28585" lon="5.77986">
        <ele>1640.2</ele>
        <time>2021-01-16T07:56:07Z</time>
      </trkpt>
      <trkpt lat="45.28588" lon="5.77999">
        <ele>1645.1</ele>
        <time>2021-01-16T07:56:20Z</time>
      </trkpt>
      <trkpt lat="45.28593" lon="5.7801">
        <ele>1645.4</ele>
        <time>2021-01-16T07:56:31Z</time>
      </trkpt>
      <trkpt lat="45.28603" lon="5.78013">
        <ele>1649</ele>
        <time>2021-01-16T07:56:47Z</time>
      </trkpt>
      <trkpt lat="45.28611" lon="5.78019">
        <ele>1650.5</ele>
        <time>2021-01-16T07:56:57Z</time>
      </trkpt>
      <trkpt lat="45.28619" lon="5.78025">
        <ele>1652.9</ele>
        <time>2021-01-16T07:57:07Z</time>
      </trkpt>
      <trkpt lat="45.28629" lon="5.78027">
        <ele>1653.7</ele>
        <time>2021-01-16T07:57:18Z</time>
      </trkpt>
      <trkpt lat="45.28633" lon="5.78027">
        <ele>1653.7</ele>
        <time>2021-01-16T07:57:22Z</time>
      </trkpt>
      <trkpt lat="45.28635" lon="5.78027">
        <ele>1653.7</ele>
        <time>2021-01-16T07:57:25Z</time>
      </trkpt>
      <trkpt lat="45.28644" lon="5.78031">
        <ele>1656.3</ele>
        <time>2021-01-16T07:57:42Z</time>
      </trkpt>
      <trkpt lat="45.28649" lon="5.78032">
        <ele>1657.6</ele>
        <time>2021-01-16T07:57:47Z</time>
      </trkpt>
      <trkpt lat="45.28652" lon="5.78033">
        <ele>1662.8</ele>
        <time>2021-01-16T07:57:51Z</time>
      </trkpt>
      <trkpt lat="45.28661" lon="5.78035">
        <ele>1660.9</ele>
        <time>2021-01-16T07:58:04Z</time>
      </trkpt>
      <trkpt lat="45.2867" lon="5.78038">
        <ele>1664</ele>
        <time>2021-01-16T07:58:12Z</time>
      </trkpt>
      <trkpt lat="45.28676" lon="5.78034">
        <ele>1664.1</ele>
        <time>2021-01-16T07:58:27Z</time>
      </trkpt>
      <trkpt lat="45.28685" lon="5.78033">
        <ele>1666.2</ele>
        <time>2021-01-16T07:58:45Z</time>
      </trkpt>
      <trkpt lat="45.28695" lon="5.78035">
        <ele>1669.6</ele>
        <time>2021-01-16T07:58:59Z</time>
      </trkpt>
      <trkpt lat="45.28704" lon="5.7804">
        <ele>1677.4</ele>
        <time>2021-01-16T07:59:11Z</time>
      </trkpt>
      <trkpt lat="45.28712" lon="5.78045">
        <ele>1674.2</ele>
        <time>2021-01-16T07:59:20Z</time>
      </trkpt>
      <trkpt lat="45.28719" lon="5.78053">
        <ele>1677.8</ele>
        <time>2021-01-16T07:59:30Z</time>
      </trkpt>
      <trkpt lat="45.28727" lon="5.78062">
        <ele>1681.4</ele>
        <time>2021-01-16T07:59:42Z</time>
      </trkpt>
      <trkpt lat="45.28735" lon="5.7807">
        <ele>1684.3</ele>
        <time>2021-01-16T07:59:56Z</time>
      </trkpt>
      <trkpt lat="45.28741" lon="5.78079">
        <ele>1687.8</ele>
        <time>2021-01-16T08:00:08Z</time>
      </trkpt>
      <trkpt lat="45.28738" lon="5.78088">
        <ele>1691.9</ele>
        <time>2021-01-16T08:00:22Z</time>
      </trkpt>
      <trkpt lat="45.28735" lon="5.7809">
        <ele>1693</ele>
        <time>2021-01-16T08:00:26Z</time>
      </trkpt>
      <trkpt lat="45.28733" lon="5.78092">
        <ele>1694</ele>
        <time>2021-01-16T08:00:30Z</time>
      </trkpt>
      <trkpt lat="45.28731" lon="5.78092">
        <ele>1694.1</ele>
        <time>2021-01-16T08:00:35Z</time>
      </trkpt>
      <trkpt lat="45.28731" lon="5.78095">
        <ele>1699.2</ele>
        <time>2021-01-16T08:00:41Z</time>
      </trkpt>
      <trkpt lat="45.28733" lon="5.78098">
        <ele>1696.6</ele>
        <time>2021-01-16T08:00:45Z</time>
      </trkpt>
      <trkpt lat="45.2874" lon="5.78107">
        <ele>1699.9</ele>
        <time>2021-01-16T08:00:57Z</time>
      </trkpt>
      <trkpt lat="45.28742" lon="5.78109">
        <ele>1700.7</ele>
        <time>2021-01-16T08:01:00Z</time>
      </trkpt>
      <trkpt lat="45.28744" lon="5.78117">
        <ele>1707</ele>
        <time>2021-01-16T08:01:11Z</time>
      </trkpt>
      <trkpt lat="45.28742" lon="5.78118">
        <ele>1704.4</ele>
        <time>2021-01-16T08:01:14Z</time>
      </trkpt>
      <trkpt lat="45.2874" lon="5.78119">
        <ele>1704.9</ele>
        <time>2021-01-16T08:01:17Z</time>
      </trkpt>
      <trkpt lat="45.28738" lon="5.7812">
        <ele>1705.5</ele>
        <time>2021-01-16T08:01:19Z</time>
      </trkpt>
      <trkpt lat="45.28736" lon="5.7812">
        <ele>1705.7</ele>
        <time>2021-01-16T08:01:22Z</time>
      </trkpt>
      <trkpt lat="45.28734" lon="5.78121">
        <ele>1706.3</ele>
        <time>2021-01-16T08:01:24Z</time>
      </trkpt>
      <trkpt lat="45.28731" lon="5.78122">
        <ele>1706.9</ele>
        <time>2021-01-16T08:01:28Z</time>
      </trkpt>
      <trkpt lat="45.28729" lon="5.78122">
        <ele>1712</ele>
        <time>2021-01-16T08:01:31Z</time>
      </trkpt>
      <trkpt lat="45.28726" lon="5.78123">
        <ele>1707.8</ele>
        <time>2021-01-16T08:01:34Z</time>
      </trkpt>
      <trkpt lat="45.28724" lon="5.78124">
        <ele>1708.4</ele>
        <time>2021-01-16T08:01:36Z</time>
      </trkpt>
      <trkpt lat="45.28722" lon="5.78126">
        <ele>1709.4</ele>
        <time>2021-01-16T08:01:39Z</time>
      </trkpt>
      <trkpt lat="45.28718" lon="5.78129">
        <ele>1710.4</ele>
        <time>2021-01-16T08:01:44Z</time>
      </trkpt>
      <trkpt lat="45.28716" lon="5.7813">
        <ele>1710.7</ele>
        <time>2021-01-16T08:01:46Z</time>
      </trkpt>
      <trkpt lat="45.28714" lon="5.78132">
        <ele>1711.4</ele>
        <time>2021-01-16T08:01:49Z</time>
      </trkpt>
      <trkpt lat="45.28712" lon="5.78134">
        <ele>1712.2</ele>
        <time>2021-01-16T08:01:53Z</time>
      </trkpt>
      <trkpt lat="45.28708" lon="5.78136">
        <ele>1712.7</ele>
        <time>2021-01-16T08:01:58Z</time>
      </trkpt>
      <trkpt lat="45.28706" lon="5.78138">
        <ele>1719.4</ele>
        <time>2021-01-16T08:02:01Z</time>
      </trkpt>
      <trkpt lat="45.28705" lon="5.78141">
        <ele>1714.7</ele>
        <time>2021-01-16T08:02:06Z</time>
      </trkpt>
      <trkpt lat="45.28706" lon="5.78143">
        <ele>1715.6</ele>
        <time>2021-01-16T08:02:14Z</time>
      </trkpt>
      <trkpt lat="45.28708" lon="5.78145">
        <ele>1716.6</ele>
        <time>2021-01-16T08:02:17Z</time>
      </trkpt>
      <trkpt lat="45.28709" lon="5.78146">
        <ele>1717.1</ele>
        <time>2021-01-16T08:02:22Z</time>
      </trkpt>
      <trkpt lat="45.28716" lon="5.78155">
        <ele>1721.5</ele>
        <time>2021-01-16T08:02:33Z</time>
      </trkpt>
      <trkpt lat="45.28722" lon="5.78163">
        <ele>1725.4</ele>
        <time>2021-01-16T08:02:44Z</time>
      </trkpt>
      <trkpt lat="45.28717" lon="5.78172">
        <ele>1729.1</ele>
        <time>2021-01-16T08:02:59Z</time>
      </trkpt>
      <trkpt lat="45.28715" lon="5.78173">
        <ele>1729.4</ele>
        <time>2021-01-16T08:03:05Z</time>
      </trkpt>
      <trkpt lat="45.28713" lon="5.78175">
        <ele>1730.1</ele>
        <time>2021-01-16T08:03:10Z</time>
      </trkpt>
      <trkpt lat="45.28711" lon="5.78176">
        <ele>1730.4</ele>
        <time>2021-01-16T08:03:13Z</time>
      </trkpt>
      <trkpt lat="45.28709" lon="5.78177">
        <ele>1730.7</ele>
        <time>2021-01-16T08:03:15Z</time>
      </trkpt>
      <trkpt lat="45.28707" lon="5.78178">
        <ele>1731</ele>
        <time>2021-01-16T08:03:18Z</time>
      </trkpt>
      <trkpt lat="45.28706" lon="5.7818">
        <ele>1731.8</ele>
        <time>2021-01-16T08:03:20Z</time>
      </trkpt>
      <trkpt lat="45.28704" lon="5.78181">
        <ele>1732.1</ele>
        <time>2021-01-16T08:03:22Z</time>
      </trkpt>
      <trkpt lat="45.28702" lon="5.78182">
        <ele>1732.3</ele>
        <time>2021-01-16T08:03:24Z</time>
      </trkpt>
      <trkpt lat="45.287" lon="5.78186">
        <ele>1733.9</ele>
        <time>2021-01-16T08:03:28Z</time>
      </trkpt>
      <trkpt lat="45.28698" lon="5.78188">
        <ele>1740.8</ele>
        <time>2021-01-16T08:03:31Z</time>
      </trkpt>
      <trkpt lat="45.28696" lon="5.78191">
        <ele>1735.7</ele>
        <time>2021-01-16T08:03:34Z</time>
      </trkpt>
      <trkpt lat="45.28694" lon="5.78193">
        <ele>1736.3</ele>
        <time>2021-01-16T08:03:37Z</time>
      </trkpt>
      <trkpt lat="45.28693" lon="5.78195">
        <ele>1737</ele>
        <time>2021-01-16T08:03:40Z</time>
      </trkpt>
      <trkpt lat="45.28691" lon="5.78197">
        <ele>1737.5</ele>
        <time>2021-01-16T08:03:43Z</time>
      </trkpt>
      <trkpt lat="45.2869" lon="5.78199">
        <ele>1738.3</ele>
        <time>2021-01-16T08:03:45Z</time>
      </trkpt>
      <trkpt lat="45.28689" lon="5.78202">
        <ele>1739.6</ele>
        <time>2021-01-16T08:03:48Z</time>
      </trkpt>
      <trkpt lat="45.28686" lon="5.78206">
        <ele>1741</ele>
        <time>2021-01-16T08:03:53Z</time>
      </trkpt>
      <trkpt lat="45.28684" lon="5.78209">
        <ele>1742.1</ele>
        <time>2021-01-16T08:03:57Z</time>
      </trkpt>
      <trkpt lat="45.28682" lon="5.78211">
        <ele>1742.7</ele>
        <time>2021-01-16T08:03:59Z</time>
      </trkpt>
      <trkpt lat="45.28678" lon="5.78213">
        <ele>1742.8</ele>
        <time>2021-01-16T08:04:04Z</time>
      </trkpt>
      <trkpt lat="45.28674" lon="5.78216">
        <ele>1743.4</ele>
        <time>2021-01-16T08:04:09Z</time>
      </trkpt>
      <trkpt lat="45.28671" lon="5.78217">
        <ele>1743.3</ele>
        <time>2021-01-16T08:04:13Z</time>
      </trkpt>
      <trkpt lat="45.28669" lon="5.78218">
        <ele>1743.4</ele>
        <time>2021-01-16T08:04:16Z</time>
      </trkpt>
      <trkpt lat="45.28667" lon="5.78219">
        <ele>1743.4</ele>
        <time>2021-01-16T08:04:18Z</time>
      </trkpt>
      <trkpt lat="45.28665" lon="5.78221">
        <ele>1749.8</ele>
        <time>2021-01-16T08:04:21Z</time>
      </trkpt>
      <trkpt lat="45.28663" lon="5.78221">
        <ele>1744.6</ele>
        <time>2021-01-16T08:04:24Z</time>
      </trkpt>
      <trkpt lat="45.28661" lon="5.78222">
        <ele>1745.3</ele>
        <time>2021-01-16T08:04:26Z</time>
      </trkpt>
      <trkpt lat="45.28659" lon="5.78224">
        <ele>1746.6</ele>
        <time>2021-01-16T08:04:29Z</time>
      </trkpt>
      <trkpt lat="45.28657" lon="5.78225">
        <ele>1747.3</ele>
        <time>2021-01-16T08:04:33Z</time>
      </trkpt>
      <trkpt lat="45.28655" lon="5.78227">
        <ele>1748.7</ele>
        <time>2021-01-16T08:04:37Z</time>
      </trkpt>
      <trkpt lat="45.28648" lon="5.7823">
        <ele>1759.2</ele>
        <time>2021-01-16T08:04:51Z</time>
      </trkpt>
      <trkpt lat="45.28646" lon="5.78229">
        <ele>1760.6</ele>
        <time>2021-01-16T08:05:01Z</time>
      </trkpt>
      <trkpt lat="45.28644" lon="5.78227">
        <ele>1749.5</ele>
        <time>2021-01-16T08:05:12Z</time>
      </trkpt>
      <trkpt lat="45.28642" lon="5.78226">
        <ele>1749.1</ele>
        <time>2021-01-16T08:05:15Z</time>
      </trkpt>
      <trkpt lat="45.28637" lon="5.78224">
        <ele>1748.8</ele>
        <time>2021-01-16T08:05:20Z</time>
      </trkpt>
      <trkpt lat="45.28635" lon="5.78222">
        <ele>1748.3</ele>
        <time>2021-01-16T08:05:22Z</time>
      </trkpt>
      <trkpt lat="45.28633" lon="5.7822">
        <ele>1747.9</ele>
        <time>2021-01-16T08:05:24Z</time>
      </trkpt>
      <trkpt lat="45.28629" lon="5.78217">
        <ele>1747.7</ele>
        <time>2021-01-16T08:05:29Z</time>
      </trkpt>
      <trkpt lat="45.28627" lon="5.78216">
        <ele>1747.8</ele>
        <time>2021-01-16T08:05:32Z</time>
      </trkpt>
      <trkpt lat="45.28619" lon="5.7821">
        <ele>1761</ele>
        <time>2021-01-16T08:05:41Z</time>
      </trkpt>
      <trkpt lat="45.2861" lon="5.78208">
        <ele>1763.8</ele>
        <time>2021-01-16T08:05:51Z</time>
      </trkpt>
      <trkpt lat="45.28608" lon="5.78208">
        <ele>1750</ele>
        <time>2021-01-16T08:05:54Z</time>
      </trkpt>
      <trkpt lat="45.28601" lon="5.78209">
        <ele>1753.4</ele>
        <time>2021-01-16T08:06:04Z</time>
      </trkpt>
      <trkpt lat="45.28599" lon="5.7821">
        <ele>1754.8</ele>
        <time>2021-01-16T08:06:06Z</time>
      </trkpt>
      <trkpt lat="45.28589" lon="5.7821">
        <ele>1758.7</ele>
        <time>2021-01-16T08:06:19Z</time>
      </trkpt>
      <trkpt lat="45.2858" lon="5.78215">
        <ele>1765.2</ele>
        <time>2021-01-16T08:06:30Z</time>
      </trkpt>
      <trkpt lat="45.28571" lon="5.7822">
        <ele>1771.6</ele>
        <time>2021-01-16T08:06:42Z</time>
      </trkpt>
      <trkpt lat="45.28562" lon="5.78221">
        <ele>1775.8</ele>
        <time>2021-01-16T08:06:55Z</time>
      </trkpt>
      <trkpt lat="45.28559" lon="5.78222">
        <ele>1777.5</ele>
        <time>2021-01-16T08:07:00Z</time>
      </trkpt>
      <trkpt lat="45.28555" lon="5.78225">
        <ele>1780.5</ele>
        <time>2021-01-16T08:07:06Z</time>
      </trkpt>
      <trkpt lat="45.28551" lon="5.78225">
        <ele>1781.8</ele>
        <time>2021-01-16T08:07:12Z</time>
      </trkpt>
      <trkpt lat="45.28549" lon="5.78224">
        <ele>1781.9</ele>
        <time>2021-01-16T08:07:15Z</time>
      </trkpt>
      <trkpt lat="45.28547" lon="5.78223">
        <ele>1782.1</ele>
        <time>2021-01-16T08:07:18Z</time>
      </trkpt>
      <trkpt lat="45.28545" lon="5.78223">
        <ele>1787.2</ele>
        <time>2021-01-16T08:07:21Z</time>
      </trkpt>
      <trkpt lat="45.28543" lon="5.78224">
        <ele>1783.9</ele>
        <time>2021-01-16T08:07:24Z</time>
      </trkpt>
      <trkpt lat="45.28541" lon="5.78225">
        <ele>1785</ele>
        <time>2021-01-16T08:07:27Z</time>
      </trkpt>
      <trkpt lat="45.28539" lon="5.78226">
        <ele>1786.1</ele>
        <time>2021-01-16T08:07:29Z</time>
      </trkpt>
      <trkpt lat="45.28537" lon="5.78228">
        <ele>1788.8</ele>
        <time>2021-01-16T08:07:31Z</time>
      </trkpt>
      <trkpt lat="45.28534" lon="5.78228">
        <ele>1788.5</ele>
        <time>2021-01-16T08:07:37Z</time>
      </trkpt>
      <trkpt lat="45.28528" lon="5.78232">
        <ele>1792.2</ele>
        <time>2021-01-16T08:07:43Z</time>
      </trkpt>
      <trkpt lat="45.28526" lon="5.78233">
        <ele>1793.1</ele>
        <time>2021-01-16T08:07:46Z</time>
      </trkpt>
      <trkpt lat="45.28524" lon="5.78233">
        <ele>1793.7</ele>
        <time>2021-01-16T08:07:49Z</time>
      </trkpt>
      <trkpt lat="45.28521" lon="5.78234">
        <ele>1794.9</ele>
        <time>2021-01-16T08:07:55Z</time>
      </trkpt>
      <trkpt lat="45.28519" lon="5.78235">
        <ele>1795.9</ele>
        <time>2021-01-16T08:07:59Z</time>
      </trkpt>
      <trkpt lat="45.2851" lon="5.7824">
        <ele>1800.4</ele>
        <time>2021-01-16T08:08:12Z</time>
      </trkpt>
      <trkpt lat="45.28501" lon="5.78243">
        <ele>1804</ele>
        <time>2021-01-16T08:08:26Z</time>
      </trkpt>
      <trkpt lat="45.28495" lon="5.78241">
        <ele>1804.6</ele>
        <time>2021-01-16T08:08:34Z</time>
      </trkpt>
      <trkpt lat="45.28494" lon="5.78239">
        <ele>1804</ele>
        <time>2021-01-16T08:08:39Z</time>
      </trkpt>
      <trkpt lat="45.28492" lon="5.78238">
        <ele>1807.2</ele>
        <time>2021-01-16T08:08:41Z</time>
      </trkpt>
      <trkpt lat="45.2849" lon="5.78236">
        <ele>1803.8</ele>
        <time>2021-01-16T08:08:44Z</time>
      </trkpt>
      <trkpt lat="45.28488" lon="5.78237">
        <ele>1804.6</ele>
        <time>2021-01-16T08:08:47Z</time>
      </trkpt>
      <trkpt lat="45.28478" lon="5.78238">
        <ele>1807.3</ele>
        <time>2021-01-16T08:09:03Z</time>
      </trkpt>
      <trkpt lat="45.28468" lon="5.78242">
        <ele>1810.9</ele>
        <time>2021-01-16T08:09:13Z</time>
      </trkpt>
      <trkpt lat="45.28462" lon="5.78241">
        <ele>1811.7</ele>
        <time>2021-01-16T08:09:23Z</time>
      </trkpt>
      <trkpt lat="45.2846" lon="5.78241">
        <ele>1812.1</ele>
        <time>2021-01-16T08:09:28Z</time>
      </trkpt>
      <trkpt lat="45.28458" lon="5.78243">
        <ele>1813.2</ele>
        <time>2021-01-16T08:09:32Z</time>
      </trkpt>
      <trkpt lat="45.28456" lon="5.78255">
        <ele>1817.6</ele>
        <time>2021-01-16T08:09:43Z</time>
      </trkpt>
      <trkpt lat="45.28452" lon="5.78256">
        <ele>1818.6</ele>
        <time>2021-01-16T08:09:49Z</time>
      </trkpt>
      <trkpt lat="45.2845" lon="5.78257">
        <ele>1819.3</ele>
        <time>2021-01-16T08:09:52Z</time>
      </trkpt>
      <trkpt lat="45.28448" lon="5.78256">
        <ele>1819.3</ele>
        <time>2021-01-16T08:09:54Z</time>
      </trkpt>
      <trkpt lat="45.28446" lon="5.78256">
        <ele>1819.7</ele>
        <time>2021-01-16T08:09:56Z</time>
      </trkpt>
      <trkpt lat="45.28444" lon="5.78257">
        <ele>1820.3</ele>
        <time>2021-01-16T08:09:59Z</time>
      </trkpt>
      <trkpt lat="45.2844" lon="5.78259">
        <ele>1821.7</ele>
        <time>2021-01-16T08:10:08Z</time>
      </trkpt>
      <trkpt lat="45.28437" lon="5.78262">
        <ele>1823.2</ele>
        <time>2021-01-16T08:10:15Z</time>
      </trkpt>
      <trkpt lat="45.28436" lon="5.78264">
        <ele>1824.1</ele>
        <time>2021-01-16T08:10:18Z</time>
      </trkpt>
      <trkpt lat="45.28437" lon="5.78267">
        <ele>1824.8</ele>
        <time>2021-01-16T08:10:23Z</time>
      </trkpt>
      <trkpt lat="45.28438" lon="5.7827">
        <ele>1825.6</ele>
        <time>2021-01-16T08:10:26Z</time>
      </trkpt>
      <trkpt lat="45.28441" lon="5.78283">
        <ele>1829.3</ele>
        <time>2021-01-16T08:10:40Z</time>
      </trkpt>
      <trkpt lat="45.28439" lon="5.78285">
        <ele>1830.2</ele>
        <time>2021-01-16T08:10:43Z</time>
      </trkpt>
      <trkpt lat="45.28439" lon="5.78288">
        <ele>1831.1</ele>
        <time>2021-01-16T08:10:47Z</time>
      </trkpt>
      <trkpt lat="45.28439" lon="5.78292">
        <ele>1832.4</ele>
        <time>2021-01-16T08:10:50Z</time>
      </trkpt>
      <trkpt lat="45.28437" lon="5.78305">
        <ele>1836.6</ele>
        <time>2021-01-16T08:11:04Z</time>
      </trkpt>
      <trkpt lat="45.28434" lon="5.78318">
        <ele>1840.5</ele>
        <time>2021-01-16T08:11:18Z</time>
      </trkpt>
      <trkpt lat="45.28431" lon="5.7833">
        <ele>1844.1</ele>
        <time>2021-01-16T08:11:30Z</time>
      </trkpt>
      <trkpt lat="45.28428" lon="5.78339">
        <ele>1846.9</ele>
        <time>2021-01-16T08:11:49Z</time>
      </trkpt>
      <trkpt lat="45.28427" lon="5.7834">
        <ele>1847.3</ele>
        <time>2021-01-16T08:11:58Z</time>
      </trkpt>
      <trkpt lat="45.28425" lon="5.78343">
        <ele>1853.4</ele>
        <time>2021-01-16T08:12:01Z</time>
      </trkpt>
      <trkpt lat="45.28423" lon="5.78345">
        <ele>1849</ele>
        <time>2021-01-16T08:12:05Z</time>
      </trkpt>
      <trkpt lat="45.28423" lon="5.78347">
        <ele>1849.6</ele>
        <time>2021-01-16T08:12:12Z</time>
      </trkpt>
      <trkpt lat="45.28422" lon="5.7835">
        <ele>1850.5</ele>
        <time>2021-01-16T08:12:14Z</time>
      </trkpt>
      <trkpt lat="45.28421" lon="5.78354">
        <ele>1851.8</ele>
        <time>2021-01-16T08:12:17Z</time>
      </trkpt>
      <trkpt lat="45.2842" lon="5.78356">
        <ele>1852.4</ele>
        <time>2021-01-16T08:12:19Z</time>
      </trkpt>
      <trkpt lat="45.28419" lon="5.78358">
        <ele>1859.2</ele>
        <time>2021-01-16T08:12:21Z</time>
      </trkpt>
      <trkpt lat="45.28418" lon="5.78361">
        <ele>1853.9</ele>
        <time>2021-01-16T08:12:24Z</time>
      </trkpt>
      <trkpt lat="45.28416" lon="5.78363">
        <ele>1854.7</ele>
        <time>2021-01-16T08:12:26Z</time>
      </trkpt>
      <trkpt lat="45.28414" lon="5.78366">
        <ele>1856</ele>
        <time>2021-01-16T08:12:28Z</time>
      </trkpt>
      <trkpt lat="45.28414" lon="5.78368">
        <ele>1862</ele>
        <time>2021-01-16T08:12:31Z</time>
      </trkpt>
      <trkpt lat="45.28413" lon="5.78372">
        <ele>1858.1</ele>
        <time>2021-01-16T08:12:34Z</time>
      </trkpt>
      <trkpt lat="45.28411" lon="5.78374">
        <ele>1859.1</ele>
        <time>2021-01-16T08:12:36Z</time>
      </trkpt>
      <trkpt lat="45.2841" lon="5.78377">
        <ele>1860.2</ele>
        <time>2021-01-16T08:12:40Z</time>
      </trkpt>
      <trkpt lat="45.28408" lon="5.78379">
        <ele>1861.2</ele>
        <time>2021-01-16T08:12:43Z</time>
      </trkpt>
      <trkpt lat="45.28407" lon="5.7838">
        <ele>1861.6</ele>
        <time>2021-01-16T08:12:45Z</time>
      </trkpt>
      <trkpt lat="45.28405" lon="5.78382">
        <ele>1862.6</ele>
        <time>2021-01-16T08:12:48Z</time>
      </trkpt>
      <trkpt lat="45.28403" lon="5.78383">
        <ele>1867</ele>
        <time>2021-01-16T08:12:51Z</time>
      </trkpt>
      <trkpt lat="45.28401" lon="5.78384">
        <ele>1863.8</ele>
        <time>2021-01-16T08:12:55Z</time>
      </trkpt>
      <trkpt lat="45.28399" lon="5.78385">
        <ele>1864.4</ele>
        <time>2021-01-16T08:12:58Z</time>
      </trkpt>
      <trkpt lat="45.28397" lon="5.78387">
        <ele>1869.4</ele>
        <time>2021-01-16T08:13:01Z</time>
      </trkpt>
      <trkpt lat="45.28395" lon="5.78388">
        <ele>1865.9</ele>
        <time>2021-01-16T08:13:05Z</time>
      </trkpt>
      <trkpt lat="45.28393" lon="5.78387">
        <ele>1865.9</ele>
        <time>2021-01-16T08:13:08Z</time>
      </trkpt>
      <trkpt lat="45.28391" lon="5.78388">
        <ele>1866.4</ele>
        <time>2021-01-16T08:13:10Z</time>
      </trkpt>
      <trkpt lat="45.28389" lon="5.78388">
        <ele>1866.7</ele>
        <time>2021-01-16T08:13:13Z</time>
      </trkpt>
      <trkpt lat="45.28387" lon="5.78389">
        <ele>1867.5</ele>
        <time>2021-01-16T08:13:15Z</time>
      </trkpt>
      <trkpt lat="45.28384" lon="5.7839">
        <ele>1868.6</ele>
        <time>2021-01-16T08:13:20Z</time>
      </trkpt>
      <trkpt lat="45.28381" lon="5.78392">
        <ele>1870</ele>
        <time>2021-01-16T08:13:23Z</time>
      </trkpt>
      <trkpt lat="45.28379" lon="5.78393">
        <ele>1870.8</ele>
        <time>2021-01-16T08:13:26Z</time>
      </trkpt>
      <trkpt lat="45.28377" lon="5.78394">
        <ele>1871.7</ele>
        <time>2021-01-16T08:13:29Z</time>
      </trkpt>
      <trkpt lat="45.28375" lon="5.78395">
        <ele>1877.4</ele>
        <time>2021-01-16T08:13:31Z</time>
      </trkpt>
      <trkpt lat="45.28373" lon="5.78396">
        <ele>1873.3</ele>
        <time>2021-01-16T08:13:35Z</time>
      </trkpt>
      <trkpt lat="45.28371" lon="5.78397">
        <ele>1874.1</ele>
        <time>2021-01-16T08:13:37Z</time>
      </trkpt>
      <trkpt lat="45.28369" lon="5.78396">
        <ele>1874.3</ele>
        <time>2021-01-16T08:13:56Z</time>
      </trkpt>
      <trkpt lat="45.28367" lon="5.78397">
        <ele>1875.1</ele>
        <time>2021-01-16T08:13:58Z</time>
      </trkpt>
      <trkpt lat="45.28365" lon="5.78398">
        <ele>1876</ele>
        <time>2021-01-16T08:14:00Z</time>
      </trkpt>
      <trkpt lat="45.28363" lon="5.78399">
        <ele>1876.8</ele>
        <time>2021-01-16T08:14:03Z</time>
      </trkpt>
      <trkpt lat="45.2836" lon="5.78399">
        <ele>1877.6</ele>
        <time>2021-01-16T08:14:06Z</time>
      </trkpt>
      <trkpt lat="45.28358" lon="5.784">
        <ele>1878.5</ele>
        <time>2021-01-16T08:14:09Z</time>
      </trkpt>
      <trkpt lat="45.28356" lon="5.78402">
        <ele>1879.7</ele>
        <time>2021-01-16T08:14:12Z</time>
      </trkpt>
      <trkpt lat="45.28354" lon="5.78402">
        <ele>1880.3</ele>
        <time>2021-01-16T08:14:14Z</time>
      </trkpt>
      <trkpt lat="45.28351" lon="5.78404">
        <ele>1881.8</ele>
        <time>2021-01-16T08:14:17Z</time>
      </trkpt>
      <trkpt lat="45.28349" lon="5.78404">
        <ele>1882.4</ele>
        <time>2021-01-16T08:14:20Z</time>
      </trkpt>
      <trkpt lat="45.2835" lon="5.78407">
        <ele>1883.1</ele>
        <time>2021-01-16T08:14:27Z</time>
      </trkpt>
      <trkpt lat="45.2835" lon="5.7841">
        <ele>1884</ele>
        <time>2021-01-16T08:14:29Z</time>
      </trkpt>
      <trkpt lat="45.2835" lon="5.78413">
        <ele>1890</ele>
        <time>2021-01-16T08:14:31Z</time>
      </trkpt>
      <trkpt lat="45.28352" lon="5.78415">
        <ele>1885.1</ele>
        <time>2021-01-16T08:14:35Z</time>
      </trkpt>
      <trkpt lat="45.28353" lon="5.78418">
        <ele>1885.8</ele>
        <time>2021-01-16T08:14:38Z</time>
      </trkpt>
      <trkpt lat="45.28355" lon="5.7842">
        <ele>1892.8</ele>
        <time>2021-01-16T08:14:41Z</time>
      </trkpt>
      <trkpt lat="45.28356" lon="5.78423">
        <ele>1886.5</ele>
        <time>2021-01-16T08:14:43Z</time>
      </trkpt>
      <trkpt lat="45.28357" lon="5.78427">
        <ele>1887.5</ele>
        <time>2021-01-16T08:14:46Z</time>
      </trkpt>
      <trkpt lat="45.28361" lon="5.78439">
        <ele>1890.3</ele>
        <time>2021-01-16T08:14:58Z</time>
      </trkpt>
      <trkpt lat="45.28362" lon="5.78441">
        <ele>1898.2</ele>
        <time>2021-01-16T08:15:01Z</time>
      </trkpt>
      <trkpt lat="45.28363" lon="5.78444">
        <ele>1891.4</ele>
        <time>2021-01-16T08:15:04Z</time>
      </trkpt>
      <trkpt lat="45.28367" lon="5.78455">
        <ele>1894.3</ele>
        <time>2021-01-16T08:15:18Z</time>
      </trkpt>
      <trkpt lat="45.28374" lon="5.78464">
        <ele>1904</ele>
        <time>2021-01-16T08:15:31Z</time>
      </trkpt>
      <trkpt lat="45.28379" lon="5.78476">
        <ele>1899</ele>
        <time>2021-01-16T08:15:43Z</time>
      </trkpt>
      <trkpt lat="45.28384" lon="5.78486">
        <ele>1902</ele>
        <time>2021-01-16T08:15:56Z</time>
      </trkpt>
      <trkpt lat="45.2839" lon="5.78497">
        <ele>1905.5</ele>
        <time>2021-01-16T08:16:10Z</time>
      </trkpt>
      <trkpt lat="45.28395" lon="5.7851">
        <ele>1909.6</ele>
        <time>2021-01-16T08:16:24Z</time>
      </trkpt>
      <trkpt lat="45.28401" lon="5.78519">
        <ele>1912</ele>
        <time>2021-01-16T08:16:35Z</time>
      </trkpt>
      <trkpt lat="45.28405" lon="5.78531">
        <ele>1915.8</ele>
        <time>2021-01-16T08:16:48Z</time>
      </trkpt>
      <trkpt lat="45.28412" lon="5.78541">
        <ele>1918.4</ele>
        <time>2021-01-16T08:17:00Z</time>
      </trkpt>
      <trkpt lat="45.28408" lon="5.78544">
        <ele>1920.1</ele>
        <time>2021-01-16T08:17:07Z</time>
      </trkpt>
      <trkpt lat="45.28406" lon="5.78545">
        <ele>1920.7</ele>
        <time>2021-01-16T08:17:10Z</time>
      </trkpt>
      <trkpt lat="45.28404" lon="5.78546">
        <ele>1921.4</ele>
        <time>2021-01-16T08:17:13Z</time>
      </trkpt>
      <trkpt lat="45.28402" lon="5.78547">
        <ele>1922</ele>
        <time>2021-01-16T08:17:16Z</time>
      </trkpt>
      <trkpt lat="45.284" lon="5.78549">
        <ele>1923</ele>
        <time>2021-01-16T08:17:19Z</time>
      </trkpt>
      <trkpt lat="45.28398" lon="5.78548">
        <ele>1923</ele>
        <time>2021-01-16T08:17:22Z</time>
      </trkpt>
      <trkpt lat="45.28396" lon="5.7855">
        <ele>1924</ele>
        <time>2021-01-16T08:17:26Z</time>
      </trkpt>
      <trkpt lat="45.28394" lon="5.78551">
        <ele>1924.6</ele>
        <time>2021-01-16T08:17:30Z</time>
      </trkpt>
      <trkpt lat="45.28392" lon="5.78552">
        <ele>1925.3</ele>
        <time>2021-01-16T08:17:33Z</time>
      </trkpt>
      <trkpt lat="45.2839" lon="5.78552">
        <ele>1925.6</ele>
        <time>2021-01-16T08:17:35Z</time>
      </trkpt>
      <trkpt lat="45.28387" lon="5.78553">
        <ele>1925.9</ele>
        <time>2021-01-16T08:17:38Z</time>
      </trkpt>
      <trkpt lat="45.28385" lon="5.78554">
        <ele>1935.2</ele>
        <time>2021-01-16T08:17:41Z</time>
      </trkpt>
      <trkpt lat="45.28383" lon="5.78555">
        <ele>1926.2</ele>
        <time>2021-01-16T08:17:45Z</time>
      </trkpt>
      <trkpt lat="45.28381" lon="5.78556">
        <ele>1926.2</ele>
        <time>2021-01-16T08:17:50Z</time>
      </trkpt>
      <trkpt lat="45.28384" lon="5.78557">
        <ele>1926.8</ele>
        <time>2021-01-16T08:17:54Z</time>
      </trkpt>
      <trkpt lat="45.28386" lon="5.78559">
        <ele>1927.6</ele>
        <time>2021-01-16T08:17:57Z</time>
      </trkpt>
      <trkpt lat="45.28388" lon="5.78561">
        <ele>1928.6</ele>
        <time>2021-01-16T08:17:59Z</time>
      </trkpt>
      <trkpt lat="45.28395" lon="5.78569">
        <ele>1930.8</ele>
        <time>2021-01-16T08:18:12Z</time>
      </trkpt>
      <trkpt lat="45.28398" lon="5.78572">
        <ele>1931.6</ele>
        <time>2021-01-16T08:18:16Z</time>
      </trkpt>
      <trkpt lat="45.28405" lon="5.7858">
        <ele>1934.1</ele>
        <time>2021-01-16T08:18:26Z</time>
      </trkpt>
      <trkpt lat="45.28414" lon="5.78587">
        <ele>1936.1</ele>
        <time>2021-01-16T08:18:38Z</time>
      </trkpt>
      <trkpt lat="45.28421" lon="5.78594">
        <ele>1949.8</ele>
        <time>2021-01-16T08:18:51Z</time>
      </trkpt>
      <trkpt lat="45.28424" lon="5.78596">
        <ele>1939.3</ele>
        <time>2021-01-16T08:18:54Z</time>
      </trkpt>
      <trkpt lat="45.28425" lon="5.78601">
        <ele>1941.2</ele>
        <time>2021-01-16T08:19:00Z</time>
      </trkpt>
      <trkpt lat="45.28422" lon="5.78603">
        <ele>1941.7</ele>
        <time>2021-01-16T08:19:04Z</time>
      </trkpt>
      <trkpt lat="45.28419" lon="5.78604">
        <ele>1941.9</ele>
        <time>2021-01-16T08:19:06Z</time>
      </trkpt>
      <trkpt lat="45.28418" lon="5.78605">
        <ele>1942.1</ele>
        <time>2021-01-16T08:19:10Z</time>
      </trkpt>
      <trkpt lat="45.28416" lon="5.78607">
        <ele>1942.4</ele>
        <time>2021-01-16T08:19:13Z</time>
      </trkpt>
      <trkpt lat="45.28416" lon="5.7861">
        <ele>1943.4</ele>
        <time>2021-01-16T08:19:18Z</time>
      </trkpt>
      <trkpt lat="45.28416" lon="5.78615">
        <ele>1944</ele>
        <time>2021-01-16T08:19:29Z</time>
      </trkpt>
      <trkpt lat="45.28415" lon="5.78618">
        <ele>1943.6</ele>
        <time>2021-01-16T08:19:35Z</time>
      </trkpt>
      <trkpt lat="45.28417" lon="5.78617">
        <ele>1944.5</ele>
        <time>2021-01-16T08:19:43Z</time>
      </trkpt>
      <trkpt lat="45.28419" lon="5.78617">
        <ele>1944.8</ele>
        <time>2021-01-16T08:19:46Z</time>
      </trkpt>
      <trkpt lat="45.28421" lon="5.78618">
        <ele>1945.3</ele>
        <time>2021-01-16T08:19:50Z</time>
      </trkpt>
      <trkpt lat="45.28422" lon="5.7862">
        <ele>1945.8</ele>
        <time>2021-01-16T08:19:54Z</time>
      </trkpt>
      <trkpt lat="45.28425" lon="5.78622">
        <ele>1946.7</ele>
        <time>2021-01-16T08:20:00Z</time>
      </trkpt>
      <trkpt lat="45.28428" lon="5.78624">
        <ele>1947.9</ele>
        <time>2021-01-16T08:20:17Z</time>
      </trkpt>
      <trkpt lat="45.28429" lon="5.78626">
        <ele>1948.5</ele>
        <time>2021-01-16T08:20:20Z</time>
      </trkpt>
      <trkpt lat="45.28438" lon="5.78631">
        <ele>1952.7</ele>
        <time>2021-01-16T08:20:29Z</time>
      </trkpt>
      <trkpt lat="45.28446" lon="5.78636">
        <ele>1957</ele>
        <time>2021-01-16T08:20:39Z</time>
      </trkpt>
      <trkpt lat="45.28449" lon="5.78636">
        <ele>1957.3</ele>
        <time>2021-01-16T08:20:42Z</time>
      </trkpt>
      <trkpt lat="45.28451" lon="5.78636">
        <ele>1957.5</ele>
        <time>2021-01-16T08:20:44Z</time>
      </trkpt>
      <trkpt lat="45.28453" lon="5.78636">
        <ele>1957.7</ele>
        <time>2021-01-16T08:20:47Z</time>
      </trkpt>
      <trkpt lat="45.28455" lon="5.78637">
        <ele>1974.2</ele>
        <time>2021-01-16T08:20:51Z</time>
      </trkpt>
      <trkpt lat="45.28458" lon="5.78637">
        <ele>1958.6</ele>
        <time>2021-01-16T08:20:56Z</time>
      </trkpt>
      <trkpt lat="45.28466" lon="5.78643">
        <ele>1962</ele>
        <time>2021-01-16T08:21:05Z</time>
      </trkpt>
      <trkpt lat="45.28475" lon="5.78647">
        <ele>1964.7</ele>
        <time>2021-01-16T08:21:15Z</time>
      </trkpt>
      <trkpt lat="45.28482" lon="5.78652">
        <ele>1967.5</ele>
        <time>2021-01-16T08:21:26Z</time>
      </trkpt>
      <trkpt lat="45.28485" lon="5.78658">
        <ele>1970.5</ele>
        <time>2021-01-16T08:21:34Z</time>
      </trkpt>
      <trkpt lat="45.28483" lon="5.78661">
        <ele>1971.6</ele>
        <time>2021-01-16T08:21:39Z</time>
      </trkpt>
      <trkpt lat="45.28481" lon="5.78663">
        <ele>1972.3</ele>
        <time>2021-01-16T08:21:42Z</time>
      </trkpt>
      <trkpt lat="45.28479" lon="5.78665">
        <ele>1973</ele>
        <time>2021-01-16T08:21:44Z</time>
      </trkpt>
      <trkpt lat="45.28478" lon="5.78667">
        <ele>1973.7</ele>
        <time>2021-01-16T08:21:47Z</time>
      </trkpt>
      <trkpt lat="45.28477" lon="5.78669">
        <ele>1974.4</ele>
        <time>2021-01-16T08:21:50Z</time>
      </trkpt>
      <trkpt lat="45.28475" lon="5.78672">
        <ele>1975.3</ele>
        <time>2021-01-16T08:21:55Z</time>
      </trkpt>
      <trkpt lat="45.28474" lon="5.78674">
        <ele>1975.9</ele>
        <time>2021-01-16T08:21:58Z</time>
      </trkpt>
      <trkpt lat="45.28472" lon="5.78676">
        <ele>1976.3</ele>
        <time>2021-01-16T08:22:02Z</time>
      </trkpt>
      <trkpt lat="45.2847" lon="5.78678">
        <ele>1976.3</ele>
        <time>2021-01-16T08:22:05Z</time>
      </trkpt>
      <trkpt lat="45.28469" lon="5.78681">
        <ele>1976.9</ele>
        <time>2021-01-16T08:22:08Z</time>
      </trkpt>
      <trkpt lat="45.2847" lon="5.78683">
        <ele>1977.9</ele>
        <time>2021-01-16T08:22:13Z</time>
      </trkpt>
      <trkpt lat="45.28472" lon="5.78684">
        <ele>1979.1</ele>
        <time>2021-01-16T08:22:15Z</time>
      </trkpt>
      <trkpt lat="45.28474" lon="5.78685">
        <ele>1979.9</ele>
        <time>2021-01-16T08:22:17Z</time>
      </trkpt>
      <trkpt lat="45.28476" lon="5.78686">
        <ele>1980.6</ele>
        <time>2021-01-16T08:22:19Z</time>
      </trkpt>
      <trkpt lat="45.28478" lon="5.78687">
        <ele>1981.2</ele>
        <time>2021-01-16T08:22:22Z</time>
      </trkpt>
      <trkpt lat="45.28483" lon="5.7869">
        <ele>1983.2</ele>
        <time>2021-01-16T08:22:30Z</time>
      </trkpt>
      <trkpt lat="45.28485" lon="5.7869">
        <ele>1983.6</ele>
        <time>2021-01-16T08:22:36Z</time>
      </trkpt>
      <trkpt lat="45.28487" lon="5.7869">
        <ele>1983.9</ele>
        <time>2021-01-16T08:22:40Z</time>
      </trkpt>
      <trkpt lat="45.28489" lon="5.78691">
        <ele>1984.6</ele>
        <time>2021-01-16T08:22:44Z</time>
      </trkpt>
      <trkpt lat="45.28491" lon="5.78692">
        <ele>1985.4</ele>
        <time>2021-01-16T08:22:47Z</time>
      </trkpt>
      <trkpt lat="45.28494" lon="5.78693">
        <ele>1986.3</ele>
        <time>2021-01-16T08:22:50Z</time>
      </trkpt>
      <trkpt lat="45.285" lon="5.78696">
        <ele>1988.3</ele>
        <time>2021-01-16T08:23:00Z</time>
      </trkpt>
      <trkpt lat="45.28502" lon="5.78696">
        <ele>1988.6</ele>
        <time>2021-01-16T08:23:07Z</time>
      </trkpt>
      <trkpt lat="45.28504" lon="5.78696">
        <ele>1988.9</ele>
        <time>2021-01-16T08:23:14Z</time>
      </trkpt>
      <trkpt lat="45.28503" lon="5.78698">
        <ele>2005.6</ele>
        <time>2021-01-16T08:23:21Z</time>
      </trkpt>
      <trkpt lat="45.28501" lon="5.78699">
        <ele>1989</ele>
        <time>2021-01-16T08:23:24Z</time>
      </trkpt>
      <trkpt lat="45.28499" lon="5.78702">
        <ele>1989.1</ele>
        <time>2021-01-16T08:23:27Z</time>
      </trkpt>
      <trkpt lat="45.28498" lon="5.78704">
        <ele>1989.1</ele>
        <time>2021-01-16T08:23:32Z</time>
      </trkpt>
      <trkpt lat="45.28496" lon="5.78706">
        <ele>1988.8</ele>
        <time>2021-01-16T08:23:35Z</time>
      </trkpt>
      <trkpt lat="45.28495" lon="5.78708">
        <ele>1988.7</ele>
        <time>2021-01-16T08:23:40Z</time>
      </trkpt>
      <trkpt lat="45.28493" lon="5.7871">
        <ele>1988.1</ele>
        <time>2021-01-16T08:23:43Z</time>
      </trkpt>
      <trkpt lat="45.28491" lon="5.78711">
        <ele>1987.4</ele>
        <time>2021-01-16T08:23:45Z</time>
      </trkpt>
      <trkpt lat="45.28489" lon="5.78712">
        <ele>1986.7</ele>
        <time>2021-01-16T08:23:47Z</time>
      </trkpt>
      <trkpt lat="45.28487" lon="5.78713">
        <ele>1985.9</ele>
        <time>2021-01-16T08:23:49Z</time>
      </trkpt>
      <trkpt lat="45.28485" lon="5.78715">
        <ele>2013.2</ele>
        <time>2021-01-16T08:23:51Z</time>
      </trkpt>
      <trkpt lat="45.28483" lon="5.78716">
        <ele>1984.1</ele>
        <time>2021-01-16T08:23:54Z</time>
      </trkpt>
      <trkpt lat="45.28481" lon="5.78718">
        <ele>1983</ele>
        <time>2021-01-16T08:23:57Z</time>
      </trkpt>
      <trkpt lat="45.28479" lon="5.7872">
        <ele>1981.9</ele>
        <time>2021-01-16T08:24:00Z</time>
      </trkpt>
      <trkpt lat="45.28477" lon="5.78722">
        <ele>1980.6</ele>
        <time>2021-01-16T08:24:06Z</time>
      </trkpt>
      <trkpt lat="45.28475" lon="5.78723">
        <ele>1978.4</ele>
        <time>2021-01-16T08:24:12Z</time>
      </trkpt>
      <trkpt lat="45.28473" lon="5.78723">
        <ele>1977.3</ele>
        <time>2021-01-16T08:24:22Z</time>
      </trkpt>
      <trkpt lat="45.28473" lon="5.78721">
        <ele>1978.6</ele>
        <time>2021-01-16T08:25:02Z</time>
      </trkpt>
      <trkpt lat="45.28475" lon="5.7872">
        <ele>1979.8</ele>
        <time>2021-01-16T08:26:13Z</time>
      </trkpt>
      <trkpt lat="45.28473" lon="5.78721">
        <ele>1978.6</ele>
        <time>2021-01-16T08:26:29Z</time>
      </trkpt>
      <trkpt lat="45.28471" lon="5.78722">
        <ele>1976.9</ele>
        <time>2021-01-16T08:27:23Z</time>
      </trkpt>
      <trkpt lat="45.28473" lon="5.7872">
        <ele>1978.8</ele>
        <time>2021-01-16T08:28:18Z</time>
      </trkpt>
      <trkpt lat="45.28472" lon="5.78718">
        <ele>1978.6</ele>
        <time>2021-01-16T08:30:35Z</time>
      </trkpt>
      <trkpt lat="45.2847" lon="5.78715">
        <ele>1977.4</ele>
        <time>2021-01-16T08:30:37Z</time>
      </trkpt>
      <trkpt lat="45.28468" lon="5.78712">
        <ele>1976.4</ele>
        <time>2021-01-16T08:30:38Z</time>
      </trkpt>
      <trkpt lat="45.28467" lon="5.7871">
        <ele>1976</ele>
        <time>2021-01-16T08:30:39Z</time>
      </trkpt>
      <trkpt lat="45.28466" lon="5.78706">
        <ele>1976.3</ele>
        <time>2021-01-16T08:30:40Z</time>
      </trkpt>
      <trkpt lat="45.28467" lon="5.78701">
        <ele>2011.2</ele>
        <time>2021-01-16T08:30:41Z</time>
      </trkpt>
      <trkpt lat="45.28469" lon="5.78697">
        <ele>1980.6</ele>
        <time>2021-01-16T08:30:42Z</time>
      </trkpt>
      <trkpt lat="45.28469" lon="5.78694">
        <ele>1981</ele>
        <time>2021-01-16T08:30:44Z</time>
      </trkpt>
      <trkpt lat="45.28469" lon="5.78689">
        <ele>1979.4</ele>
        <time>2021-01-16T08:30:52Z</time>
      </trkpt>
      <trkpt lat="45.2847" lon="5.78684">
        <ele>1978.3</ele>
        <time>2021-01-16T08:30:53Z</time>
      </trkpt>
      <trkpt lat="45.28473" lon="5.78676">
        <ele>1976.5</ele>
        <time>2021-01-16T08:30:54Z</time>
      </trkpt>
      <trkpt lat="45.28476" lon="5.78669">
        <ele>1974.3</ele>
        <time>2021-01-16T08:30:55Z</time>
      </trkpt>
      <trkpt lat="45.2848" lon="5.78662">
        <ele>1971.8</ele>
        <time>2021-01-16T08:30:56Z</time>
      </trkpt>
      <trkpt lat="45.28486" lon="5.78653">
        <ele>1968.3</ele>
        <time>2021-01-16T08:30:57Z</time>
      </trkpt>
      <trkpt lat="45.28492" lon="5.78645">
        <ele>1965.2</ele>
        <time>2021-01-16T08:30:58Z</time>
      </trkpt>
      <trkpt lat="45.28498" lon="5.78638">
        <ele>1962.4</ele>
        <time>2021-01-16T08:30:59Z</time>
      </trkpt>
      <trkpt lat="45.28509" lon="5.78622">
        <ele>1988.8</ele>
        <time>2021-01-16T08:31:01Z</time>
      </trkpt>
      <trkpt lat="45.2852" lon="5.78606">
        <ele>1951.3</ele>
        <time>2021-01-16T08:31:03Z</time>
      </trkpt>
      <trkpt lat="45.28526" lon="5.78585">
        <ele>1942.5</ele>
        <time>2021-01-16T08:31:05Z</time>
      </trkpt>
      <trkpt lat="45.28539" lon="5.78568">
        <ele>1936.4</ele>
        <time>2021-01-16T08:31:07Z</time>
      </trkpt>
      <trkpt lat="45.28551" lon="5.78562">
        <ele>1934.6</ele>
        <time>2021-01-16T08:31:09Z</time>
      </trkpt>
      <trkpt lat="45.28559" lon="5.78556">
        <ele>1965</ele>
        <time>2021-01-16T08:31:11Z</time>
      </trkpt>
      <trkpt lat="45.28565" lon="5.78551">
        <ele>1930.7</ele>
        <time>2021-01-16T08:31:13Z</time>
      </trkpt>
      <trkpt lat="45.28573" lon="5.78541">
        <ele>1926.5</ele>
        <time>2021-01-16T08:31:16Z</time>
      </trkpt>
      <trkpt lat="45.28566" lon="5.78528">
        <ele>1920.7</ele>
        <time>2021-01-16T08:31:18Z</time>
      </trkpt>
      <trkpt lat="45.28572" lon="5.78518">
        <ele>1916</ele>
        <time>2021-01-16T08:31:20Z</time>
      </trkpt>
      <trkpt lat="45.28579" lon="5.78517">
        <ele>1915.2</ele>
        <time>2021-01-16T08:31:25Z</time>
      </trkpt>
      <trkpt lat="45.2858" lon="5.78521">
        <ele>1917</ele>
        <time>2021-01-16T08:31:27Z</time>
      </trkpt>
      <trkpt lat="45.28581" lon="5.78519">
        <ele>1916</ele>
        <time>2021-01-16T08:31:30Z</time>
      </trkpt>
      <trkpt lat="45.28584" lon="5.78516">
        <ele>1940.4</ele>
        <time>2021-01-16T08:31:31Z</time>
      </trkpt>
      <trkpt lat="45.28588" lon="5.78512">
        <ele>1912.4</ele>
        <time>2021-01-16T08:31:32Z</time>
      </trkpt>
      <trkpt lat="45.286" lon="5.78505">
        <ele>1908.2</ele>
        <time>2021-01-16T08:31:35Z</time>
      </trkpt>
      <trkpt lat="45.28602" lon="5.78488">
        <ele>1899.7</ele>
        <time>2021-01-16T08:31:38Z</time>
      </trkpt>
      <trkpt lat="45.2861" lon="5.78478">
        <ele>1894</ele>
        <time>2021-01-16T08:31:40Z</time>
      </trkpt>
      <trkpt lat="45.28621" lon="5.78476">
        <ele>1891.9</ele>
        <time>2021-01-16T08:31:42Z</time>
      </trkpt>
      <trkpt lat="45.28622" lon="5.78473">
        <ele>1890.2</ele>
        <time>2021-01-16T08:31:49Z</time>
      </trkpt>
      <trkpt lat="45.28622" lon="5.78469">
        <ele>1888.2</ele>
        <time>2021-01-16T08:31:50Z</time>
      </trkpt>
      <trkpt lat="45.28622" lon="5.78464">
        <ele>1916.8</ele>
        <time>2021-01-16T08:31:51Z</time>
      </trkpt>
      <trkpt lat="45.28631" lon="5.78457">
        <ele>1881.2</ele>
        <time>2021-01-16T08:31:54Z</time>
      </trkpt>
      <trkpt lat="45.28626" lon="5.78446">
        <ele>1876.2</ele>
        <time>2021-01-16T08:31:56Z</time>
      </trkpt>
      <trkpt lat="45.28632" lon="5.78435">
        <ele>1869.7</ele>
        <time>2021-01-16T08:31:58Z</time>
      </trkpt>
      <trkpt lat="45.2864" lon="5.78428">
        <ele>1865</ele>
        <time>2021-01-16T08:32:10Z</time>
      </trkpt>
      <trkpt lat="45.2865" lon="5.78425">
        <ele>1862.2</ele>
        <time>2021-01-16T08:32:13Z</time>
      </trkpt>
      <trkpt lat="45.28663" lon="5.7842">
        <ele>1858.1</ele>
        <time>2021-01-16T08:32:16Z</time>
      </trkpt>
      <trkpt lat="45.2867" lon="5.78426">
        <ele>1860.5</ele>
        <time>2021-01-16T08:32:19Z</time>
      </trkpt>
      <trkpt lat="45.28672" lon="5.78425">
        <ele>1859.8</ele>
        <time>2021-01-16T08:32:22Z</time>
      </trkpt>
      <trkpt lat="45.28674" lon="5.78422">
        <ele>1858.2</ele>
        <time>2021-01-16T08:32:24Z</time>
      </trkpt>
      <trkpt lat="45.28678" lon="5.78419">
        <ele>1856.4</ele>
        <time>2021-01-16T08:32:25Z</time>
      </trkpt>
      <trkpt lat="45.28684" lon="5.78414">
        <ele>1853.3</ele>
        <time>2021-01-16T08:32:26Z</time>
      </trkpt>
      <trkpt lat="45.28692" lon="5.78409">
        <ele>1850</ele>
        <time>2021-01-16T08:32:27Z</time>
      </trkpt>
      <trkpt lat="45.28705" lon="5.78405">
        <ele>1847.3</ele>
        <time>2021-01-16T08:32:29Z</time>
      </trkpt>
      <trkpt lat="45.28714" lon="5.78398">
        <ele>1843.2</ele>
        <time>2021-01-16T08:32:32Z</time>
      </trkpt>
      <trkpt lat="45.28718" lon="5.78393">
        <ele>1840.4</ele>
        <time>2021-01-16T08:32:33Z</time>
      </trkpt>
      <trkpt lat="45.28727" lon="5.78386">
        <ele>1836</ele>
        <time>2021-01-16T08:32:35Z</time>
      </trkpt>
      <trkpt lat="45.28729" lon="5.78384">
        <ele>1834.8</ele>
        <time>2021-01-16T08:32:37Z</time>
      </trkpt>
      <trkpt lat="45.28726" lon="5.7837">
        <ele>1828.1</ele>
        <time>2021-01-16T08:32:44Z</time>
      </trkpt>
      <trkpt lat="45.28723" lon="5.78353">
        <ele>1819.8</ele>
        <time>2021-01-16T08:32:50Z</time>
      </trkpt>
      <trkpt lat="45.28725" lon="5.78337">
        <ele>1811.5</ele>
        <time>2021-01-16T08:32:52Z</time>
      </trkpt>
      <trkpt lat="45.28725" lon="5.7832">
        <ele>1802.5</ele>
        <time>2021-01-16T08:32:54Z</time>
      </trkpt>
      <trkpt lat="45.28726" lon="5.78304">
        <ele>1793.9</ele>
        <time>2021-01-16T08:32:56Z</time>
      </trkpt>
      <trkpt lat="45.28726" lon="5.78291">
        <ele>1787.4</ele>
        <time>2021-01-16T08:32:58Z</time>
      </trkpt>
      <trkpt lat="45.28739" lon="5.78292">
        <ele>1787</ele>
        <time>2021-01-16T08:33:00Z</time>
      </trkpt>
      <trkpt lat="45.28748" lon="5.78299">
        <ele>1789.8</ele>
        <time>2021-01-16T08:33:14Z</time>
      </trkpt>
      <trkpt lat="45.28755" lon="5.78289">
        <ele>1784.5</ele>
        <time>2021-01-16T08:33:17Z</time>
      </trkpt>
      <trkpt lat="45.28755" lon="5.78272">
        <ele>1775.9</ele>
        <time>2021-01-16T08:33:19Z</time>
      </trkpt>
      <trkpt lat="45.28752" lon="5.78255">
        <ele>1805.2</ele>
        <time>2021-01-16T08:33:21Z</time>
      </trkpt>
      <trkpt lat="45.2875" lon="5.78236">
        <ele>1757.9</ele>
        <time>2021-01-16T08:33:23Z</time>
      </trkpt>
      <trkpt lat="45.28751" lon="5.78222">
        <ele>1750.8</ele>
        <time>2021-01-16T08:33:25Z</time>
      </trkpt>
      <trkpt lat="45.28757" lon="5.78208">
        <ele>1743.2</ele>
        <time>2021-01-16T08:33:28Z</time>
      </trkpt>
      <trkpt lat="45.28759" lon="5.78188">
        <ele>1775.4</ele>
        <time>2021-01-16T08:33:31Z</time>
      </trkpt>
      <trkpt lat="45.28771" lon="5.78194">
        <ele>1734.5</ele>
        <time>2021-01-16T08:33:34Z</time>
      </trkpt>
      <trkpt lat="45.28768" lon="5.78178">
        <ele>1727.6</ele>
        <time>2021-01-16T08:33:45Z</time>
      </trkpt>
      <trkpt lat="45.28762" lon="5.78162">
        <ele>1721.1</ele>
        <time>2021-01-16T08:33:47Z</time>
      </trkpt>
      <trkpt lat="45.28761" lon="5.78145">
        <ele>1713.3</ele>
        <time>2021-01-16T08:33:49Z</time>
      </trkpt>
      <trkpt lat="45.28765" lon="5.78132">
        <ele>1740</ele>
        <time>2021-01-16T08:33:51Z</time>
      </trkpt>
      <trkpt lat="45.28765" lon="5.78115">
        <ele>1699.9</ele>
        <time>2021-01-16T08:33:53Z</time>
      </trkpt>
      <trkpt lat="45.28765" lon="5.78099">
        <ele>1693.1</ele>
        <time>2021-01-16T08:33:55Z</time>
      </trkpt>
      <trkpt lat="45.28774" lon="5.78092">
        <ele>1688.4</ele>
        <time>2021-01-16T08:33:57Z</time>
      </trkpt>
      <trkpt lat="45.28779" lon="5.78079">
        <ele>1682</ele>
        <time>2021-01-16T08:33:59Z</time>
      </trkpt>
      <trkpt lat="45.28783" lon="5.7806">
        <ele>1673.2</ele>
        <time>2021-01-16T08:34:02Z</time>
      </trkpt>
      <trkpt lat="45.28786" lon="5.78046">
        <ele>1667</ele>
        <time>2021-01-16T08:34:04Z</time>
      </trkpt>
      <trkpt lat="45.28782" lon="5.78028">
        <ele>1660.5</ele>
        <time>2021-01-16T08:34:06Z</time>
      </trkpt>
      <trkpt lat="45.28775" lon="5.78011">
        <ele>1654.7</ele>
        <time>2021-01-16T08:34:08Z</time>
      </trkpt>
      <trkpt lat="45.28767" lon="5.78001">
        <ele>1651.6</ele>
        <time>2021-01-16T08:34:10Z</time>
      </trkpt>
      <trkpt lat="45.28757" lon="5.78005">
        <ele>1654.4</ele>
        <time>2021-01-16T08:34:13Z</time>
      </trkpt>
      <trkpt lat="45.28746" lon="5.78004">
        <ele>1665.2</ele>
        <time>2021-01-16T08:34:21Z</time>
      </trkpt>
      <trkpt lat="45.28736" lon="5.77996">
        <ele>1652.4</ele>
        <time>2021-01-16T08:34:25Z</time>
      </trkpt>
      <trkpt lat="45.28724" lon="5.77991">
        <ele>1651.3</ele>
        <time>2021-01-16T08:34:27Z</time>
      </trkpt>
      <trkpt lat="45.28714" lon="5.77988">
        <ele>1650</ele>
        <time>2021-01-16T08:34:32Z</time>
      </trkpt>
      <trkpt lat="45.28704" lon="5.77984">
        <ele>1647.9</ele>
        <time>2021-01-16T08:34:38Z</time>
      </trkpt>
      <trkpt lat="45.28693" lon="5.7798">
        <ele>1645.2</ele>
        <time>2021-01-16T08:34:42Z</time>
      </trkpt>
      <trkpt lat="45.28684" lon="5.77965">
        <ele>1635.8</ele>
        <time>2021-01-16T08:34:45Z</time>
      </trkpt>
      <trkpt lat="45.28677" lon="5.77951">
        <ele>1628.6</ele>
        <time>2021-01-16T08:34:47Z</time>
      </trkpt>
      <trkpt lat="45.28669" lon="5.7794">
        <ele>1622.9</ele>
        <time>2021-01-16T08:34:49Z</time>
      </trkpt>
      <trkpt lat="45.28666" lon="5.77949">
        <ele>1625.3</ele>
        <time>2021-01-16T08:34:54Z</time>
      </trkpt>
      <trkpt lat="45.28662" lon="5.77949">
        <ele>1628.4</ele>
        <time>2021-01-16T08:35:01Z</time>
      </trkpt>
      <trkpt lat="45.28651" lon="5.77935">
        <ele>1617.2</ele>
        <time>2021-01-16T08:35:04Z</time>
      </trkpt>
      <trkpt lat="45.28645" lon="5.7792">
        <ele>1610.5</ele>
        <time>2021-01-16T08:35:06Z</time>
      </trkpt>
      <trkpt lat="45.28643" lon="5.77909">
        <ele>1606.1</ele>
        <time>2021-01-16T08:35:10Z</time>
      </trkpt>
      <trkpt lat="45.28644" lon="5.77906">
        <ele>1614.8</ele>
        <time>2021-01-16T08:35:11Z</time>
      </trkpt>
      <trkpt lat="45.28647" lon="5.77891">
        <ele>1600.2</ele>
        <time>2021-01-16T08:35:14Z</time>
      </trkpt>
      <trkpt lat="45.28642" lon="5.77896">
        <ele>1601.1</ele>
        <time>2021-01-16T08:35:27Z</time>
      </trkpt>
      <trkpt lat="45.28642" lon="5.7789">
        <ele>1599</ele>
        <time>2021-01-16T08:35:30Z</time>
      </trkpt>
      <trkpt lat="45.28637" lon="5.77883">
        <ele>1595.7</ele>
        <time>2021-01-16T08:35:36Z</time>
      </trkpt>
      <trkpt lat="45.28633" lon="5.77882">
        <ele>1595.4</ele>
        <time>2021-01-16T08:35:38Z</time>
      </trkpt>
      <trkpt lat="45.28631" lon="5.77879">
        <ele>1594.3</ele>
        <time>2021-01-16T08:35:39Z</time>
      </trkpt>
      <trkpt lat="45.28627" lon="5.77876">
        <ele>1593.1</ele>
        <time>2021-01-16T08:35:40Z</time>
      </trkpt>
      <trkpt lat="45.28618" lon="5.77868">
        <ele>1589.9</ele>
        <time>2021-01-16T08:35:44Z</time>
      </trkpt>
      <trkpt lat="45.28614" lon="5.77855">
        <ele>1584.4</ele>
        <time>2021-01-16T08:35:50Z</time>
      </trkpt>
      <trkpt lat="45.28609" lon="5.77843">
        <ele>1579.5</ele>
        <time>2021-01-16T08:35:53Z</time>
      </trkpt>
      <trkpt lat="45.28603" lon="5.77831">
        <ele>1575.1</ele>
        <time>2021-01-16T08:36:00Z</time>
      </trkpt>
      <trkpt lat="45.28596" lon="5.77817">
        <ele>1569.5</ele>
        <time>2021-01-16T08:36:04Z</time>
      </trkpt>
      <trkpt lat="45.28592" lon="5.77804">
        <ele>1564</ele>
        <time>2021-01-16T08:36:06Z</time>
      </trkpt>
      <trkpt lat="45.28591" lon="5.77789">
        <ele>1569.4</ele>
        <time>2021-01-16T08:36:11Z</time>
      </trkpt>
      <trkpt lat="45.28589" lon="5.77775">
        <ele>1550.5</ele>
        <time>2021-01-16T08:36:15Z</time>
      </trkpt>
      <trkpt lat="45.28583" lon="5.77763">
        <ele>1546.2</ele>
        <time>2021-01-16T08:36:20Z</time>
      </trkpt>
      <trkpt lat="45.28578" lon="5.77747">
        <ele>1540.2</ele>
        <time>2021-01-16T08:36:23Z</time>
      </trkpt>
      <trkpt lat="45.28572" lon="5.77738">
        <ele>1538.1</ele>
        <time>2021-01-16T08:36:32Z</time>
      </trkpt>
      <trkpt lat="45.28569" lon="5.77719">
        <ele>1530.9</ele>
        <time>2021-01-16T08:36:35Z</time>
      </trkpt>
      <trkpt lat="45.28566" lon="5.77706">
        <ele>1526.6</ele>
        <time>2021-01-16T08:36:38Z</time>
      </trkpt>
      <trkpt lat="45.28557" lon="5.77706">
        <ele>1529.2</ele>
        <time>2021-01-16T08:36:45Z</time>
      </trkpt>
      <trkpt lat="45.28547" lon="5.77699">
        <ele>1544.6</ele>
        <time>2021-01-16T08:36:51Z</time>
      </trkpt>
      <trkpt lat="45.28535" lon="5.77687">
        <ele>1527.2</ele>
        <time>2021-01-16T08:36:53Z</time>
      </trkpt>
      <trkpt lat="45.28543" lon="5.77681">
        <ele>1522.8</ele>
        <time>2021-01-16T08:37:00Z</time>
      </trkpt>
      <trkpt lat="45.28546" lon="5.77681">
        <ele>1539.4</ele>
        <time>2021-01-16T08:37:01Z</time>
      </trkpt>
      <trkpt lat="45.28547" lon="5.77666">
        <ele>1515.9</ele>
        <time>2021-01-16T08:37:05Z</time>
      </trkpt>
      <trkpt lat="45.28541" lon="5.77653">
        <ele>1513.2</ele>
        <time>2021-01-16T08:37:07Z</time>
      </trkpt>
      <trkpt lat="45.28542" lon="5.77635">
        <ele>1507.3</ele>
        <time>2021-01-16T08:37:09Z</time>
      </trkpt>
      <trkpt lat="45.28547" lon="5.77618">
        <ele>1526.2</ele>
        <time>2021-01-16T08:37:11Z</time>
      </trkpt>
      <trkpt lat="45.28554" lon="5.77609">
        <ele>1496.9</ele>
        <time>2021-01-16T08:37:13Z</time>
      </trkpt>
      <trkpt lat="45.28561" lon="5.77597">
        <ele>1492.2</ele>
        <time>2021-01-16T08:37:16Z</time>
      </trkpt>
      <trkpt lat="45.28563" lon="5.77583">
        <ele>1488.3</ele>
        <time>2021-01-16T08:37:18Z</time>
      </trkpt>
      <trkpt lat="45.28565" lon="5.77564">
        <ele>1483.5</ele>
        <time>2021-01-16T08:37:20Z</time>
      </trkpt>
      <trkpt lat="45.28572" lon="5.77549">
        <ele>1478.1</ele>
        <time>2021-01-16T08:37:22Z</time>
      </trkpt>
      <trkpt lat="45.28578" lon="5.77533">
        <ele>1472.5</ele>
        <time>2021-01-16T08:37:24Z</time>
      </trkpt>
      <trkpt lat="45.28586" lon="5.77519">
        <ele>1466.5</ele>
        <time>2021-01-16T08:37:26Z</time>
      </trkpt>
      <trkpt lat="45.28593" lon="5.77512">
        <ele>1462.6</ele>
        <time>2021-01-16T08:37:38Z</time>
      </trkpt>
      <trkpt lat="45.28594" lon="5.77498">
        <ele>1458.1</ele>
        <time>2021-01-16T08:37:40Z</time>
      </trkpt>
      <trkpt lat="45.286" lon="5.77486">
        <ele>1453.2</ele>
        <time>2021-01-16T08:37:42Z</time>
      </trkpt>
      <trkpt lat="45.28604" lon="5.7747">
        <ele>1447.6</ele>
        <time>2021-01-16T08:37:44Z</time>
      </trkpt>
      <trkpt lat="45.28611" lon="5.77456">
        <ele>1442.3</ele>
        <time>2021-01-16T08:37:46Z</time>
      </trkpt>
      <trkpt lat="45.28617" lon="5.77439">
        <ele>1436</ele>
        <time>2021-01-16T08:37:48Z</time>
      </trkpt>
      <trkpt lat="45.28621" lon="5.77418">
        <ele>1428.6</ele>
        <time>2021-01-16T08:37:50Z</time>
      </trkpt>
      <trkpt lat="45.28627" lon="5.77402">
        <ele>1423</ele>
        <time>2021-01-16T08:37:52Z</time>
      </trkpt>
      <trkpt lat="45.28635" lon="5.77395">
        <ele>1420</ele>
        <time>2021-01-16T08:37:54Z</time>
      </trkpt>
      <trkpt lat="45.28642" lon="5.77384">
        <ele>1416.3</ele>
        <time>2021-01-16T08:38:04Z</time>
      </trkpt>
      <trkpt lat="45.28648" lon="5.77363">
        <ele>1410.5</ele>
        <time>2021-01-16T08:38:06Z</time>
      </trkpt>
      <trkpt lat="45.28649" lon="5.7735">
        <ele>1407.1</ele>
        <time>2021-01-16T08:38:07Z</time>
      </trkpt>
      <trkpt lat="45.28651" lon="5.77337">
        <ele>1403.6</ele>
        <time>2021-01-16T08:38:08Z</time>
      </trkpt>
      <trkpt lat="45.28656" lon="5.77319">
        <ele>1398.9</ele>
        <time>2021-01-16T08:38:10Z</time>
      </trkpt>
      <trkpt lat="45.28663" lon="5.77303">
        <ele>1394.7</ele>
        <time>2021-01-16T08:38:12Z</time>
      </trkpt>
      <trkpt lat="45.28672" lon="5.77292">
        <ele>1391.5</ele>
        <time>2021-01-16T08:38:14Z</time>
      </trkpt>
      <trkpt lat="45.28677" lon="5.77294">
        <ele>1391.4</ele>
        <time>2021-01-16T08:38:30Z</time>
      </trkpt>
      <trkpt lat="45.28678" lon="5.77296">
        <ele>1391.7</ele>
        <time>2021-01-16T08:38:33Z</time>
      </trkpt>
      <trkpt lat="45.2868" lon="5.77303">
        <ele>1393</ele>
        <time>2021-01-16T08:38:50Z</time>
      </trkpt>
      <trkpt lat="45.28678" lon="5.77304">
        <ele>1393.4</ele>
        <time>2021-01-16T08:39:14Z</time>
      </trkpt>
      <trkpt lat="45.2868" lon="5.77303">
        <ele>1393</ele>
        <time>2021-01-16T08:39:26Z</time>
      </trkpt>
      <trkpt lat="45.28678" lon="5.77302">
        <ele>1393</ele>
        <time>2021-01-16T08:39:29Z</time>
      </trkpt>
      <trkpt lat="45.28674" lon="5.77302">
        <ele>1393.4</ele>
        <time>2021-01-16T08:40:12Z</time>
      </trkpt>
      <trkpt lat="45.28677" lon="5.77303">
        <ele>1393.3</ele>
        <time>2021-01-16T08:40:18Z</time>
      </trkpt>
      <trkpt lat="45.28677" lon="5.77306">
        <ele>1394</ele>
        <time>2021-01-16T08:40:52Z</time>
      </trkpt>
      <trkpt lat="45.28676" lon="5.7732">
        <ele>1397.1</ele>
        <time>2021-01-16T08:43:24Z</time>
      </trkpt>
      <trkpt lat="45.28676" lon="5.77325">
        <ele>1398.2</ele>
        <time>2021-01-16T08:43:52Z</time>
      </trkpt>
      <trkpt lat="45.28676" lon="5.77328">
        <ele>1398.8</ele>
        <time>2021-01-16T08:43:55Z</time>
      </trkpt>
      <trkpt lat="45.28678" lon="5.77337">
        <ele>1400.6</ele>
        <time>2021-01-16T08:44:02Z</time>
      </trkpt>
      <trkpt lat="45.28678" lon="5.7734">
        <ele>1401.4</ele>
        <time>2021-01-16T08:44:04Z</time>
      </trkpt>
      <trkpt lat="45.28679" lon="5.77347">
        <ele>1402.9</ele>
        <time>2021-01-16T08:44:09Z</time>
      </trkpt>
      <trkpt lat="45.2868" lon="5.7735">
        <ele>1407.2</ele>
        <time>2021-01-16T08:44:11Z</time>
      </trkpt>
      <trkpt lat="45.28681" lon="5.77363">
        <ele>1406.3</ele>
        <time>2021-01-16T08:44:20Z</time>
      </trkpt>
      <trkpt lat="45.28674" lon="5.77373">
        <ele>1409.5</ele>
        <time>2021-01-16T08:44:30Z</time>
      </trkpt>
      <trkpt lat="45.28671" lon="5.77382">
        <ele>1411.9</ele>
        <time>2021-01-16T08:44:40Z</time>
      </trkpt>
      <trkpt lat="45.28663" lon="5.7739">
        <ele>1419.8</ele>
        <time>2021-01-16T08:44:51Z</time>
      </trkpt>
      <trkpt lat="45.28661" lon="5.77392">
        <ele>1415.6</ele>
        <time>2021-01-16T08:44:57Z</time>
      </trkpt>
      <trkpt lat="45.28658" lon="5.77394">
        <ele>1416.5</ele>
        <time>2021-01-16T08:45:02Z</time>
      </trkpt>
      <trkpt lat="45.28656" lon="5.77395">
        <ele>1417.1</ele>
        <time>2021-01-16T08:45:04Z</time>
      </trkpt>
      <trkpt lat="45.28654" lon="5.77396">
        <ele>1417.6</ele>
        <time>2021-01-16T08:45:08Z</time>
      </trkpt>
      <trkpt lat="45.28652" lon="5.77396">
        <ele>1425.2</ele>
        <time>2021-01-16T08:45:11Z</time>
      </trkpt>
      <trkpt lat="45.2865" lon="5.77397">
        <ele>1418.4</ele>
        <time>2021-01-16T08:45:13Z</time>
      </trkpt>
      <trkpt lat="45.28648" lon="5.77399">
        <ele>1419.2</ele>
        <time>2021-01-16T08:45:17Z</time>
      </trkpt>
      <trkpt lat="45.28644" lon="5.77412">
        <ele>1423.1</ele>
        <time>2021-01-16T08:45:28Z</time>
      </trkpt>
      <trkpt lat="45.28645" lon="5.77425">
        <ele>1426.5</ele>
        <time>2021-01-16T08:45:38Z</time>
      </trkpt>
      <trkpt lat="45.28646" lon="5.77438">
        <ele>1429.9</ele>
        <time>2021-01-16T08:45:50Z</time>
      </trkpt>
      <trkpt lat="45.28649" lon="5.77451">
        <ele>1433</ele>
        <time>2021-01-16T08:45:59Z</time>
      </trkpt>
      <trkpt lat="45.2865" lon="5.77464">
        <ele>1436.4</ele>
        <time>2021-01-16T08:46:10Z</time>
      </trkpt>
      <trkpt lat="45.2865" lon="5.77477">
        <ele>1448.4</ele>
        <time>2021-01-16T08:46:21Z</time>
      </trkpt>
      <trkpt lat="45.28652" lon="5.7749">
        <ele>1442.6</ele>
        <time>2021-01-16T08:46:33Z</time>
      </trkpt>
      <trkpt lat="45.28647" lon="5.77498">
        <ele>1445.7</ele>
        <time>2021-01-16T08:46:50Z</time>
      </trkpt>
      <trkpt lat="45.28644" lon="5.77498">
        <ele>1446.4</ele>
        <time>2021-01-16T08:46:52Z</time>
      </trkpt>
      <trkpt lat="45.28642" lon="5.77498">
        <ele>1446.8</ele>
        <time>2021-01-16T08:46:54Z</time>
      </trkpt>
      <trkpt lat="45.2864" lon="5.77499">
        <ele>1447.5</ele>
        <time>2021-01-16T08:46:57Z</time>
      </trkpt>
      <trkpt lat="45.28636" lon="5.775">
        <ele>1448.7</ele>
        <time>2021-01-16T08:47:00Z</time>
      </trkpt>
      <trkpt lat="45.28634" lon="5.775">
        <ele>1449.2</ele>
        <time>2021-01-16T08:47:02Z</time>
      </trkpt>
      <trkpt lat="45.28632" lon="5.775">
        <ele>1449.7</ele>
        <time>2021-01-16T08:47:04Z</time>
      </trkpt>
      <trkpt lat="45.28629" lon="5.775">
        <ele>1450.5</ele>
        <time>2021-01-16T08:47:08Z</time>
      </trkpt>
      <trkpt lat="45.28627" lon="5.77499">
        <ele>1465.4</ele>
        <time>2021-01-16T08:47:11Z</time>
      </trkpt>
      <trkpt lat="45.28618" lon="5.77503">
        <ele>1454.1</ele>
        <time>2021-01-16T08:47:23Z</time>
      </trkpt>
      <trkpt lat="45.28615" lon="5.77504">
        <ele>1455.2</ele>
        <time>2021-01-16T08:47:28Z</time>
      </trkpt>
      <trkpt lat="45.28613" lon="5.77505">
        <ele>1472.2</ele>
        <time>2021-01-16T08:47:31Z</time>
      </trkpt>
      <trkpt lat="45.28613" lon="5.77508">
        <ele>1456.8</ele>
        <time>2021-01-16T08:47:34Z</time>
      </trkpt>
      <trkpt lat="45.28616" lon="5.77522">
        <ele>1460.1</ele>
        <time>2021-01-16T08:47:48Z</time>
      </trkpt>
      <trkpt lat="45.28608" lon="5.77529">
        <ele>1464.1</ele>
        <time>2021-01-16T08:47:59Z</time>
      </trkpt>
      <trkpt lat="45.28604" lon="5.7753">
        <ele>1465.4</ele>
        <time>2021-01-16T08:48:04Z</time>
      </trkpt>
      <trkpt lat="45.28602" lon="5.77531">
        <ele>1466.1</ele>
        <time>2021-01-16T08:48:07Z</time>
      </trkpt>
      <trkpt lat="45.286" lon="5.77532">
        <ele>1466.9</ele>
        <time>2021-01-16T08:48:10Z</time>
      </trkpt>
      <trkpt lat="45.28598" lon="5.77532">
        <ele>1467.4</ele>
        <time>2021-01-16T08:48:13Z</time>
      </trkpt>
      <trkpt lat="45.28595" lon="5.77533">
        <ele>1468.4</ele>
        <time>2021-01-16T08:48:16Z</time>
      </trkpt>
      <trkpt lat="45.28593" lon="5.77534">
        <ele>1469.1</ele>
        <time>2021-01-16T08:48:19Z</time>
      </trkpt>
      <trkpt lat="45.28591" lon="5.77534">
        <ele>1469.6</ele>
        <time>2021-01-16T08:48:23Z</time>
      </trkpt>
      <trkpt lat="45.2859" lon="5.77536">
        <ele>1470.4</ele>
        <time>2021-01-16T08:48:27Z</time>
      </trkpt>
      <trkpt lat="45.28589" lon="5.77539">
        <ele>1471.4</ele>
        <time>2021-01-16T08:48:29Z</time>
      </trkpt>
      <trkpt lat="45.28596" lon="5.77547">
        <ele>1471.7</ele>
        <time>2021-01-16T08:48:40Z</time>
      </trkpt>
      <trkpt lat="45.28599" lon="5.7756">
        <ele>1474.2</ele>
        <time>2021-01-16T08:48:52Z</time>
      </trkpt>
      <trkpt lat="45.28602" lon="5.77572">
        <ele>1476.4</ele>
        <time>2021-01-16T08:49:03Z</time>
      </trkpt>
      <trkpt lat="45.28594" lon="5.7758">
        <ele>1480.5</ele>
        <time>2021-01-16T08:49:18Z</time>
      </trkpt>
      <trkpt lat="45.28585" lon="5.7758">
        <ele>1482.7</ele>
        <time>2021-01-16T08:49:26Z</time>
      </trkpt>
      <trkpt lat="45.28582" lon="5.77581">
        <ele>1483.7</ele>
        <time>2021-01-16T08:49:29Z</time>
      </trkpt>
      <trkpt lat="45.2858" lon="5.77582">
        <ele>1504.8</ele>
        <time>2021-01-16T08:49:31Z</time>
      </trkpt>
      <trkpt lat="45.28578" lon="5.77583">
        <ele>1485.1</ele>
        <time>2021-01-16T08:49:33Z</time>
      </trkpt>
      <trkpt lat="45.28576" lon="5.77583">
        <ele>1485.5</ele>
        <time>2021-01-16T08:49:36Z</time>
      </trkpt>
      <trkpt lat="45.28574" lon="5.77585">
        <ele>1486.4</ele>
        <time>2021-01-16T08:49:44Z</time>
      </trkpt>
      <trkpt lat="45.28577" lon="5.77598">
        <ele>1488.7</ele>
        <time>2021-01-16T08:49:55Z</time>
      </trkpt>
      <trkpt lat="45.28583" lon="5.77608">
        <ele>1489.4</ele>
        <time>2021-01-16T08:50:06Z</time>
      </trkpt>
      <trkpt lat="45.28577" lon="5.77616">
        <ele>1493</ele>
        <time>2021-01-16T08:50:20Z</time>
      </trkpt>
      <trkpt lat="45.28575" lon="5.77617">
        <ele>1493.8</ele>
        <time>2021-01-16T08:50:22Z</time>
      </trkpt>
      <trkpt lat="45.28572" lon="5.77621">
        <ele>1495.7</ele>
        <time>2021-01-16T08:50:27Z</time>
      </trkpt>
      <trkpt lat="45.2857" lon="5.77622">
        <ele>1496.5</ele>
        <time>2021-01-16T08:50:30Z</time>
      </trkpt>
      <trkpt lat="45.28568" lon="5.77623">
        <ele>1497.3</ele>
        <time>2021-01-16T08:50:32Z</time>
      </trkpt>
      <trkpt lat="45.28566" lon="5.77623">
        <ele>1497.8</ele>
        <time>2021-01-16T08:50:34Z</time>
      </trkpt>
      <trkpt lat="45.28565" lon="5.77623">
        <ele>1498</ele>
        <time>2021-01-16T08:50:37Z</time>
      </trkpt>
      <trkpt lat="45.28571" lon="5.77632">
        <ele>1499.1</ele>
        <time>2021-01-16T08:50:52Z</time>
      </trkpt>
      <trkpt lat="45.28562" lon="5.77635">
        <ele>1502.3</ele>
        <time>2021-01-16T08:51:02Z</time>
      </trkpt>
      <trkpt lat="45.28555" lon="5.77636">
        <ele>1527.8</ele>
        <time>2021-01-16T08:51:11Z</time>
      </trkpt>
      <trkpt lat="45.28553" lon="5.77637">
        <ele>1505.1</ele>
        <time>2021-01-16T08:51:13Z</time>
      </trkpt>
      <trkpt lat="45.28547" lon="5.7764">
        <ele>1507.5</ele>
        <time>2021-01-16T08:51:18Z</time>
      </trkpt>
      <trkpt lat="45.28538" lon="5.77644">
        <ele>1511.1</ele>
        <time>2021-01-16T08:51:24Z</time>
      </trkpt>
      <trkpt lat="45.28529" lon="5.77648">
        <ele>1514.6</ele>
        <time>2021-01-16T08:51:34Z</time>
      </trkpt>
      <trkpt lat="45.28526" lon="5.77649">
        <ele>1515.7</ele>
        <time>2021-01-16T08:51:40Z</time>
      </trkpt>
      <trkpt lat="45.28519" lon="5.77657">
        <ele>1520.3</ele>
        <time>2021-01-16T08:51:47Z</time>
      </trkpt>
      <trkpt lat="45.28519" lon="5.7766">
        <ele>1521.3</ele>
        <time>2021-01-16T08:51:50Z</time>
      </trkpt>
      <trkpt lat="45.28522" lon="5.77663">
        <ele>1521.4</ele>
        <time>2021-01-16T08:51:53Z</time>
      </trkpt>
      <trkpt lat="45.28523" lon="5.77666">
        <ele>1522.2</ele>
        <time>2021-01-16T08:51:55Z</time>
      </trkpt>
      <trkpt lat="45.28524" lon="5.77668">
        <ele>1522.6</ele>
        <time>2021-01-16T08:51:57Z</time>
      </trkpt>
      <trkpt lat="45.28527" lon="5.77669">
        <ele>1522.1</ele>
        <time>2021-01-16T08:51:59Z</time>
      </trkpt>
      <trkpt lat="45.28529" lon="5.7767">
        <ele>1542</ele>
        <time>2021-01-16T08:52:01Z</time>
      </trkpt>
      <trkpt lat="45.28532" lon="5.77671">
        <ele>1521.7</ele>
        <time>2021-01-16T08:52:03Z</time>
      </trkpt>
      <trkpt lat="45.28535" lon="5.77673">
        <ele>1521.7</ele>
        <time>2021-01-16T08:52:06Z</time>
      </trkpt>
      <trkpt lat="45.28537" lon="5.77674">
        <ele>1521.6</ele>
        <time>2021-01-16T08:52:08Z</time>
      </trkpt>
      <trkpt lat="45.28539" lon="5.77676">
        <ele>1544.2</ele>
        <time>2021-01-16T08:52:11Z</time>
      </trkpt>
      <trkpt lat="45.28542" lon="5.77677">
        <ele>1521.5</ele>
        <time>2021-01-16T08:52:14Z</time>
      </trkpt>
      <trkpt lat="45.28544" lon="5.77679">
        <ele>1521.8</ele>
        <time>2021-01-16T08:52:17Z</time>
      </trkpt>
      <trkpt lat="45.28547" lon="5.7768">
        <ele>1521.4</ele>
        <time>2021-01-16T08:52:20Z</time>
      </trkpt>
      <trkpt lat="45.28548" lon="5.77682">
        <ele>1522</ele>
        <time>2021-01-16T08:52:22Z</time>
      </trkpt>
      <trkpt lat="45.2855" lon="5.77683">
        <ele>1521.9</ele>
        <time>2021-01-16T08:52:24Z</time>
      </trkpt>
      <trkpt lat="45.28552" lon="5.77685">
        <ele>1522.2</ele>
        <time>2021-01-16T08:52:26Z</time>
      </trkpt>
      <trkpt lat="45.28553" lon="5.77687">
        <ele>1522.7</ele>
        <time>2021-01-16T08:52:28Z</time>
      </trkpt>
      <trkpt lat="45.28556" lon="5.77688">
        <ele>1522.3</ele>
        <time>2021-01-16T08:52:30Z</time>
      </trkpt>
      <trkpt lat="45.28558" lon="5.7769">
        <ele>1522.6</ele>
        <time>2021-01-16T08:52:32Z</time>
      </trkpt>
      <trkpt lat="45.28559" lon="5.77693">
        <ele>1523.4</ele>
        <time>2021-01-16T08:52:34Z</time>
      </trkpt>
      <trkpt lat="45.28557" lon="5.77706">
        <ele>1529.2</ele>
        <time>2021-01-16T08:52:43Z</time>
      </trkpt>
      <trkpt lat="45.28556" lon="5.77719">
        <ele>1534.6</ele>
        <time>2021-01-16T08:52:54Z</time>
      </trkpt>
      <trkpt lat="45.28564" lon="5.77726">
        <ele>1535.2</ele>
        <time>2021-01-16T08:53:02Z</time>
      </trkpt>
      <trkpt lat="45.2857" lon="5.77738">
        <ele>1538.7</ele>
        <time>2021-01-16T08:53:12Z</time>
      </trkpt>
      <trkpt lat="45.28573" lon="5.7775">
        <ele>1543</ele>
        <time>2021-01-16T08:53:24Z</time>
      </trkpt>
      <trkpt lat="45.28575" lon="5.77763">
        <ele>1565.8</ele>
        <time>2021-01-16T08:53:41Z</time>
      </trkpt>
      <trkpt lat="45.2858" lon="5.77775">
        <ele>1552.6</ele>
        <time>2021-01-16T08:53:52Z</time>
      </trkpt>
      <trkpt lat="45.28587" lon="5.77783">
        <ele>1570.4</ele>
        <time>2021-01-16T08:54:01Z</time>
      </trkpt>
      <trkpt lat="45.28592" lon="5.77794">
        <ele>1572.6</ele>
        <time>2021-01-16T08:54:11Z</time>
      </trkpt>
      <trkpt lat="45.28593" lon="5.77807">
        <ele>1565.3</ele>
        <time>2021-01-16T08:54:22Z</time>
      </trkpt>
      <trkpt lat="45.28596" lon="5.7782">
        <ele>1570.9</ele>
        <time>2021-01-16T08:54:32Z</time>
      </trkpt>
      <trkpt lat="45.28597" lon="5.77834">
        <ele>1577.3</ele>
        <time>2021-01-16T08:54:40Z</time>
      </trkpt>
      <trkpt lat="45.28599" lon="5.77847">
        <ele>1582.6</ele>
        <time>2021-01-16T08:54:53Z</time>
      </trkpt>
      <trkpt lat="45.28604" lon="5.77857">
        <ele>1586.2</ele>
        <time>2021-01-16T08:55:02Z</time>
      </trkpt>
      <trkpt lat="45.28612" lon="5.77864">
        <ele>1587.8</ele>
        <time>2021-01-16T08:55:11Z</time>
      </trkpt>
      <trkpt lat="45.28616" lon="5.77876">
        <ele>1593.3</ele>
        <time>2021-01-16T08:55:24Z</time>
      </trkpt>
      <trkpt lat="45.28625" lon="5.77882">
        <ele>1595.6</ele>
        <time>2021-01-16T08:55:33Z</time>
      </trkpt>
      <trkpt lat="45.28628" lon="5.77894">
        <ele>1600.2</ele>
        <time>2021-01-16T08:55:42Z</time>
      </trkpt>
      <trkpt lat="45.28635" lon="5.77903">
        <ele>1603.2</ele>
        <time>2021-01-16T08:55:56Z</time>
      </trkpt>
      <trkpt lat="45.28644" lon="5.7791">
        <ele>1606.7</ele>
        <time>2021-01-16T08:56:18Z</time>
      </trkpt>
      <trkpt lat="45.2864" lon="5.77922">
        <ele>1610.2</ele>
        <time>2021-01-16T08:56:38Z</time>
      </trkpt>
      <trkpt lat="45.28636" lon="5.77934">
        <ele>1615.6</ele>
        <time>2021-01-16T08:56:51Z</time>
      </trkpt>
      <trkpt lat="45.28628" lon="5.77942">
        <ele>1617.5</ele>
        <time>2021-01-16T08:57:04Z</time>
      </trkpt>
      <trkpt lat="45.2862" lon="5.7795">
        <ele>1620.9</ele>
        <time>2021-01-16T08:57:13Z</time>
      </trkpt>
      <trkpt lat="45.28613" lon="5.77961">
        <ele>1625.5</ele>
        <time>2021-01-16T08:57:57Z</time>
      </trkpt>
      <trkpt lat="45.28604" lon="5.77969">
        <ele>1629.6</ele>
        <time>2021-01-16T08:58:11Z</time>
      </trkpt>
      <trkpt lat="45.28594" lon="5.77974">
        <ele>1633.2</ele>
        <time>2021-01-16T08:58:21Z</time>
      </trkpt>
      <trkpt lat="45.28585" lon="5.77977">
        <ele>1636.6</ele>
        <time>2021-01-16T08:58:36Z</time>
      </trkpt>
      <trkpt lat="45.28587" lon="5.77991">
        <ele>1642</ele>
        <time>2021-01-16T08:59:03Z</time>
      </trkpt>
      <trkpt lat="45.28593" lon="5.78001">
        <ele>1645.4</ele>
        <time>2021-01-16T08:59:16Z</time>
      </trkpt>
      <trkpt lat="45.28599" lon="5.78011">
        <ele>1648.7</ele>
        <time>2021-01-16T08:59:28Z</time>
      </trkpt>
      <trkpt lat="45.28608" lon="5.78016">
        <ele>1649.7</ele>
        <time>2021-01-16T08:59:38Z</time>
      </trkpt>
      <trkpt lat="45.28616" lon="5.78021">
        <ele>1651.3</ele>
        <time>2021-01-16T08:59:50Z</time>
      </trkpt>
      <trkpt lat="45.28625" lon="5.78025">
        <ele>1652.8</ele>
        <time>2021-01-16T08:59:58Z</time>
      </trkpt>
      <trkpt lat="45.28634" lon="5.7803">
        <ele>1655</ele>
        <time>2021-01-16T09:00:07Z</time>
      </trkpt>
      <trkpt lat="45.28643" lon="5.78033">
        <ele>1657</ele>
        <time>2021-01-16T09:00:15Z</time>
      </trkpt>
      <trkpt lat="45.28652" lon="5.78037">
        <ele>1660.2</ele>
        <time>2021-01-16T09:00:26Z</time>
      </trkpt>
      <trkpt lat="45.28661" lon="5.78039">
        <ele>1662.5</ele>
        <time>2021-01-16T09:00:39Z</time>
      </trkpt>
      <trkpt lat="45.2867" lon="5.7804">
        <ele>1664.7</ele>
        <time>2021-01-16T09:00:49Z</time>
      </trkpt>
      <trkpt lat="45.28678" lon="5.78044">
        <ele>1668.4</ele>
        <time>2021-01-16T09:01:00Z</time>
      </trkpt>
      <trkpt lat="45.28688" lon="5.7804">
        <ele>1669.6</ele>
        <time>2021-01-16T09:01:13Z</time>
      </trkpt>
      <trkpt lat="45.28697" lon="5.78039">
        <ele>1671.2</ele>
        <time>2021-01-16T09:01:24Z</time>
      </trkpt>
      <trkpt lat="45.28707" lon="5.78039">
        <ele>1671.7</ele>
        <time>2021-01-16T09:01:34Z</time>
      </trkpt>
      <trkpt lat="45.28716" lon="5.78044">
        <ele>1674.1</ele>
        <time>2021-01-16T09:01:44Z</time>
      </trkpt>
      <trkpt lat="45.28724" lon="5.78049">
        <ele>1676.3</ele>
        <time>2021-01-16T09:01:54Z</time>
      </trkpt>
      <trkpt lat="45.28732" lon="5.78056">
        <ele>1678.5</ele>
        <time>2021-01-16T09:02:04Z</time>
      </trkpt>
      <trkpt lat="45.28739" lon="5.78066">
        <ele>1682.3</ele>
        <time>2021-01-16T09:02:12Z</time>
      </trkpt>
      <trkpt lat="45.28745" lon="5.78077">
        <ele>1686.6</ele>
        <time>2021-01-16T09:02:26Z</time>
      </trkpt>
      <trkpt lat="45.28753" lon="5.78084">
        <ele>1688.7</ele>
        <time>2021-01-16T09:02:37Z</time>
      </trkpt>
      <trkpt lat="45.28748" lon="5.78088">
        <ele>1691.2</ele>
        <time>2021-01-16T09:02:49Z</time>
      </trkpt>
      <trkpt lat="45.28738" lon="5.7809">
        <ele>1692.7</ele>
        <time>2021-01-16T09:03:00Z</time>
      </trkpt>
      <trkpt lat="45.28736" lon="5.78092">
        <ele>1693.8</ele>
        <time>2021-01-16T09:03:07Z</time>
      </trkpt>
      <trkpt lat="45.28743" lon="5.78101">
        <ele>1697.1</ele>
        <time>2021-01-16T09:03:18Z</time>
      </trkpt>
      <trkpt lat="45.2875" lon="5.78109">
        <ele>1700.1</ele>
        <time>2021-01-16T09:03:28Z</time>
      </trkpt>
      <trkpt lat="45.28744" lon="5.78119">
        <ele>1704.6</ele>
        <time>2021-01-16T09:03:43Z</time>
      </trkpt>
      <trkpt lat="45.2874" lon="5.7812">
        <ele>1705.4</ele>
        <time>2021-01-16T09:03:46Z</time>
      </trkpt>
      <trkpt lat="45.28736" lon="5.78121">
        <ele>1717.2</ele>
        <time>2021-01-16T09:03:51Z</time>
      </trkpt>
      <trkpt lat="45.28734" lon="5.78122">
        <ele>1706.7</ele>
        <time>2021-01-16T09:03:53Z</time>
      </trkpt>
      <trkpt lat="45.28727" lon="5.78124">
        <ele>1708.1</ele>
        <time>2021-01-16T09:04:02Z</time>
      </trkpt>
      <trkpt lat="45.28724" lon="5.78125">
        <ele>1708.8</ele>
        <time>2021-01-16T09:04:06Z</time>
      </trkpt>
      <trkpt lat="45.28718" lon="5.78133">
        <ele>1712.2</ele>
        <time>2021-01-16T09:04:19Z</time>
      </trkpt>
      <trkpt lat="45.28711" lon="5.78139">
        <ele>1714.2</ele>
        <time>2021-01-16T09:04:27Z</time>
      </trkpt>
      <trkpt lat="45.28709" lon="5.78141">
        <ele>1715</ele>
        <time>2021-01-16T09:04:30Z</time>
      </trkpt>
      <trkpt lat="45.28718" lon="5.78146">
        <ele>1717.8</ele>
        <time>2021-01-16T09:04:45Z</time>
      </trkpt>
      <trkpt lat="45.28725" lon="5.78153">
        <ele>1720.8</ele>
        <time>2021-01-16T09:04:56Z</time>
      </trkpt>
      <trkpt lat="45.28733" lon="5.78161">
        <ele>1723.7</ele>
        <time>2021-01-16T09:05:06Z</time>
      </trkpt>
      <trkpt lat="45.28724" lon="5.78169">
        <ele>1728</ele>
        <time>2021-01-16T09:05:26Z</time>
      </trkpt>
      <trkpt lat="45.28716" lon="5.78175">
        <ele>1730.4</ele>
        <time>2021-01-16T09:05:43Z</time>
      </trkpt>
      <trkpt lat="45.28714" lon="5.78173">
        <ele>1729.3</ele>
        <time>2021-01-16T09:07:04Z</time>
      </trkpt>
      <trkpt lat="45.28705" lon="5.78179">
        <ele>1747.8</ele>
        <time>2021-01-16T09:08:31Z</time>
      </trkpt>
      <trkpt lat="45.28699" lon="5.78188">
        <ele>1734.7</ele>
        <time>2021-01-16T09:08:39Z</time>
      </trkpt>
      <trkpt lat="45.28697" lon="5.78191">
        <ele>1735.8</ele>
        <time>2021-01-16T09:08:42Z</time>
      </trkpt>
      <trkpt lat="45.28695" lon="5.78193">
        <ele>1736.4</ele>
        <time>2021-01-16T09:08:46Z</time>
      </trkpt>
      <trkpt lat="45.28693" lon="5.78197">
        <ele>1738</ele>
        <time>2021-01-16T09:08:49Z</time>
      </trkpt>
      <trkpt lat="45.28692" lon="5.78199">
        <ele>1753.2</ele>
        <time>2021-01-16T09:08:51Z</time>
      </trkpt>
      <trkpt lat="45.28684" lon="5.78207">
        <ele>1754.8</ele>
        <time>2021-01-16T09:09:01Z</time>
      </trkpt>
      <trkpt lat="45.28676" lon="5.78214">
        <ele>1742.9</ele>
        <time>2021-01-16T09:09:10Z</time>
      </trkpt>
      <trkpt lat="45.28667" lon="5.78219">
        <ele>1758</ele>
        <time>2021-01-16T09:09:21Z</time>
      </trkpt>
      <trkpt lat="45.2866" lon="5.78227">
        <ele>1748.3</ele>
        <time>2021-01-16T09:09:36Z</time>
      </trkpt>
      <trkpt lat="45.2865" lon="5.78231">
        <ele>1751.4</ele>
        <time>2021-01-16T09:09:52Z</time>
      </trkpt>
      <trkpt lat="45.28642" lon="5.78229">
        <ele>1750.9</ele>
        <time>2021-01-16T09:09:59Z</time>
      </trkpt>
      <trkpt lat="45.28634" lon="5.7822">
        <ele>1747.5</ele>
        <time>2021-01-16T09:10:05Z</time>
      </trkpt>
      <trkpt lat="45.28632" lon="5.78216">
        <ele>1746.1</ele>
        <time>2021-01-16T09:10:08Z</time>
      </trkpt>
      <trkpt lat="45.28623" lon="5.7821">
        <ele>1745.9</ele>
        <time>2021-01-16T09:10:16Z</time>
      </trkpt>
      <trkpt lat="45.28613" lon="5.78208">
        <ele>1748.2</ele>
        <time>2021-01-16T09:10:29Z</time>
      </trkpt>
      <trkpt lat="45.28603" lon="5.7821">
        <ele>1753.2</ele>
        <time>2021-01-16T09:10:40Z</time>
      </trkpt>
      <trkpt lat="45.28593" lon="5.78213">
        <ele>1758.9</ele>
        <time>2021-01-16T09:10:50Z</time>
      </trkpt>
      <trkpt lat="45.28584" lon="5.78214">
        <ele>1763</ele>
        <time>2021-01-16T09:11:00Z</time>
      </trkpt>
      <trkpt lat="45.28574" lon="5.78219">
        <ele>1769.9</ele>
        <time>2021-01-16T09:11:14Z</time>
      </trkpt>
      <trkpt lat="45.28565" lon="5.78217">
        <ele>1772.4</ele>
        <time>2021-01-16T09:11:23Z</time>
      </trkpt>
      <trkpt lat="45.28556" lon="5.78223">
        <ele>1779.2</ele>
        <time>2021-01-16T09:11:39Z</time>
      </trkpt>
      <trkpt lat="45.28547" lon="5.78225">
        <ele>1783</ele>
        <time>2021-01-16T09:11:47Z</time>
      </trkpt>
      <trkpt lat="45.28538" lon="5.78229">
        <ele>1787.7</ele>
        <time>2021-01-16T09:12:06Z</time>
      </trkpt>
      <trkpt lat="45.28529" lon="5.78229">
        <ele>1790.5</ele>
        <time>2021-01-16T09:12:26Z</time>
      </trkpt>
      <trkpt lat="45.2852" lon="5.78234">
        <ele>1795.2</ele>
        <time>2021-01-16T09:12:38Z</time>
      </trkpt>
      <trkpt lat="45.2851" lon="5.78239">
        <ele>1800</ele>
        <time>2021-01-16T09:12:48Z</time>
      </trkpt>
      <trkpt lat="45.285" lon="5.7824">
        <ele>1803</ele>
        <time>2021-01-16T09:13:02Z</time>
      </trkpt>
      <trkpt lat="45.28492" lon="5.78237">
        <ele>1803.7</ele>
        <time>2021-01-16T09:13:15Z</time>
      </trkpt>
      <trkpt lat="45.28482" lon="5.78236">
        <ele>1805.7</ele>
        <time>2021-01-16T09:13:24Z</time>
      </trkpt>
      <trkpt lat="45.28473" lon="5.7824">
        <ele>1823.2</ele>
        <time>2021-01-16T09:13:41Z</time>
      </trkpt>
      <trkpt lat="45.28464" lon="5.78237">
        <ele>1809.9</ele>
        <time>2021-01-16T09:13:53Z</time>
      </trkpt>
      <trkpt lat="45.28459" lon="5.78249">
        <ele>1815</ele>
        <time>2021-01-16T09:14:13Z</time>
      </trkpt>
      <trkpt lat="45.28449" lon="5.7825">
        <ele>1817.2</ele>
        <time>2021-01-16T09:14:32Z</time>
      </trkpt>
      <trkpt lat="45.28445" lon="5.78254">
        <ele>1819.2</ele>
        <time>2021-01-16T09:14:44Z</time>
      </trkpt>
      <trkpt lat="45.28443" lon="5.78255">
        <ele>1819.9</ele>
        <time>2021-01-16T09:14:46Z</time>
      </trkpt>
      <trkpt lat="45.28444" lon="5.78268">
        <ele>1823.9</ele>
        <time>2021-01-16T09:14:58Z</time>
      </trkpt>
      <trkpt lat="45.28448" lon="5.7828">
        <ele>1827.2</ele>
        <time>2021-01-16T09:15:10Z</time>
      </trkpt>
      <trkpt lat="45.28442" lon="5.78292">
        <ele>1832</ele>
        <time>2021-01-16T09:15:19Z</time>
      </trkpt>
      <trkpt lat="45.28444" lon="5.78305">
        <ele>1835.9</ele>
        <time>2021-01-16T09:15:37Z</time>
      </trkpt>
      <trkpt lat="45.28441" lon="5.78318">
        <ele>1839.9</ele>
        <time>2021-01-16T09:15:49Z</time>
      </trkpt>
      <trkpt lat="45.28436" lon="5.78328">
        <ele>1843.1</ele>
        <time>2021-01-16T09:15:57Z</time>
      </trkpt>
      <trkpt lat="45.28438" lon="5.78341">
        <ele>1846.9</ele>
        <time>2021-01-16T09:16:09Z</time>
      </trkpt>
      <trkpt lat="45.28444" lon="5.78351">
        <ele>1849.7</ele>
        <time>2021-01-16T09:16:22Z</time>
      </trkpt>
      <trkpt lat="45.28453" lon="5.78359">
        <ele>1852</ele>
        <time>2021-01-16T09:16:33Z</time>
      </trkpt>
      <trkpt lat="45.2846" lon="5.78368">
        <ele>1854.7</ele>
        <time>2021-01-16T09:16:43Z</time>
      </trkpt>
      <trkpt lat="45.28466" lon="5.78378">
        <ele>1857.7</ele>
        <time>2021-01-16T09:16:55Z</time>
      </trkpt>
      <trkpt lat="45.28473" lon="5.78388">
        <ele>1860.7</ele>
        <time>2021-01-16T09:17:07Z</time>
      </trkpt>
      <trkpt lat="45.28475" lon="5.78393">
        <ele>1862.5</ele>
        <time>2021-01-16T09:17:15Z</time>
      </trkpt>
      <trkpt lat="45.28473" lon="5.78396">
        <ele>1863.6</ele>
        <time>2021-01-16T09:17:18Z</time>
      </trkpt>
      <trkpt lat="45.28471" lon="5.78397">
        <ele>1884</ele>
        <time>2021-01-16T09:17:21Z</time>
      </trkpt>
      <trkpt lat="45.28469" lon="5.78399">
        <ele>1864.7</ele>
        <time>2021-01-16T09:17:24Z</time>
      </trkpt>
      <trkpt lat="45.28467" lon="5.784">
        <ele>1865</ele>
        <time>2021-01-16T09:17:26Z</time>
      </trkpt>
      <trkpt lat="45.28465" lon="5.78402">
        <ele>1865.7</ele>
        <time>2021-01-16T09:17:28Z</time>
      </trkpt>
      <trkpt lat="45.28463" lon="5.78404">
        <ele>1886.2</ele>
        <time>2021-01-16T09:17:31Z</time>
      </trkpt>
      <trkpt lat="45.28461" lon="5.78405">
        <ele>1866.7</ele>
        <time>2021-01-16T09:17:34Z</time>
      </trkpt>
      <trkpt lat="45.28459" lon="5.78407">
        <ele>1867.4</ele>
        <time>2021-01-16T09:17:37Z</time>
      </trkpt>
      <trkpt lat="45.28456" lon="5.78408">
        <ele>1867.7</ele>
        <time>2021-01-16T09:17:40Z</time>
      </trkpt>
      <trkpt lat="45.28454" lon="5.78411">
        <ele>1868.6</ele>
        <time>2021-01-16T09:17:43Z</time>
      </trkpt>
      <trkpt lat="45.28452" lon="5.78413">
        <ele>1869.1</ele>
        <time>2021-01-16T09:17:46Z</time>
      </trkpt>
      <trkpt lat="45.28451" lon="5.78414">
        <ele>1869.4</ele>
        <time>2021-01-16T09:17:48Z</time>
      </trkpt>
      <trkpt lat="45.2845" lon="5.78417">
        <ele>1870.3</ele>
        <time>2021-01-16T09:17:52Z</time>
      </trkpt>
      <trkpt lat="45.28449" lon="5.7842">
        <ele>1871.2</ele>
        <time>2021-01-16T09:17:54Z</time>
      </trkpt>
      <trkpt lat="45.28447" lon="5.78421">
        <ele>1871.5</ele>
        <time>2021-01-16T09:17:58Z</time>
      </trkpt>
      <trkpt lat="45.28445" lon="5.78422">
        <ele>1894.2</ele>
        <time>2021-01-16T09:18:01Z</time>
      </trkpt>
      <trkpt lat="45.28441" lon="5.78426">
        <ele>1873.3</ele>
        <time>2021-01-16T09:18:07Z</time>
      </trkpt>
      <trkpt lat="45.2844" lon="5.78429">
        <ele>1874.3</ele>
        <time>2021-01-16T09:18:10Z</time>
      </trkpt>
      <trkpt lat="45.28439" lon="5.78431">
        <ele>1875</ele>
        <time>2021-01-16T09:18:13Z</time>
      </trkpt>
      <trkpt lat="45.28438" lon="5.78433">
        <ele>1875.8</ele>
        <time>2021-01-16T09:18:16Z</time>
      </trkpt>
      <trkpt lat="45.28437" lon="5.78435">
        <ele>1876.5</ele>
        <time>2021-01-16T09:18:18Z</time>
      </trkpt>
      <trkpt lat="45.28435" lon="5.78437">
        <ele>1877.3</ele>
        <time>2021-01-16T09:18:20Z</time>
      </trkpt>
      <trkpt lat="45.28434" lon="5.78439">
        <ele>1878</ele>
        <time>2021-01-16T09:18:23Z</time>
      </trkpt>
      <trkpt lat="45.2844" lon="5.78449">
        <ele>1881</ele>
        <time>2021-01-16T09:18:37Z</time>
      </trkpt>
      <trkpt lat="45.28439" lon="5.78462">
        <ele>1885.7</ele>
        <time>2021-01-16T09:18:49Z</time>
      </trkpt>
      <trkpt lat="45.28431" lon="5.7847">
        <ele>1889.2</ele>
        <time>2021-01-16T09:19:03Z</time>
      </trkpt>
      <trkpt lat="45.28437" lon="5.7848">
        <ele>1892.4</ele>
        <time>2021-01-16T09:19:20Z</time>
      </trkpt>
      <trkpt lat="45.28435" lon="5.78494">
        <ele>1921.8</ele>
        <time>2021-01-16T09:19:31Z</time>
      </trkpt>
      <trkpt lat="45.28426" lon="5.78497">
        <ele>1899.8</ele>
        <time>2021-01-16T09:19:43Z</time>
      </trkpt>
      <trkpt lat="45.28424" lon="5.78498">
        <ele>1900.4</ele>
        <time>2021-01-16T09:19:45Z</time>
      </trkpt>
      <trkpt lat="45.28422" lon="5.78498">
        <ele>1900.6</ele>
        <time>2021-01-16T09:19:48Z</time>
      </trkpt>
      <trkpt lat="45.28415" lon="5.78503">
        <ele>1903.5</ele>
        <time>2021-01-16T09:20:00Z</time>
      </trkpt>
      <trkpt lat="45.28413" lon="5.78505">
        <ele>1904.6</ele>
        <time>2021-01-16T09:20:04Z</time>
      </trkpt>
      <trkpt lat="45.28408" lon="5.78507">
        <ele>1906.3</ele>
        <time>2021-01-16T09:20:14Z</time>
      </trkpt>
      <trkpt lat="45.28402" lon="5.7851">
        <ele>1908.4</ele>
        <time>2021-01-16T09:20:22Z</time>
      </trkpt>
      <trkpt lat="45.28409" lon="5.7852">
        <ele>1911.1</ele>
        <time>2021-01-16T09:20:35Z</time>
      </trkpt>
      <trkpt lat="45.28416" lon="5.78529">
        <ele>1913.5</ele>
        <time>2021-01-16T09:20:48Z</time>
      </trkpt>
      <trkpt lat="45.28419" lon="5.78541">
        <ele>1917.6</ele>
        <time>2021-01-16T09:20:59Z</time>
      </trkpt>
      <trkpt lat="45.28418" lon="5.78541">
        <ele>1945.8</ele>
        <time>2021-01-16T09:21:01Z</time>
      </trkpt>
      <trkpt lat="45.2841" lon="5.78542">
        <ele>1919.1</ele>
        <time>2021-01-16T09:21:12Z</time>
      </trkpt>
      <trkpt lat="45.28407" lon="5.78544">
        <ele>1920.2</ele>
        <time>2021-01-16T09:21:17Z</time>
      </trkpt>
      <trkpt lat="45.28406" lon="5.78545">
        <ele>1920.7</ele>
        <time>2021-01-16T09:21:18Z</time>
      </trkpt>
      <trkpt lat="45.28403" lon="5.78546">
        <ele>1921.5</ele>
        <time>2021-01-16T09:21:20Z</time>
      </trkpt>
      <trkpt lat="45.28401" lon="5.78547">
        <ele>1922.2</ele>
        <time>2021-01-16T09:21:22Z</time>
      </trkpt>
      <trkpt lat="45.28399" lon="5.78548">
        <ele>1922.8</ele>
        <time>2021-01-16T09:21:25Z</time>
      </trkpt>
      <trkpt lat="45.28397" lon="5.78548">
        <ele>1923.1</ele>
        <time>2021-01-16T09:21:27Z</time>
      </trkpt>
      <trkpt lat="45.28389" lon="5.78549">
        <ele>1924.6</ele>
        <time>2021-01-16T09:21:37Z</time>
      </trkpt>
      <trkpt lat="45.28387" lon="5.78551">
        <ele>1925.2</ele>
        <time>2021-01-16T09:21:39Z</time>
      </trkpt>
      <trkpt lat="45.28389" lon="5.78553">
        <ele>1926.1</ele>
        <time>2021-01-16T09:21:46Z</time>
      </trkpt>
      <trkpt lat="45.28397" lon="5.78561">
        <ele>1927.8</ele>
        <time>2021-01-16T09:21:55Z</time>
      </trkpt>
      <trkpt lat="45.28406" lon="5.78568">
        <ele>1929.4</ele>
        <time>2021-01-16T09:22:05Z</time>
      </trkpt>
      <trkpt lat="45.28414" lon="5.78574">
        <ele>1931.2</ele>
        <time>2021-01-16T09:22:15Z</time>
      </trkpt>
      <trkpt lat="45.28421" lon="5.78583">
        <ele>1934.7</ele>
        <time>2021-01-16T09:22:30Z</time>
      </trkpt>
      <trkpt lat="45.28429" lon="5.7859">
        <ele>1937.1</ele>
        <time>2021-01-16T09:22:39Z</time>
      </trkpt>
      <trkpt lat="45.28425" lon="5.78602">
        <ele>1972.6</ele>
        <time>2021-01-16T09:23:01Z</time>
      </trkpt>
      <trkpt lat="45.28424" lon="5.78604">
        <ele>1942.2</ele>
        <time>2021-01-16T09:23:04Z</time>
      </trkpt>
      <trkpt lat="45.28424" lon="5.78611">
        <ele>1944.8</ele>
        <time>2021-01-16T09:23:15Z</time>
      </trkpt>
      <trkpt lat="45.28422" lon="5.78612">
        <ele>1944.7</ele>
        <time>2021-01-16T09:23:18Z</time>
      </trkpt>
      <trkpt lat="45.28421" lon="5.78614">
        <ele>1944.8</ele>
        <time>2021-01-16T09:23:20Z</time>
      </trkpt>
      <trkpt lat="45.2842" lon="5.78616">
        <ele>1944.9</ele>
        <time>2021-01-16T09:23:24Z</time>
      </trkpt>
      <trkpt lat="45.28419" lon="5.78619">
        <ele>1945</ele>
        <time>2021-01-16T09:23:28Z</time>
      </trkpt>
      <trkpt lat="45.28417" lon="5.78621">
        <ele>1978.4</ele>
        <time>2021-01-16T09:23:31Z</time>
      </trkpt>
      <trkpt lat="45.28417" lon="5.78624">
        <ele>1945</ele>
        <time>2021-01-16T09:23:37Z</time>
      </trkpt>
      <trkpt lat="45.28417" lon="5.78627">
        <ele>1945.2</ele>
        <time>2021-01-16T09:23:44Z</time>
      </trkpt>
      <trkpt lat="45.28415" lon="5.78627">
        <ele>1944</ele>
        <time>2021-01-16T09:23:46Z</time>
      </trkpt>
      <trkpt lat="45.28413" lon="5.78626">
        <ele>1942.6</ele>
        <time>2021-01-16T09:23:49Z</time>
      </trkpt>
      <trkpt lat="45.28411" lon="5.78625">
        <ele>1941.3</ele>
        <time>2021-01-16T09:23:52Z</time>
      </trkpt>
      <trkpt lat="45.28409" lon="5.78625">
        <ele>1940</ele>
        <time>2021-01-16T09:23:55Z</time>
      </trkpt>
      <trkpt lat="45.28407" lon="5.78625">
        <ele>1938.7</ele>
        <time>2021-01-16T09:23:58Z</time>
      </trkpt>
      <trkpt lat="45.28405" lon="5.78623">
        <ele>1937.7</ele>
        <time>2021-01-16T09:24:03Z</time>
      </trkpt>
      <trkpt lat="45.28403" lon="5.78623">
        <ele>1936.4</ele>
        <time>2021-01-16T09:24:05Z</time>
      </trkpt>
      <trkpt lat="45.28401" lon="5.78624">
        <ele>1935</ele>
        <time>2021-01-16T09:24:16Z</time>
      </trkpt>
      <trkpt lat="45.28399" lon="5.78624">
        <ele>1933.8</ele>
        <time>2021-01-16T09:25:04Z</time>
      </trkpt>
      <trkpt lat="45.28401" lon="5.78624">
        <ele>1935</ele>
        <time>2021-01-16T09:25:40Z</time>
      </trkpt>
      <trkpt lat="45.28399" lon="5.78624">
        <ele>1933.8</ele>
        <time>2021-01-16T09:26:02Z</time>
      </trkpt>
      <trkpt lat="45.28397" lon="5.78626">
        <ele>1932</ele>
        <time>2021-01-16T09:26:22Z</time>
      </trkpt>
      <trkpt lat="45.28397" lon="5.78623">
        <ele>1973.6</ele>
        <time>2021-01-16T09:26:31Z</time>
      </trkpt>
      <trkpt lat="45.28399" lon="5.78623">
        <ele>1934</ele>
        <time>2021-01-16T09:27:13Z</time>
      </trkpt>
      <trkpt lat="45.28397" lon="5.78622">
        <ele>1933</ele>
        <time>2021-01-16T09:27:36Z</time>
      </trkpt>
      <trkpt lat="45.28397" lon="5.7862">
        <ele>1933.4</ele>
        <time>2021-01-16T09:27:46Z</time>
      </trkpt>
      <trkpt lat="45.28397" lon="5.78622">
        <ele>1933</ele>
        <time>2021-01-16T09:28:03Z</time>
      </trkpt>
      <trkpt lat="45.28395" lon="5.78622">
        <ele>1931.8</ele>
        <time>2021-01-16T09:28:59Z</time>
      </trkpt>
      <trkpt lat="45.28397" lon="5.78623">
        <ele>1932.7</ele>
        <time>2021-01-16T09:29:08Z</time>
      </trkpt>
      <trkpt lat="45.28398" lon="5.78625">
        <ele>1932.9</ele>
        <time>2021-01-16T09:29:27Z</time>
      </trkpt>
      <trkpt lat="45.28399" lon="5.78622">
        <ele>1934.2</ele>
        <time>2021-01-16T09:29:45Z</time>
      </trkpt>
      <trkpt lat="45.284" lon="5.78619">
        <ele>1935.3</ele>
        <time>2021-01-16T09:29:47Z</time>
      </trkpt>
      <trkpt lat="45.28406" lon="5.78616">
        <ele>1968.8</ele>
        <time>2021-01-16T09:29:51Z</time>
      </trkpt>
      <trkpt lat="45.28409" lon="5.78616">
        <ele>1940.5</ele>
        <time>2021-01-16T09:29:52Z</time>
      </trkpt>
      <trkpt lat="45.28412" lon="5.78613">
        <ele>1942</ele>
        <time>2021-01-16T09:29:53Z</time>
      </trkpt>
      <trkpt lat="45.28415" lon="5.7861">
        <ele>1943</ele>
        <time>2021-01-16T09:29:54Z</time>
      </trkpt>
      <trkpt lat="45.28419" lon="5.78607">
        <ele>1942.9</ele>
        <time>2021-01-16T09:29:55Z</time>
      </trkpt>
      <trkpt lat="45.28423" lon="5.78604">
        <ele>1942.1</ele>
        <time>2021-01-16T09:29:56Z</time>
      </trkpt>
      <trkpt lat="45.28427" lon="5.78601">
        <ele>1941.3</ele>
        <time>2021-01-16T09:29:57Z</time>
      </trkpt>
      <trkpt lat="45.28432" lon="5.78597">
        <ele>1940</ele>
        <time>2021-01-16T09:29:58Z</time>
      </trkpt>
      <trkpt lat="45.28437" lon="5.78594">
        <ele>1938.8</ele>
        <time>2021-01-16T09:29:59Z</time>
      </trkpt>
      <trkpt lat="45.28442" lon="5.78592">
        <ele>1938</ele>
        <time>2021-01-16T09:30:00Z</time>
      </trkpt>
      <trkpt lat="45.28447" lon="5.78589">
        <ele>1963.2</ele>
        <time>2021-01-16T09:30:01Z</time>
      </trkpt>
      <trkpt lat="45.28459" lon="5.78584">
        <ele>1934.3</ele>
        <time>2021-01-16T09:30:03Z</time>
      </trkpt>
      <trkpt lat="45.2847" lon="5.78577">
        <ele>1931.7</ele>
        <time>2021-01-16T09:30:05Z</time>
      </trkpt>
      <trkpt lat="45.28481" lon="5.78568">
        <ele>1929.6</ele>
        <time>2021-01-16T09:30:07Z</time>
      </trkpt>
      <trkpt lat="45.28486" lon="5.78563">
        <ele>1928.3</ele>
        <time>2021-01-16T09:30:08Z</time>
      </trkpt>
      <trkpt lat="45.28501" lon="5.7855">
        <ele>1951</ele>
        <time>2021-01-16T09:30:11Z</time>
      </trkpt>
      <trkpt lat="45.28506" lon="5.78547">
        <ele>1924</ele>
        <time>2021-01-16T09:30:12Z</time>
      </trkpt>
      <trkpt lat="45.2851" lon="5.78545">
        <ele>1923.7</ele>
        <time>2021-01-16T09:30:13Z</time>
      </trkpt>
      <trkpt lat="45.28514" lon="5.78543">
        <ele>1923.3</ele>
        <time>2021-01-16T09:30:14Z</time>
      </trkpt>
      <trkpt lat="45.28518" lon="5.78541">
        <ele>1923</ele>
        <time>2021-01-16T09:30:15Z</time>
      </trkpt>
      <trkpt lat="45.28521" lon="5.78539">
        <ele>1922.6</ele>
        <time>2021-01-16T09:30:16Z</time>
      </trkpt>
      <trkpt lat="45.28524" lon="5.78537">
        <ele>1922.2</ele>
        <time>2021-01-16T09:30:17Z</time>
      </trkpt>
      <trkpt lat="45.28527" lon="5.78534">
        <ele>1921.4</ele>
        <time>2021-01-16T09:30:18Z</time>
      </trkpt>
      <trkpt lat="45.28533" lon="5.7853">
        <ele>1920.3</ele>
        <time>2021-01-16T09:30:20Z</time>
      </trkpt>
      <trkpt lat="45.28537" lon="5.78528">
        <ele>1943.4</ele>
        <time>2021-01-16T09:30:21Z</time>
      </trkpt>
      <trkpt lat="45.2854" lon="5.78527">
        <ele>1919.5</ele>
        <time>2021-01-16T09:30:22Z</time>
      </trkpt>
      <trkpt lat="45.28543" lon="5.78525">
        <ele>1918.9</ele>
        <time>2021-01-16T09:30:23Z</time>
      </trkpt>
      <trkpt lat="45.28548" lon="5.78522">
        <ele>1918</ele>
        <time>2021-01-16T09:30:25Z</time>
      </trkpt>
      <trkpt lat="45.28553" lon="5.78519">
        <ele>1917</ele>
        <time>2021-01-16T09:30:27Z</time>
      </trkpt>
      <trkpt lat="45.28555" lon="5.78518">
        <ele>1916.7</ele>
        <time>2021-01-16T09:30:28Z</time>
      </trkpt>
      <trkpt lat="45.28561" lon="5.78515">
        <ele>1915.2</ele>
        <time>2021-01-16T09:30:30Z</time>
      </trkpt>
      <trkpt lat="45.28564" lon="5.78513">
        <ele>1939.6</ele>
        <time>2021-01-16T09:30:31Z</time>
      </trkpt>
      <trkpt lat="45.28567" lon="5.78512">
        <ele>1913.5</ele>
        <time>2021-01-16T09:30:32Z</time>
      </trkpt>
      <trkpt lat="45.28571" lon="5.78511">
        <ele>1912.9</ele>
        <time>2021-01-16T09:30:33Z</time>
      </trkpt>
      <trkpt lat="45.28574" lon="5.78509">
        <ele>1911.8</ele>
        <time>2021-01-16T09:30:34Z</time>
      </trkpt>
      <trkpt lat="45.28577" lon="5.78508">
        <ele>1911.1</ele>
        <time>2021-01-16T09:30:35Z</time>
      </trkpt>
      <trkpt lat="45.28581" lon="5.78507">
        <ele>1910.4</ele>
        <time>2021-01-16T09:30:36Z</time>
      </trkpt>
      <trkpt lat="45.28584" lon="5.78506">
        <ele>1909.8</ele>
        <time>2021-01-16T09:30:37Z</time>
      </trkpt>
      <trkpt lat="45.28593" lon="5.78505">
        <ele>1908.7</ele>
        <time>2021-01-16T09:30:39Z</time>
      </trkpt>
      <trkpt lat="45.28597" lon="5.78505">
        <ele>1908.4</ele>
        <time>2021-01-16T09:30:40Z</time>
      </trkpt>
      <trkpt lat="45.286" lon="5.78505">
        <ele>1933.4</ele>
        <time>2021-01-16T09:30:41Z</time>
      </trkpt>
      <trkpt lat="45.28606" lon="5.78503">
        <ele>1906.9</ele>
        <time>2021-01-16T09:30:43Z</time>
      </trkpt>
      <trkpt lat="45.28602" lon="5.78485">
        <ele>1898.3</ele>
        <time>2021-01-16T09:30:46Z</time>
      </trkpt>
      <trkpt lat="45.28604" lon="5.78479">
        <ele>1895.1</ele>
        <time>2021-01-16T09:30:47Z</time>
      </trkpt>
      <trkpt lat="45.28613" lon="5.78475">
        <ele>1892.2</ele>
        <time>2021-01-16T09:30:49Z</time>
      </trkpt>
      <trkpt lat="45.28623" lon="5.78477">
        <ele>1917.8</ele>
        <time>2021-01-16T09:30:51Z</time>
      </trkpt>
      <trkpt lat="45.28632" lon="5.78472">
        <ele>1888.6</ele>
        <time>2021-01-16T09:30:55Z</time>
      </trkpt>
      <trkpt lat="45.28642" lon="5.78473">
        <ele>1888</ele>
        <time>2021-01-16T09:30:57Z</time>
      </trkpt>
      <trkpt lat="45.28651" lon="5.78472">
        <ele>1886.1</ele>
        <time>2021-01-16T09:31:00Z</time>
      </trkpt>
      <trkpt lat="45.28645" lon="5.78461">
        <ele>1881.5</ele>
        <time>2021-01-16T09:31:03Z</time>
      </trkpt>
      <trkpt lat="45.28641" lon="5.78437">
        <ele>1869.7</ele>
        <time>2021-01-16T09:31:07Z</time>
      </trkpt>
      <trkpt lat="45.28641" lon="5.78432">
        <ele>1867</ele>
        <time>2021-01-16T09:31:08Z</time>
      </trkpt>
      <trkpt lat="45.2865" lon="5.78428">
        <ele>1892.2</ele>
        <time>2021-01-16T09:31:11Z</time>
      </trkpt>
      <trkpt lat="45.28654" lon="5.78426">
        <ele>1862.2</ele>
        <time>2021-01-16T09:31:20Z</time>
      </trkpt>
      <trkpt lat="45.2866" lon="5.78423">
        <ele>1860</ele>
        <time>2021-01-16T09:31:22Z</time>
      </trkpt>
      <trkpt lat="45.28661" lon="5.78421">
        <ele>1858.8</ele>
        <time>2021-01-16T09:31:24Z</time>
      </trkpt>
      <trkpt lat="45.28663" lon="5.78419">
        <ele>1857.6</ele>
        <time>2021-01-16T09:31:26Z</time>
      </trkpt>
      <trkpt lat="45.28665" lon="5.78415">
        <ele>1855.3</ele>
        <time>2021-01-16T09:31:27Z</time>
      </trkpt>
      <trkpt lat="45.28674" lon="5.78404">
        <ele>1848.6</ele>
        <time>2021-01-16T09:31:29Z</time>
      </trkpt>
      <trkpt lat="45.28688" lon="5.78397">
        <ele>1876.2</ele>
        <time>2021-01-16T09:31:31Z</time>
      </trkpt>
      <trkpt lat="45.28697" lon="5.78389">
        <ele>1839</ele>
        <time>2021-01-16T09:31:33Z</time>
      </trkpt>
      <trkpt lat="45.28708" lon="5.78387">
        <ele>1837.6</ele>
        <time>2021-01-16T09:31:35Z</time>
      </trkpt>
      <trkpt lat="45.28707" lon="5.78369">
        <ele>1828.5</ele>
        <time>2021-01-16T09:31:39Z</time>
      </trkpt>
      <trkpt lat="45.2871" lon="5.78352">
        <ele>1857.8</ele>
        <time>2021-01-16T09:31:41Z</time>
      </trkpt>
      <trkpt lat="45.2872" lon="5.7835">
        <ele>1818.5</ele>
        <time>2021-01-16T09:31:42Z</time>
      </trkpt>
      <trkpt lat="45.28731" lon="5.7835">
        <ele>1817.5</ele>
        <time>2021-01-16T09:31:44Z</time>
      </trkpt>
      <trkpt lat="45.28742" lon="5.78348">
        <ele>1815.3</ele>
        <time>2021-01-16T09:31:49Z</time>
      </trkpt>
      <trkpt lat="45.28753" lon="5.78341">
        <ele>1810.7</ele>
        <time>2021-01-16T09:31:53Z</time>
      </trkpt>
      <trkpt lat="45.28764" lon="5.78342">
        <ele>1810.4</ele>
        <time>2021-01-16T09:31:56Z</time>
      </trkpt>
      <trkpt lat="45.28763" lon="5.78345">
        <ele>1811.8</ele>
        <time>2021-01-16T09:31:59Z</time>
      </trkpt>
      <trkpt lat="45.28759" lon="5.78328">
        <ele>1804</ele>
        <time>2021-01-16T09:32:06Z</time>
      </trkpt>
      <trkpt lat="45.28758" lon="5.78312">
        <ele>1796</ele>
        <time>2021-01-16T09:32:08Z</time>
      </trkpt>
      <trkpt lat="45.28757" lon="5.78297">
        <ele>1788.4</ele>
        <time>2021-01-16T09:32:10Z</time>
      </trkpt>
      <trkpt lat="45.28758" lon="5.78283">
        <ele>1781.3</ele>
        <time>2021-01-16T09:32:12Z</time>
      </trkpt>
      <trkpt lat="45.28765" lon="5.78274">
        <ele>1776.5</ele>
        <time>2021-01-16T09:32:14Z</time>
      </trkpt>
      <trkpt lat="45.28776" lon="5.78267">
        <ele>1772.3</ele>
        <time>2021-01-16T09:32:27Z</time>
      </trkpt>
      <trkpt lat="45.28785" lon="5.78265">
        <ele>1769.9</ele>
        <time>2021-01-16T09:32:29Z</time>
      </trkpt>
      <trkpt lat="45.28788" lon="5.78249">
        <ele>1761</ele>
        <time>2021-01-16T09:32:33Z</time>
      </trkpt>
      <trkpt lat="45.28787" lon="5.78234">
        <ele>1753.6</ele>
        <time>2021-01-16T09:32:35Z</time>
      </trkpt>
      <trkpt lat="45.28782" lon="5.78217">
        <ele>1745.6</ele>
        <time>2021-01-16T09:32:37Z</time>
      </trkpt>
      <trkpt lat="45.28781" lon="5.78199">
        <ele>1736.2</ele>
        <time>2021-01-16T09:32:40Z</time>
      </trkpt>
      <trkpt lat="45.2878" lon="5.78186">
        <ele>1729.9</ele>
        <time>2021-01-16T09:32:42Z</time>
      </trkpt>
      <trkpt lat="45.28778" lon="5.78169">
        <ele>1722.1</ele>
        <time>2021-01-16T09:32:45Z</time>
      </trkpt>
      <trkpt lat="45.28779" lon="5.78154">
        <ele>1715</ele>
        <time>2021-01-16T09:32:48Z</time>
      </trkpt>
      <trkpt lat="45.28783" lon="5.78137">
        <ele>1732.6</ele>
        <time>2021-01-16T09:32:51Z</time>
      </trkpt>
      <trkpt lat="45.28786" lon="5.78124">
        <ele>1700.8</ele>
        <time>2021-01-16T09:32:53Z</time>
      </trkpt>
      <trkpt lat="45.2879" lon="5.78108">
        <ele>1693.3</ele>
        <time>2021-01-16T09:32:55Z</time>
      </trkpt>
      <trkpt lat="45.28793" lon="5.7809">
        <ele>1685.2</ele>
        <time>2021-01-16T09:32:57Z</time>
      </trkpt>
      <trkpt lat="45.28794" lon="5.78076">
        <ele>1678.9</ele>
        <time>2021-01-16T09:33:14Z</time>
      </trkpt>
      <trkpt lat="45.28791" lon="5.78062">
        <ele>1673</ele>
        <time>2021-01-16T09:33:16Z</time>
      </trkpt>
      <trkpt lat="45.28792" lon="5.78047">
        <ele>1666.6</ele>
        <time>2021-01-16T09:33:45Z</time>
      </trkpt>
      <trkpt lat="45.28802" lon="5.78043">
        <ele>1663.5</ele>
        <time>2021-01-16T09:33:49Z</time>
      </trkpt>
      <trkpt lat="45.28809" lon="5.78034">
        <ele>1659</ele>
        <time>2021-01-16T09:33:52Z</time>
      </trkpt>
      <trkpt lat="45.28819" lon="5.78026">
        <ele>1654.3</ele>
        <time>2021-01-16T09:33:55Z</time>
      </trkpt>
      <trkpt lat="45.28828" lon="5.78024">
        <ele>1652.2</ele>
        <time>2021-01-16T09:33:58Z</time>
      </trkpt>
      <trkpt lat="45.2884" lon="5.78027">
        <ele>1651.2</ele>
        <time>2021-01-16T09:34:02Z</time>
      </trkpt>
      <trkpt lat="45.28846" lon="5.78005">
        <ele>1640.4</ele>
        <time>2021-01-16T09:34:07Z</time>
      </trkpt>
      <trkpt lat="45.28847" lon="5.77992">
        <ele>1635</ele>
        <time>2021-01-16T09:34:09Z</time>
      </trkpt>
      <trkpt lat="45.28834" lon="5.77972">
        <ele>1629.8</ele>
        <time>2021-01-16T09:34:13Z</time>
      </trkpt>
      <trkpt lat="45.28829" lon="5.77968">
        <ele>1629.4</ele>
        <time>2021-01-16T09:34:14Z</time>
      </trkpt>
      <trkpt lat="45.28816" lon="5.77955">
        <ele>1627.5</ele>
        <time>2021-01-16T09:34:17Z</time>
      </trkpt>
      <trkpt lat="45.28813" lon="5.7795">
        <ele>1626.4</ele>
        <time>2021-01-16T09:34:18Z</time>
      </trkpt>
      <trkpt lat="45.28804" lon="5.77929">
        <ele>1620.1</ele>
        <time>2021-01-16T09:34:22Z</time>
      </trkpt>
      <trkpt lat="45.28805" lon="5.77914">
        <ele>1613.9</ele>
        <time>2021-01-16T09:34:25Z</time>
      </trkpt>
      <trkpt lat="45.28805" lon="5.779">
        <ele>1607.9</ele>
        <time>2021-01-16T09:34:27Z</time>
      </trkpt>
      <trkpt lat="45.28805" lon="5.77887">
        <ele>1602.2</ele>
        <time>2021-01-16T09:34:29Z</time>
      </trkpt>
      <trkpt lat="45.28805" lon="5.77872">
        <ele>1601.6</ele>
        <time>2021-01-16T09:34:31Z</time>
      </trkpt>
      <trkpt lat="45.28803" lon="5.77856">
        <ele>1588.8</ele>
        <time>2021-01-16T09:34:34Z</time>
      </trkpt>
      <trkpt lat="45.28797" lon="5.77843">
        <ele>1582.9</ele>
        <time>2021-01-16T09:34:38Z</time>
      </trkpt>
      <trkpt lat="45.28791" lon="5.77827">
        <ele>1584.2</ele>
        <time>2021-01-16T09:34:41Z</time>
      </trkpt>
      <trkpt lat="45.28786" lon="5.77816">
        <ele>1570.6</ele>
        <time>2021-01-16T09:34:44Z</time>
      </trkpt>
      <trkpt lat="45.28785" lon="5.77798">
        <ele>1562.2</ele>
        <time>2021-01-16T09:34:57Z</time>
      </trkpt>
      <trkpt lat="45.28791" lon="5.77791">
        <ele>1567.6</ele>
        <time>2021-01-16T09:35:01Z</time>
      </trkpt>
      <trkpt lat="45.288" lon="5.77793">
        <ele>1559.3</ele>
        <time>2021-01-16T09:35:12Z</time>
      </trkpt>
      <trkpt lat="45.28808" lon="5.77781">
        <ele>1564.2</ele>
        <time>2021-01-16T09:35:21Z</time>
      </trkpt>
      <trkpt lat="45.28819" lon="5.77769">
        <ele>1547.9</ele>
        <time>2021-01-16T09:35:25Z</time>
      </trkpt>
      <trkpt lat="45.28824" lon="5.77763">
        <ele>1545.1</ele>
        <time>2021-01-16T09:35:27Z</time>
      </trkpt>
      <trkpt lat="45.2883" lon="5.77753">
        <ele>1540.4</ele>
        <time>2021-01-16T09:35:29Z</time>
      </trkpt>
      <trkpt lat="45.28834" lon="5.77738">
        <ele>1533.8</ele>
        <time>2021-01-16T09:35:32Z</time>
      </trkpt>
      <trkpt lat="45.28834" lon="5.77724">
        <ele>1527.8</ele>
        <time>2021-01-16T09:35:34Z</time>
      </trkpt>
      <trkpt lat="45.28825" lon="5.77706">
        <ele>1520.9</ele>
        <time>2021-01-16T09:35:37Z</time>
      </trkpt>
      <trkpt lat="45.28821" lon="5.77701">
        <ele>1519</ele>
        <time>2021-01-16T09:35:38Z</time>
      </trkpt>
      <trkpt lat="45.28814" lon="5.7769">
        <ele>1515</ele>
        <time>2021-01-16T09:35:40Z</time>
      </trkpt>
      <trkpt lat="45.28806" lon="5.77679">
        <ele>1510.9</ele>
        <time>2021-01-16T09:35:42Z</time>
      </trkpt>
      <trkpt lat="45.28795" lon="5.77671">
        <ele>1508.1</ele>
        <time>2021-01-16T09:35:45Z</time>
      </trkpt>
      <trkpt lat="45.28786" lon="5.7767">
        <ele>1508</ele>
        <time>2021-01-16T09:35:47Z</time>
      </trkpt>
      <trkpt lat="45.28774" lon="5.77665">
        <ele>1506.3</ele>
        <time>2021-01-16T09:35:49Z</time>
      </trkpt>
      <trkpt lat="45.28774" lon="5.77649">
        <ele>1500</ele>
        <time>2021-01-16T09:35:52Z</time>
      </trkpt>
      <trkpt lat="45.28781" lon="5.77635">
        <ele>1494.5</ele>
        <time>2021-01-16T09:35:55Z</time>
      </trkpt>
      <trkpt lat="45.28792" lon="5.77624">
        <ele>1490.4</ele>
        <time>2021-01-16T09:35:58Z</time>
      </trkpt>
      <trkpt lat="45.28805" lon="5.77618">
        <ele>1510.6</ele>
        <time>2021-01-16T09:36:01Z</time>
      </trkpt>
      <trkpt lat="45.28812" lon="5.77615">
        <ele>1487.8</ele>
        <time>2021-01-16T09:36:03Z</time>
      </trkpt>
      <trkpt lat="45.28826" lon="5.77611">
        <ele>1487.4</ele>
        <time>2021-01-16T09:36:07Z</time>
      </trkpt>
      <trkpt lat="45.28839" lon="5.77614">
        <ele>1489.1</ele>
        <time>2021-01-16T09:36:09Z</time>
      </trkpt>
      <trkpt lat="45.28851" lon="5.77621">
        <ele>1502.2</ele>
        <time>2021-01-16T09:36:11Z</time>
      </trkpt>
      <trkpt lat="45.28863" lon="5.77622">
        <ele>1492.5</ele>
        <time>2021-01-16T09:36:14Z</time>
      </trkpt>
      <trkpt lat="45.28872" lon="5.77622">
        <ele>1492.4</ele>
        <time>2021-01-16T09:36:16Z</time>
      </trkpt>
      <trkpt lat="45.28883" lon="5.77622">
        <ele>1492.2</ele>
        <time>2021-01-16T09:36:19Z</time>
      </trkpt>
      <trkpt lat="45.28888" lon="5.77604">
        <ele>1486.7</ele>
        <time>2021-01-16T09:36:23Z</time>
      </trkpt>
      <trkpt lat="45.28899" lon="5.776">
        <ele>1482.4</ele>
        <time>2021-01-16T09:36:31Z</time>
      </trkpt>
      <trkpt lat="45.28902" lon="5.77588">
        <ele>1480.5</ele>
        <time>2021-01-16T09:36:38Z</time>
      </trkpt>
      <trkpt lat="45.28901" lon="5.77575">
        <ele>1475.2</ele>
        <time>2021-01-16T09:36:41Z</time>
      </trkpt>
      <trkpt lat="45.28905" lon="5.77561">
        <ele>1472.4</ele>
        <time>2021-01-16T09:36:46Z</time>
      </trkpt>
      <trkpt lat="45.28899" lon="5.77549">
        <ele>1466.2</ele>
        <time>2021-01-16T09:36:51Z</time>
      </trkpt>
      <trkpt lat="45.28894" lon="5.77538">
        <ele>1466.5</ele>
        <time>2021-01-16T09:36:55Z</time>
      </trkpt>
      <trkpt lat="45.28899" lon="5.77525">
        <ele>1462</ele>
        <time>2021-01-16T09:37:02Z</time>
      </trkpt>
      <trkpt lat="45.28897" lon="5.77511">
        <ele>1457.9</ele>
        <time>2021-01-16T09:37:06Z</time>
      </trkpt>
      <trkpt lat="45.28892" lon="5.77499">
        <ele>1454.5</ele>
        <time>2021-01-16T09:37:13Z</time>
      </trkpt>
      <trkpt lat="45.28892" lon="5.77482">
        <ele>1448.9</ele>
        <time>2021-01-16T09:37:17Z</time>
      </trkpt>
      <trkpt lat="45.28896" lon="5.77465">
        <ele>1443</ele>
        <time>2021-01-16T09:37:21Z</time>
      </trkpt>
      <trkpt lat="45.28901" lon="5.77457">
        <ele>1439.9</ele>
        <time>2021-01-16T09:37:29Z</time>
      </trkpt>
      <trkpt lat="45.28895" lon="5.7744">
        <ele>1434.2</ele>
        <time>2021-01-16T09:37:32Z</time>
      </trkpt>
      <trkpt lat="45.28891" lon="5.77427">
        <ele>1429.7</ele>
        <time>2021-01-16T09:37:36Z</time>
      </trkpt>
      <trkpt lat="45.28895" lon="5.77415">
        <ele>1425.4</ele>
        <time>2021-01-16T09:37:40Z</time>
      </trkpt>
      <trkpt lat="45.28899" lon="5.77402">
        <ele>1420.7</ele>
        <time>2021-01-16T09:37:43Z</time>
      </trkpt>
      <trkpt lat="45.28906" lon="5.77392">
        <ele>1417.1</ele>
        <time>2021-01-16T09:37:46Z</time>
      </trkpt>
      <trkpt lat="45.28915" lon="5.7739">
        <ele>1416.4</ele>
        <time>2021-01-16T09:37:50Z</time>
      </trkpt>
      <trkpt lat="45.28908" lon="5.77382">
        <ele>1413.7</ele>
        <time>2021-01-16T09:37:59Z</time>
      </trkpt>
      <trkpt lat="45.28897" lon="5.7737">
        <ele>1409.4</ele>
        <time>2021-01-16T09:38:02Z</time>
      </trkpt>
      <trkpt lat="45.28885" lon="5.77359">
        <ele>1405.2</ele>
        <time>2021-01-16T09:38:04Z</time>
      </trkpt>
      <trkpt lat="45.28875" lon="5.77348">
        <ele>1401.3</ele>
        <time>2021-01-16T09:38:06Z</time>
      </trkpt>
      <trkpt lat="45.28868" lon="5.77331">
        <ele>1395.6</ele>
        <time>2021-01-16T09:38:08Z</time>
      </trkpt>
      <trkpt lat="45.28845" lon="5.77306">
        <ele>1395.8</ele>
        <time>2021-01-16T09:38:11Z</time>
      </trkpt>
      <trkpt lat="45.28836" lon="5.77291">
        <ele>1383.9</ele>
        <time>2021-01-16T09:38:13Z</time>
      </trkpt>
      <trkpt lat="45.28827" lon="5.77288">
        <ele>1383.2</ele>
        <time>2021-01-16T09:38:19Z</time>
      </trkpt>
      <trkpt lat="45.28818" lon="5.77279">
        <ele>1381.3</ele>
        <time>2021-01-16T09:38:22Z</time>
      </trkpt>
      <trkpt lat="45.2881" lon="5.77272">
        <ele>1379.8</ele>
        <time>2021-01-16T09:38:24Z</time>
      </trkpt>
      <trkpt lat="45.28801" lon="5.77263">
        <ele>1377.8</ele>
        <time>2021-01-16T09:38:26Z</time>
      </trkpt>
      <trkpt lat="45.28791" lon="5.77255">
        <ele>1376.1</ele>
        <time>2021-01-16T09:38:28Z</time>
      </trkpt>
      <trkpt lat="45.2878" lon="5.77247">
        <ele>1374.5</ele>
        <time>2021-01-16T09:38:30Z</time>
      </trkpt>
      <trkpt lat="45.28771" lon="5.77239">
        <ele>1373.1</ele>
        <time>2021-01-16T09:38:32Z</time>
      </trkpt>
      <trkpt lat="45.28761" lon="5.77226">
        <ele>1371.2</ele>
        <time>2021-01-16T09:38:34Z</time>
      </trkpt>
      <trkpt lat="45.28757" lon="5.77207">
        <ele>1368.6</ele>
        <time>2021-01-16T09:38:36Z</time>
      </trkpt>
      <trkpt lat="45.2875" lon="5.77186">
        <ele>1365.8</ele>
        <time>2021-01-16T09:38:38Z</time>
      </trkpt>
      <trkpt lat="45.28744" lon="5.77161">
        <ele>1362.8</ele>
        <time>2021-01-16T09:38:40Z</time>
      </trkpt>
      <trkpt lat="45.28736" lon="5.77145">
        <ele>1361.3</ele>
        <time>2021-01-16T09:38:42Z</time>
      </trkpt>
      <trkpt lat="45.28733" lon="5.77126">
        <ele>1358.3</ele>
        <time>2021-01-16T09:38:44Z</time>
      </trkpt>
      <trkpt lat="45.28742" lon="5.7713">
        <ele>1355.4</ele>
        <time>2021-01-16T09:39:01Z</time>
      </trkpt>
      <trkpt lat="45.28752" lon="5.77134">
        <ele>1356</ele>
        <time>2021-01-16T09:39:11Z</time>
      </trkpt>
      <trkpt lat="45.2876" lon="5.7714">
        <ele>1359.8</ele>
        <time>2021-01-16T09:40:23Z</time>
      </trkpt>
      <trkpt lat="45.28768" lon="5.77146">
        <ele>1360.1</ele>
        <time>2021-01-16T09:40:59Z</time>
      </trkpt>
      <trkpt lat="45.28778" lon="5.77141">
        <ele>1359.2</ele>
        <time>2021-01-16T09:41:40Z</time>
      </trkpt>
      <trkpt lat="45.28777" lon="5.77154">
        <ele>1360.7</ele>
        <time>2021-01-16T09:42:29Z</time>
      </trkpt>
      <trkpt lat="45.28781" lon="5.77145">
        <ele>1359.5</ele>
        <time>2021-01-16T09:42:59Z</time>
      </trkpt>
      <trkpt lat="45.28782" lon="5.77147">
        <ele>1359.7</ele>
        <time>2021-01-16T09:43:07Z</time>
      </trkpt>
      <trkpt lat="45.28785" lon="5.77157">
        <ele>1360.7</ele>
        <time>2021-01-16T09:43:16Z</time>
      </trkpt>
      <trkpt lat="45.28788" lon="5.77157">
        <ele>1359.4</ele>
        <time>2021-01-16T09:43:31Z</time>
      </trkpt>
      <trkpt lat="45.2879" lon="5.77154">
        <ele>1360.2</ele>
        <time>2021-01-16T09:43:39Z</time>
      </trkpt>
      <trkpt lat="45.28791" lon="5.77153">
        <ele>1360</ele>
        <time>2021-01-16T09:43:48Z</time>
      </trkpt>
      <trkpt lat="45.2879" lon="5.7715">
        <ele>1359.8</ele>
        <time>2021-01-16T09:44:07Z</time>
      </trkpt>
      <trkpt lat="45.28792" lon="5.77152">
        <ele>1359.9</ele>
        <time>2021-01-16T09:45:05Z</time>
      </trkpt>
      <trkpt lat="45.28791" lon="5.77154">
        <ele>1360.2</ele>
        <time>2021-01-16T09:45:07Z</time>
      </trkpt>
      <trkpt lat="45.2879" lon="5.77158">
        <ele>1360.6</ele>
        <time>2021-01-16T09:45:10Z</time>
      </trkpt>
      <trkpt lat="45.2879" lon="5.77161">
        <ele>1360.9</ele>
        <time>2021-01-16T09:45:13Z</time>
      </trkpt>
      <trkpt lat="45.28789" lon="5.77166">
        <ele>1361.5</ele>
        <time>2021-01-16T09:45:17Z</time>
      </trkpt>
      <trkpt lat="45.28789" lon="5.77168">
        <ele>1361.8</ele>
        <time>2021-01-16T09:45:19Z</time>
      </trkpt>
      <trkpt lat="45.28789" lon="5.7717">
        <ele>1362.6</ele>
        <time>2021-01-16T09:45:21Z</time>
      </trkpt>
      <trkpt lat="45.2879" lon="5.77173">
        <ele>1362.6</ele>
        <time>2021-01-16T09:45:25Z</time>
      </trkpt>
      <trkpt lat="45.28789" lon="5.77176">
        <ele>1363.1</ele>
        <time>2021-01-16T09:45:29Z</time>
      </trkpt>
      <trkpt lat="45.28789" lon="5.77178">
        <ele>1363.4</ele>
        <time>2021-01-16T09:45:32Z</time>
      </trkpt>
      <trkpt lat="45.28789" lon="5.77182">
        <ele>1364</ele>
        <time>2021-01-16T09:45:35Z</time>
      </trkpt>
      <trkpt lat="45.28789" lon="5.77185">
        <ele>1364.5</ele>
        <time>2021-01-16T09:45:38Z</time>
      </trkpt>
      <trkpt lat="45.28788" lon="5.77192">
        <ele>1365.6</ele>
        <time>2021-01-16T09:45:43Z</time>
      </trkpt>
      <trkpt lat="45.28783" lon="5.77204">
        <ele>1367.4</ele>
        <time>2021-01-16T09:45:52Z</time>
      </trkpt>
      <trkpt lat="45.28782" lon="5.77207">
        <ele>1367.8</ele>
        <time>2021-01-16T09:45:55Z</time>
      </trkpt>
      <trkpt lat="45.28781" lon="5.77212">
        <ele>1368.5</ele>
        <time>2021-01-16T09:46:05Z</time>
      </trkpt>
      <trkpt lat="45.2878" lon="5.77216">
        <ele>1369.1</ele>
        <time>2021-01-16T09:46:08Z</time>
      </trkpt>
      <trkpt lat="45.28779" lon="5.77218">
        <ele>1369.4</ele>
        <time>2021-01-16T09:46:10Z</time>
      </trkpt>
      <trkpt lat="45.28777" lon="5.77222">
        <ele>1370</ele>
        <time>2021-01-16T09:46:13Z</time>
      </trkpt>
      <trkpt lat="45.28777" lon="5.77224">
        <ele>1370.3</ele>
        <time>2021-01-16T09:46:14Z</time>
      </trkpt>
      <trkpt lat="45.28775" lon="5.77227">
        <ele>1370.9</ele>
        <time>2021-01-16T09:46:17Z</time>
      </trkpt>
      <trkpt lat="45.28773" lon="5.7723">
        <ele>1371.5</ele>
        <time>2021-01-16T09:46:19Z</time>
      </trkpt>
      <trkpt lat="45.28773" lon="5.77231">
        <ele>1371.7</ele>
        <time>2021-01-16T09:46:20Z</time>
      </trkpt>
      <trkpt lat="45.28771" lon="5.77234">
        <ele>1372.3</ele>
        <time>2021-01-16T09:46:22Z</time>
      </trkpt>
      <trkpt lat="45.28769" lon="5.77236">
        <ele>1372.6</ele>
        <time>2021-01-16T09:46:24Z</time>
      </trkpt>
      <trkpt lat="45.28767" lon="5.77239">
        <ele>1373.2</ele>
        <time>2021-01-16T09:46:27Z</time>
      </trkpt>
      <trkpt lat="45.28765" lon="5.77241">
        <ele>1376</ele>
        <time>2021-01-16T09:46:31Z</time>
      </trkpt>
      <trkpt lat="45.28763" lon="5.77242">
        <ele>1373.7</ele>
        <time>2021-01-16T09:46:33Z</time>
      </trkpt>
      <trkpt lat="45.28762" lon="5.77244">
        <ele>1374</ele>
        <time>2021-01-16T09:46:35Z</time>
      </trkpt>
      <trkpt lat="45.28761" lon="5.77246">
        <ele>1374.4</ele>
        <time>2021-01-16T09:46:37Z</time>
      </trkpt>
      <trkpt lat="45.28759" lon="5.77249">
        <ele>1374.8</ele>
        <time>2021-01-16T09:46:39Z</time>
      </trkpt>
      <trkpt lat="45.28758" lon="5.7725">
        <ele>1377</ele>
        <time>2021-01-16T09:46:41Z</time>
      </trkpt>
      <trkpt lat="45.28757" lon="5.77253">
        <ele>1375.6</ele>
        <time>2021-01-16T09:46:44Z</time>
      </trkpt>
      <trkpt lat="45.28755" lon="5.77256">
        <ele>1376.3</ele>
        <time>2021-01-16T09:46:46Z</time>
      </trkpt>
      <trkpt lat="45.28753" lon="5.77259">
        <ele>1376.9</ele>
        <time>2021-01-16T09:46:49Z</time>
      </trkpt>
      <trkpt lat="45.28753" lon="5.77261">
        <ele>1380</ele>
        <time>2021-01-16T09:46:51Z</time>
      </trkpt>
      <trkpt lat="45.28751" lon="5.77264">
        <ele>1378</ele>
        <time>2021-01-16T09:46:53Z</time>
      </trkpt>
      <trkpt lat="45.2875" lon="5.77266">
        <ele>1378.5</ele>
        <time>2021-01-16T09:46:56Z</time>
      </trkpt>
      <trkpt lat="45.28749" lon="5.77268">
        <ele>1378.9</ele>
        <time>2021-01-16T09:46:59Z</time>
      </trkpt>
      <trkpt lat="45.28747" lon="5.77271">
        <ele>1379.7</ele>
        <time>2021-01-16T09:47:02Z</time>
      </trkpt>
      <trkpt lat="45.28746" lon="5.77274">
        <ele>1380.3</ele>
        <time>2021-01-16T09:47:05Z</time>
      </trkpt>
      <trkpt lat="45.28746" lon="5.77277">
        <ele>1381</ele>
        <time>2021-01-16T09:47:08Z</time>
      </trkpt>
      <trkpt lat="45.28745" lon="5.77279">
        <ele>1381.5</ele>
        <time>2021-01-16T09:47:10Z</time>
      </trkpt>
      <trkpt lat="45.28743" lon="5.77281">
        <ele>1382</ele>
        <time>2021-01-16T09:47:12Z</time>
      </trkpt>
      <trkpt lat="45.28742" lon="5.77284">
        <ele>1382.7</ele>
        <time>2021-01-16T09:47:14Z</time>
      </trkpt>
      <trkpt lat="45.2874" lon="5.77286">
        <ele>1383.2</ele>
        <time>2021-01-16T09:47:16Z</time>
      </trkpt>
      <trkpt lat="45.28739" lon="5.77288">
        <ele>1383.7</ele>
        <time>2021-01-16T09:47:18Z</time>
      </trkpt>
      <trkpt lat="45.28736" lon="5.77293">
        <ele>1385.1</ele>
        <time>2021-01-16T09:47:22Z</time>
      </trkpt>
      <trkpt lat="45.28735" lon="5.77294">
        <ele>1385.4</ele>
        <time>2021-01-16T09:47:24Z</time>
      </trkpt>
      <trkpt lat="45.28733" lon="5.77297">
        <ele>1386.2</ele>
        <time>2021-01-16T09:47:27Z</time>
      </trkpt>
      <trkpt lat="45.28732" lon="5.773">
        <ele>1387</ele>
        <time>2021-01-16T09:47:30Z</time>
      </trkpt>
      <trkpt lat="45.28731" lon="5.77302">
        <ele>1387.5</ele>
        <time>2021-01-16T09:47:32Z</time>
      </trkpt>
      <trkpt lat="45.2873" lon="5.77305">
        <ele>1388.3</ele>
        <time>2021-01-16T09:47:34Z</time>
      </trkpt>
      <trkpt lat="45.28728" lon="5.77308">
        <ele>1389.1</ele>
        <time>2021-01-16T09:47:38Z</time>
      </trkpt>
      <trkpt lat="45.28727" lon="5.77311">
        <ele>1389.8</ele>
        <time>2021-01-16T09:47:40Z</time>
      </trkpt>
      <trkpt lat="45.28726" lon="5.77314">
        <ele>1390.6</ele>
        <time>2021-01-16T09:47:43Z</time>
      </trkpt>
      <trkpt lat="45.28724" lon="5.77317">
        <ele>1391.3</ele>
        <time>2021-01-16T09:47:46Z</time>
      </trkpt>
      <trkpt lat="45.28723" lon="5.77318">
        <ele>1391.6</ele>
        <time>2021-01-16T09:47:47Z</time>
      </trkpt>
      <trkpt lat="45.28722" lon="5.77321">
        <ele>1392.4</ele>
        <time>2021-01-16T09:47:50Z</time>
      </trkpt>
      <trkpt lat="45.28721" lon="5.77323">
        <ele>1392.9</ele>
        <time>2021-01-16T09:47:53Z</time>
      </trkpt>
      <trkpt lat="45.28718" lon="5.77326">
        <ele>1393.9</ele>
        <time>2021-01-16T09:47:56Z</time>
      </trkpt>
      <trkpt lat="45.28716" lon="5.77329">
        <ele>1394.7</ele>
        <time>2021-01-16T09:47:59Z</time>
      </trkpt>
      <trkpt lat="45.28714" lon="5.7733">
        <ele>1397</ele>
        <time>2021-01-16T09:48:01Z</time>
      </trkpt>
      <trkpt lat="45.28712" lon="5.77331">
        <ele>1395.6</ele>
        <time>2021-01-16T09:48:03Z</time>
      </trkpt>
      <trkpt lat="45.28711" lon="5.77332">
        <ele>1395.9</ele>
        <time>2021-01-16T09:48:05Z</time>
      </trkpt>
      <trkpt lat="45.28709" lon="5.77334">
        <ele>1396.6</ele>
        <time>2021-01-16T09:48:07Z</time>
      </trkpt>
      <trkpt lat="45.28707" lon="5.77335">
        <ele>1397</ele>
        <time>2021-01-16T09:48:09Z</time>
      </trkpt>
      <trkpt lat="45.28705" lon="5.77336">
        <ele>1397.5</ele>
        <time>2021-01-16T09:48:12Z</time>
      </trkpt>
      <trkpt lat="45.28703" lon="5.77338">
        <ele>1398.1</ele>
        <time>2021-01-16T09:48:15Z</time>
      </trkpt>
      <trkpt lat="45.28703" lon="5.7734">
        <ele>1398.6</ele>
        <time>2021-01-16T09:48:17Z</time>
      </trkpt>
      <trkpt lat="45.28703" lon="5.77344">
        <ele>1399.5</ele>
        <time>2021-01-16T09:48:22Z</time>
      </trkpt>
      <trkpt lat="45.28703" lon="5.77347">
        <ele>1400.2</ele>
        <time>2021-01-16T09:48:26Z</time>
      </trkpt>
      <trkpt lat="45.28703" lon="5.7735">
        <ele>1400.9</ele>
        <time>2021-01-16T09:48:29Z</time>
      </trkpt>
      <trkpt lat="45.28704" lon="5.77354">
        <ele>1401.7</ele>
        <time>2021-01-16T09:48:32Z</time>
      </trkpt>
      <trkpt lat="45.28703" lon="5.77365">
        <ele>1404.3</ele>
        <time>2021-01-16T09:48:40Z</time>
      </trkpt>
      <trkpt lat="45.28699" lon="5.77366">
        <ele>1404.8</ele>
        <time>2021-01-16T09:48:43Z</time>
      </trkpt>
      <trkpt lat="45.28698" lon="5.77366">
        <ele>1404.8</ele>
        <time>2021-01-16T09:48:44Z</time>
      </trkpt>
      <trkpt lat="45.28696" lon="5.77367">
        <ele>1405.2</ele>
        <time>2021-01-16T09:48:47Z</time>
      </trkpt>
      <trkpt lat="45.28694" lon="5.77368">
        <ele>1405.6</ele>
        <time>2021-01-16T09:48:50Z</time>
      </trkpt>
      <trkpt lat="45.28692" lon="5.77371">
        <ele>1406.5</ele>
        <time>2021-01-16T09:48:54Z</time>
      </trkpt>
      <trkpt lat="45.2869" lon="5.77371">
        <ele>1406.8</ele>
        <time>2021-01-16T09:48:56Z</time>
      </trkpt>
      <trkpt lat="45.28689" lon="5.77372">
        <ele>1407.1</ele>
        <time>2021-01-16T09:48:59Z</time>
      </trkpt>
      <trkpt lat="45.28686" lon="5.77373">
        <ele>1407.8</ele>
        <time>2021-01-16T09:49:02Z</time>
      </trkpt>
      <trkpt lat="45.28684" lon="5.77374">
        <ele>1408.3</ele>
        <time>2021-01-16T09:49:04Z</time>
      </trkpt>
      <trkpt lat="45.28682" lon="5.77377">
        <ele>1409.2</ele>
        <time>2021-01-16T09:49:07Z</time>
      </trkpt>
      <trkpt lat="45.28681" lon="5.77378">
        <ele>1409.6</ele>
        <time>2021-01-16T09:49:09Z</time>
      </trkpt>
      <trkpt lat="45.28679" lon="5.7738">
        <ele>1410.3</ele>
        <time>2021-01-16T09:49:12Z</time>
      </trkpt>
      <trkpt lat="45.28676" lon="5.77381">
        <ele>1411</ele>
        <time>2021-01-16T09:49:15Z</time>
      </trkpt>
      <trkpt lat="45.28673" lon="5.77382">
        <ele>1411.6</ele>
        <time>2021-01-16T09:49:19Z</time>
      </trkpt>
      <trkpt lat="45.28672" lon="5.77383">
        <ele>1416.6</ele>
        <time>2021-01-16T09:49:21Z</time>
      </trkpt>
      <trkpt lat="45.28669" lon="5.77386">
        <ele>1413</ele>
        <time>2021-01-16T09:49:25Z</time>
      </trkpt>
      <trkpt lat="45.28668" lon="5.77387">
        <ele>1413.4</ele>
        <time>2021-01-16T09:49:26Z</time>
      </trkpt>
      <trkpt lat="45.28666" lon="5.77388">
        <ele>1413.9</ele>
        <time>2021-01-16T09:49:28Z</time>
      </trkpt>
      <trkpt lat="45.28664" lon="5.7739">
        <ele>1414.7</ele>
        <time>2021-01-16T09:49:30Z</time>
      </trkpt>
      <trkpt lat="45.28662" lon="5.77392">
        <ele>1415.5</ele>
        <time>2021-01-16T09:49:32Z</time>
      </trkpt>
      <trkpt lat="45.2866" lon="5.77393">
        <ele>1416</ele>
        <time>2021-01-16T09:49:35Z</time>
      </trkpt>
      <trkpt lat="45.28658" lon="5.77395">
        <ele>1416.8</ele>
        <time>2021-01-16T09:49:38Z</time>
      </trkpt>
      <trkpt lat="45.28655" lon="5.77396">
        <ele>1422.2</ele>
        <time>2021-01-16T09:49:41Z</time>
      </trkpt>
      <trkpt lat="45.28653" lon="5.77397">
        <ele>1418</ele>
        <time>2021-01-16T09:49:44Z</time>
      </trkpt>
      <trkpt lat="45.28652" lon="5.77396">
        <ele>1417.9</ele>
        <time>2021-01-16T09:49:46Z</time>
      </trkpt>
      <trkpt lat="45.28649" lon="5.77399">
        <ele>1423.8</ele>
        <time>2021-01-16T09:49:51Z</time>
      </trkpt>
      <trkpt lat="45.28647" lon="5.77401">
        <ele>1419.9</ele>
        <time>2021-01-16T09:49:53Z</time>
      </trkpt>
      <trkpt lat="45.28646" lon="5.77401">
        <ele>1420</ele>
        <time>2021-01-16T09:49:54Z</time>
      </trkpt>
      <trkpt lat="45.28644" lon="5.77403">
        <ele>1420.8</ele>
        <time>2021-01-16T09:49:56Z</time>
      </trkpt>
      <trkpt lat="45.28643" lon="5.77406">
        <ele>1421.7</ele>
        <time>2021-01-16T09:50:09Z</time>
      </trkpt>
      <trkpt lat="45.28643" lon="5.77409">
        <ele>1422.5</ele>
        <time>2021-01-16T09:50:47Z</time>
      </trkpt>
      <trkpt lat="45.28642" lon="5.77411">
        <ele>1423.1</ele>
        <time>2021-01-16T09:50:49Z</time>
      </trkpt>
      <trkpt lat="45.28641" lon="5.77414">
        <ele>1424</ele>
        <time>2021-01-16T09:50:52Z</time>
      </trkpt>
      <trkpt lat="45.28641" lon="5.77417">
        <ele>1424.8</ele>
        <time>2021-01-16T09:50:55Z</time>
      </trkpt>
      <trkpt lat="45.2864" lon="5.7742">
        <ele>1425.8</ele>
        <time>2021-01-16T09:50:58Z</time>
      </trkpt>
      <trkpt lat="45.2864" lon="5.77423">
        <ele>1426.7</ele>
        <time>2021-01-16T09:51:02Z</time>
      </trkpt>
      <trkpt lat="45.2864" lon="5.77426">
        <ele>1427.5</ele>
        <time>2021-01-16T09:51:07Z</time>
      </trkpt>
      <trkpt lat="45.28641" lon="5.77429">
        <ele>1433.6</ele>
        <time>2021-01-16T09:51:11Z</time>
      </trkpt>
      <trkpt lat="45.28641" lon="5.77432">
        <ele>1429.1</ele>
        <time>2021-01-16T09:51:15Z</time>
      </trkpt>
      <trkpt lat="45.28641" lon="5.77435">
        <ele>1429.9</ele>
        <time>2021-01-16T09:51:19Z</time>
      </trkpt>
      <trkpt lat="45.28641" lon="5.77438">
        <ele>1430.8</ele>
        <time>2021-01-16T09:51:23Z</time>
      </trkpt>
      <trkpt lat="45.28641" lon="5.77441">
        <ele>1431.6</ele>
        <time>2021-01-16T09:51:26Z</time>
      </trkpt>
      <trkpt lat="45.28643" lon="5.77444">
        <ele>1432.1</ele>
        <time>2021-01-16T09:51:30Z</time>
      </trkpt>
      <trkpt lat="45.28644" lon="5.77446">
        <ele>1432.5</ele>
        <time>2021-01-16T09:51:33Z</time>
      </trkpt>
      <trkpt lat="45.28644" lon="5.77449">
        <ele>1433.4</ele>
        <time>2021-01-16T09:51:37Z</time>
      </trkpt>
      <trkpt lat="45.28645" lon="5.77452">
        <ele>1439.8</ele>
        <time>2021-01-16T09:51:41Z</time>
      </trkpt>
      <trkpt lat="45.28644" lon="5.77455">
        <ele>1435.1</ele>
        <time>2021-01-16T09:51:44Z</time>
      </trkpt>
      <trkpt lat="45.28644" lon="5.77458">
        <ele>1435.9</ele>
        <time>2021-01-16T09:51:48Z</time>
      </trkpt>
      <trkpt lat="45.28646" lon="5.7746">
        <ele>1436.1</ele>
        <time>2021-01-16T09:51:52Z</time>
      </trkpt>
      <trkpt lat="45.28646" lon="5.77463">
        <ele>1436.9</ele>
        <time>2021-01-16T09:51:55Z</time>
      </trkpt>
      <trkpt lat="45.28647" lon="5.77467">
        <ele>1437.8</ele>
        <time>2021-01-16T09:51:58Z</time>
      </trkpt>
      <trkpt lat="45.28647" lon="5.7747">
        <ele>1443.4</ele>
        <time>2021-01-16T09:52:01Z</time>
      </trkpt>
      <trkpt lat="45.28647" lon="5.77473">
        <ele>1439.4</ele>
        <time>2021-01-16T09:52:04Z</time>
      </trkpt>
      <trkpt lat="45.28648" lon="5.77475">
        <ele>1439.7</ele>
        <time>2021-01-16T09:52:07Z</time>
      </trkpt>
      <trkpt lat="45.28649" lon="5.77478">
        <ele>1440.3</ele>
        <time>2021-01-16T09:52:10Z</time>
      </trkpt>
      <trkpt lat="45.2865" lon="5.77481">
        <ele>1440.8</ele>
        <time>2021-01-16T09:52:13Z</time>
      </trkpt>
      <trkpt lat="45.2865" lon="5.77484">
        <ele>1441.6</ele>
        <time>2021-01-16T09:52:16Z</time>
      </trkpt>
      <trkpt lat="45.28651" lon="5.77487">
        <ele>1442.1</ele>
        <time>2021-01-16T09:52:19Z</time>
      </trkpt>
      <trkpt lat="45.28651" lon="5.7749">
        <ele>1442.9</ele>
        <time>2021-01-16T09:52:22Z</time>
      </trkpt>
      <trkpt lat="45.28651" lon="5.77494">
        <ele>1443.9</ele>
        <time>2021-01-16T09:52:25Z</time>
      </trkpt>
      <trkpt lat="45.28651" lon="5.77496">
        <ele>1444.4</ele>
        <time>2021-01-16T09:52:28Z</time>
      </trkpt>
      <trkpt lat="45.2865" lon="5.77499">
        <ele>1451</ele>
        <time>2021-01-16T09:52:31Z</time>
      </trkpt>
      <trkpt lat="45.28648" lon="5.775">
        <ele>1446</ele>
        <time>2021-01-16T09:52:35Z</time>
      </trkpt>
      <trkpt lat="45.28646" lon="5.77499">
        <ele>1446.2</ele>
        <time>2021-01-16T09:52:38Z</time>
      </trkpt>
      <trkpt lat="45.28644" lon="5.775">
        <ele>1446.9</ele>
        <time>2021-01-16T09:52:42Z</time>
      </trkpt>
      <trkpt lat="45.28643" lon="5.77502">
        <ele>1456</ele>
        <time>2021-01-16T09:52:51Z</time>
      </trkpt>
      <trkpt lat="45.2864" lon="5.77502">
        <ele>1448.3</ele>
        <time>2021-01-16T09:52:54Z</time>
      </trkpt>
      <trkpt lat="45.28638" lon="5.77502">
        <ele>1448.8</ele>
        <time>2021-01-16T09:52:56Z</time>
      </trkpt>
      <trkpt lat="45.28636" lon="5.77502">
        <ele>1449.3</ele>
        <time>2021-01-16T09:52:58Z</time>
      </trkpt>
      <trkpt lat="45.28635" lon="5.77503">
        <ele>1449.8</ele>
        <time>2021-01-16T09:53:00Z</time>
      </trkpt>
      <trkpt lat="45.28633" lon="5.77503">
        <ele>1450.3</ele>
        <time>2021-01-16T09:53:02Z</time>
      </trkpt>
      <trkpt lat="45.2863" lon="5.77502">
        <ele>1450.8</ele>
        <time>2021-01-16T09:53:04Z</time>
      </trkpt>
      <trkpt lat="45.28628" lon="5.77503">
        <ele>1451.6</ele>
        <time>2021-01-16T09:53:07Z</time>
      </trkpt>
      <trkpt lat="45.28626" lon="5.77504">
        <ele>1452.4</ele>
        <time>2021-01-16T09:53:10Z</time>
      </trkpt>
      <trkpt lat="45.28624" lon="5.77504">
        <ele>1452.9</ele>
        <time>2021-01-16T09:53:13Z</time>
      </trkpt>
      <trkpt lat="45.28622" lon="5.77505">
        <ele>1453.7</ele>
        <time>2021-01-16T09:53:16Z</time>
      </trkpt>
      <trkpt lat="45.2862" lon="5.77505">
        <ele>1454.2</ele>
        <time>2021-01-16T09:53:18Z</time>
      </trkpt>
      <trkpt lat="45.28617" lon="5.77505">
        <ele>1455</ele>
        <time>2021-01-16T09:53:20Z</time>
      </trkpt>
      <trkpt lat="45.28615" lon="5.77505">
        <ele>1455.5</ele>
        <time>2021-01-16T09:53:23Z</time>
      </trkpt>
      <trkpt lat="45.28613" lon="5.77506">
        <ele>1456.3</ele>
        <time>2021-01-16T09:53:26Z</time>
      </trkpt>
      <trkpt lat="45.28612" lon="5.77509">
        <ele>1457.4</ele>
        <time>2021-01-16T09:53:33Z</time>
      </trkpt>
      <trkpt lat="45.28613" lon="5.77511">
        <ele>1457.7</ele>
        <time>2021-01-16T09:53:39Z</time>
      </trkpt>
      <trkpt lat="45.28613" lon="5.77514">
        <ele>1458.6</ele>
        <time>2021-01-16T09:53:42Z</time>
      </trkpt>
      <trkpt lat="45.28613" lon="5.77517">
        <ele>1459.4</ele>
        <time>2021-01-16T09:53:46Z</time>
      </trkpt>
      <trkpt lat="45.28613" lon="5.7752">
        <ele>1460.3</ele>
        <time>2021-01-16T09:53:52Z</time>
      </trkpt>
      <trkpt lat="45.28613" lon="5.77522">
        <ele>1460.9</ele>
        <time>2021-01-16T09:53:55Z</time>
      </trkpt>
      <trkpt lat="45.28613" lon="5.77526">
        <ele>1462</ele>
        <time>2021-01-16T09:53:58Z</time>
      </trkpt>
      <trkpt lat="45.28612" lon="5.77528">
        <ele>1462.8</ele>
        <time>2021-01-16T09:54:00Z</time>
      </trkpt>
      <trkpt lat="45.2861" lon="5.77529">
        <ele>1463.6</ele>
        <time>2021-01-16T09:54:02Z</time>
      </trkpt>
      <trkpt lat="45.28608" lon="5.7753">
        <ele>1464.3</ele>
        <time>2021-01-16T09:54:04Z</time>
      </trkpt>
      <trkpt lat="45.28606" lon="5.77531">
        <ele>1465.1</ele>
        <time>2021-01-16T09:54:06Z</time>
      </trkpt>
      <trkpt lat="45.28604" lon="5.77533">
        <ele>1466.1</ele>
        <time>2021-01-16T09:54:09Z</time>
      </trkpt>
      <trkpt lat="45.28602" lon="5.77532">
        <ele>1471</ele>
        <time>2021-01-16T09:54:11Z</time>
      </trkpt>
      <trkpt lat="45.28599" lon="5.77533">
        <ele>1467.4</ele>
        <time>2021-01-16T09:54:14Z</time>
      </trkpt>
      <trkpt lat="45.28597" lon="5.77535">
        <ele>1468.4</ele>
        <time>2021-01-16T09:54:17Z</time>
      </trkpt>
      <trkpt lat="45.28595" lon="5.77536">
        <ele>1469.1</ele>
        <time>2021-01-16T09:54:20Z</time>
      </trkpt>
      <trkpt lat="45.28593" lon="5.77536">
        <ele>1469.6</ele>
        <time>2021-01-16T09:54:23Z</time>
      </trkpt>
      <trkpt lat="45.28591" lon="5.77537">
        <ele>1470.4</ele>
        <time>2021-01-16T09:54:25Z</time>
      </trkpt>
      <trkpt lat="45.28591" lon="5.7754">
        <ele>1471.1</ele>
        <time>2021-01-16T09:54:30Z</time>
      </trkpt>
      <trkpt lat="45.28591" lon="5.77543">
        <ele>1471.9</ele>
        <time>2021-01-16T09:54:33Z</time>
      </trkpt>
      <trkpt lat="45.2859" lon="5.77546">
        <ele>1472.9</ele>
        <time>2021-01-16T09:54:37Z</time>
      </trkpt>
      <trkpt lat="45.2859" lon="5.77549">
        <ele>1473.7</ele>
        <time>2021-01-16T09:54:39Z</time>
      </trkpt>
      <trkpt lat="45.2859" lon="5.77552">
        <ele>1474.4</ele>
        <time>2021-01-16T09:54:42Z</time>
      </trkpt>
      <trkpt lat="45.28591" lon="5.77555">
        <ele>1474.9</ele>
        <time>2021-01-16T09:54:45Z</time>
      </trkpt>
      <trkpt lat="45.28592" lon="5.77557">
        <ele>1475.2</ele>
        <time>2021-01-16T09:54:48Z</time>
      </trkpt>
      <trkpt lat="45.28593" lon="5.7756">
        <ele>1475.7</ele>
        <time>2021-01-16T09:54:50Z</time>
      </trkpt>
      <trkpt lat="45.28594" lon="5.77564">
        <ele>1476.4</ele>
        <time>2021-01-16T09:54:53Z</time>
      </trkpt>
      <trkpt lat="45.28595" lon="5.77567">
        <ele>1476.9</ele>
        <time>2021-01-16T09:54:56Z</time>
      </trkpt>
      <trkpt lat="45.28595" lon="5.7757">
        <ele>1477.7</ele>
        <time>2021-01-16T09:55:00Z</time>
      </trkpt>
      <trkpt lat="45.28596" lon="5.77573">
        <ele>1478.2</ele>
        <time>2021-01-16T09:55:03Z</time>
      </trkpt>
      <trkpt lat="45.28597" lon="5.77576">
        <ele>1478.7</ele>
        <time>2021-01-16T09:55:05Z</time>
      </trkpt>
      <trkpt lat="45.28597" lon="5.77579">
        <ele>1479.5</ele>
        <time>2021-01-16T09:55:07Z</time>
      </trkpt>
      <trkpt lat="45.28595" lon="5.7758">
        <ele>1480.2</ele>
        <time>2021-01-16T09:55:12Z</time>
      </trkpt>
      <trkpt lat="45.28593" lon="5.77581">
        <ele>1481</ele>
        <time>2021-01-16T09:55:14Z</time>
      </trkpt>
      <trkpt lat="45.28591" lon="5.77581">
        <ele>1481.5</ele>
        <time>2021-01-16T09:55:17Z</time>
      </trkpt>
      <trkpt lat="45.28589" lon="5.77581">
        <ele>1482</ele>
        <time>2021-01-16T09:55:19Z</time>
      </trkpt>
      <trkpt lat="45.28587" lon="5.77581">
        <ele>1487.2</ele>
        <time>2021-01-16T09:55:21Z</time>
      </trkpt>
      <trkpt lat="45.28584" lon="5.77581">
        <ele>1483.2</ele>
        <time>2021-01-16T09:55:24Z</time>
      </trkpt>
      <trkpt lat="45.28582" lon="5.77582">
        <ele>1484</ele>
        <time>2021-01-16T09:55:26Z</time>
      </trkpt>
      <trkpt lat="45.2858" lon="5.77582">
        <ele>1484.4</ele>
        <time>2021-01-16T09:55:28Z</time>
      </trkpt>
      <trkpt lat="45.28578" lon="5.77584">
        <ele>1490</ele>
        <time>2021-01-16T09:55:31Z</time>
      </trkpt>
      <trkpt lat="45.28576" lon="5.77584">
        <ele>1485.7</ele>
        <time>2021-01-16T09:55:33Z</time>
      </trkpt>
      <trkpt lat="45.28574" lon="5.77586">
        <ele>1486.6</ele>
        <time>2021-01-16T09:55:38Z</time>
      </trkpt>
      <trkpt lat="45.28575" lon="5.77588">
        <ele>1492</ele>
        <time>2021-01-16T09:55:41Z</time>
      </trkpt>
      <trkpt lat="45.28576" lon="5.77597">
        <ele>1488.7</ele>
        <time>2021-01-16T09:55:47Z</time>
      </trkpt>
      <trkpt lat="45.28577" lon="5.776">
        <ele>1489.1</ele>
        <time>2021-01-16T09:55:50Z</time>
      </trkpt>
      <trkpt lat="45.28577" lon="5.77603">
        <ele>1489.8</ele>
        <time>2021-01-16T09:55:54Z</time>
      </trkpt>
      <trkpt lat="45.28578" lon="5.77606">
        <ele>1490.2</ele>
        <time>2021-01-16T09:55:57Z</time>
      </trkpt>
      <trkpt lat="45.28579" lon="5.77608">
        <ele>1490.4</ele>
        <time>2021-01-16T09:55:59Z</time>
      </trkpt>
      <trkpt lat="45.28579" lon="5.77611">
        <ele>1491.1</ele>
        <time>2021-01-16T09:56:02Z</time>
      </trkpt>
      <trkpt lat="45.28578" lon="5.77613">
        <ele>1491.9</ele>
        <time>2021-01-16T09:56:05Z</time>
      </trkpt>
      <trkpt lat="45.28577" lon="5.77616">
        <ele>1493</ele>
        <time>2021-01-16T09:56:08Z</time>
      </trkpt>
      <trkpt lat="45.28575" lon="5.77618">
        <ele>1500.2</ele>
        <time>2021-01-16T09:56:11Z</time>
      </trkpt>
      <trkpt lat="45.28573" lon="5.77618">
        <ele>1494.6</ele>
        <time>2021-01-16T09:56:14Z</time>
      </trkpt>
      <trkpt lat="45.28571" lon="5.77619">
        <ele>1495.4</ele>
        <time>2021-01-16T09:56:18Z</time>
      </trkpt>
      <trkpt lat="45.28569" lon="5.7762">
        <ele>1503.2</ele>
        <time>2021-01-16T09:56:21Z</time>
      </trkpt>
      <trkpt lat="45.28567" lon="5.77621">
        <ele>1497</ele>
        <time>2021-01-16T09:56:25Z</time>
      </trkpt>
      <trkpt lat="45.28565" lon="5.77622">
        <ele>1497.8</ele>
        <time>2021-01-16T09:56:28Z</time>
      </trkpt>
      <trkpt lat="45.28565" lon="5.77625">
        <ele>1498.6</ele>
        <time>2021-01-16T09:56:35Z</time>
      </trkpt>
      <trkpt lat="45.28566" lon="5.77627">
        <ele>1498.9</ele>
        <time>2021-01-16T09:56:38Z</time>
      </trkpt>
      <trkpt lat="45.28568" lon="5.77629">
        <ele>1507</ele>
        <time>2021-01-16T09:56:41Z</time>
      </trkpt>
      <trkpt lat="45.28569" lon="5.77632">
        <ele>1499.6</ele>
        <time>2021-01-16T09:56:44Z</time>
      </trkpt>
      <trkpt lat="45.28568" lon="5.77634">
        <ele>1500.5</ele>
        <time>2021-01-16T09:56:46Z</time>
      </trkpt>
      <trkpt lat="45.28566" lon="5.77636">
        <ele>1501.5</ele>
        <time>2021-01-16T09:56:48Z</time>
      </trkpt>
      <trkpt lat="45.28563" lon="5.77635">
        <ele>1502</ele>
        <time>2021-01-16T09:56:50Z</time>
      </trkpt>
      <trkpt lat="45.28561" lon="5.77636">
        <ele>1502.8</ele>
        <time>2021-01-16T09:56:52Z</time>
      </trkpt>
      <trkpt lat="45.28558" lon="5.77637">
        <ele>1503.8</ele>
        <time>2021-01-16T09:56:54Z</time>
      </trkpt>
      <trkpt lat="45.28557" lon="5.77638">
        <ele>1504.4</ele>
        <time>2021-01-16T09:56:56Z</time>
      </trkpt>
      <trkpt lat="45.28554" lon="5.77639">
        <ele>1505.4</ele>
        <time>2021-01-16T09:56:59Z</time>
      </trkpt>
      <trkpt lat="45.28552" lon="5.7764">
        <ele>1512.6</ele>
        <time>2021-01-16T09:57:01Z</time>
      </trkpt>
      <trkpt lat="45.2855" lon="5.7764">
        <ele>1506.8</ele>
        <time>2021-01-16T09:57:03Z</time>
      </trkpt>
      <trkpt lat="45.28549" lon="5.77641">
        <ele>1507.3</ele>
        <time>2021-01-16T09:57:05Z</time>
      </trkpt>
      <trkpt lat="45.28547" lon="5.77643">
        <ele>1508.5</ele>
        <time>2021-01-16T09:57:08Z</time>
      </trkpt>
      <trkpt lat="45.28545" lon="5.77644">
        <ele>1509.3</ele>
        <time>2021-01-16T09:57:10Z</time>
      </trkpt>
      <trkpt lat="45.28542" lon="5.77645">
        <ele>1510.4</ele>
        <time>2021-01-16T09:57:13Z</time>
      </trkpt>
      <trkpt lat="45.28539" lon="5.77646">
        <ele>1511.5</ele>
        <time>2021-01-16T09:57:16Z</time>
      </trkpt>
      <trkpt lat="45.28537" lon="5.77646">
        <ele>1512</ele>
        <time>2021-01-16T09:57:18Z</time>
      </trkpt>
      <trkpt lat="45.28535" lon="5.77647">
        <ele>1512.8</ele>
        <time>2021-01-16T09:57:20Z</time>
      </trkpt>
      <trkpt lat="45.28533" lon="5.77648">
        <ele>1513.6</ele>
        <time>2021-01-16T09:57:22Z</time>
      </trkpt>
      <trkpt lat="45.2853" lon="5.77649">
        <ele>1514.7</ele>
        <time>2021-01-16T09:57:25Z</time>
      </trkpt>
      <trkpt lat="45.28527" lon="5.77649">
        <ele>1515.5</ele>
        <time>2021-01-16T09:57:28Z</time>
      </trkpt>
      <trkpt lat="45.28525" lon="5.7765">
        <ele>1516.3</ele>
        <time>2021-01-16T09:57:30Z</time>
      </trkpt>
      <trkpt lat="45.28523" lon="5.77651">
        <ele>1517.2</ele>
        <time>2021-01-16T09:57:34Z</time>
      </trkpt>
      <trkpt lat="45.28521" lon="5.77653">
        <ele>1518.4</ele>
        <time>2021-01-16T09:57:36Z</time>
      </trkpt>
      <trkpt lat="45.2852" lon="5.77655">
        <ele>1519.3</ele>
        <time>2021-01-16T09:57:38Z</time>
      </trkpt>
      <trkpt lat="45.2852" lon="5.77659">
        <ele>1522.8</ele>
        <time>2021-01-16T09:57:41Z</time>
      </trkpt>
      <trkpt lat="45.2852" lon="5.77663">
        <ele>1522</ele>
        <time>2021-01-16T09:57:44Z</time>
      </trkpt>
      <trkpt lat="45.28522" lon="5.77665">
        <ele>1522.1</ele>
        <time>2021-01-16T09:57:47Z</time>
      </trkpt>
      <trkpt lat="45.28524" lon="5.77667">
        <ele>1522.2</ele>
        <time>2021-01-16T09:57:49Z</time>
      </trkpt>
      <trkpt lat="45.28525" lon="5.77668">
        <ele>1526.4</ele>
        <time>2021-01-16T09:57:51Z</time>
      </trkpt>
      <trkpt lat="45.28528" lon="5.7767">
        <ele>1522.3</ele>
        <time>2021-01-16T09:57:54Z</time>
      </trkpt>
      <trkpt lat="45.2853" lon="5.77672">
        <ele>1522.6</ele>
        <time>2021-01-16T09:57:56Z</time>
      </trkpt>
      <trkpt lat="45.28532" lon="5.77674">
        <ele>1522.8</ele>
        <time>2021-01-16T09:57:58Z</time>
      </trkpt>
      <trkpt lat="45.28533" lon="5.77675">
        <ele>1523</ele>
        <time>2021-01-16T09:58:00Z</time>
      </trkpt>
      <trkpt lat="45.28535" lon="5.77676">
        <ele>1522.9</ele>
        <time>2021-01-16T09:58:02Z</time>
      </trkpt>
      <trkpt lat="45.28537" lon="5.77678">
        <ele>1523.2</ele>
        <time>2021-01-16T09:58:04Z</time>
      </trkpt>
      <trkpt lat="45.28539" lon="5.77679">
        <ele>1523.1</ele>
        <time>2021-01-16T09:58:06Z</time>
      </trkpt>
      <trkpt lat="45.28541" lon="5.77681">
        <ele>1523.3</ele>
        <time>2021-01-16T09:58:08Z</time>
      </trkpt>
      <trkpt lat="45.28543" lon="5.77683">
        <ele>1523.6</ele>
        <time>2021-01-16T09:58:10Z</time>
      </trkpt>
      <trkpt lat="45.28545" lon="5.77684">
        <ele>1523.5</ele>
        <time>2021-01-16T09:58:12Z</time>
      </trkpt>
      <trkpt lat="45.28548" lon="5.77685">
        <ele>1523.2</ele>
        <time>2021-01-16T09:58:15Z</time>
      </trkpt>
      <trkpt lat="45.2855" lon="5.77686">
        <ele>1523.1</ele>
        <time>2021-01-16T09:58:17Z</time>
      </trkpt>
      <trkpt lat="45.28552" lon="5.77688">
        <ele>1523.3</ele>
        <time>2021-01-16T09:58:19Z</time>
      </trkpt>
      <trkpt lat="45.28554" lon="5.77689">
        <ele>1532.2</ele>
        <time>2021-01-16T09:58:21Z</time>
      </trkpt>
      <trkpt lat="45.28555" lon="5.77692">
        <ele>1524.2</ele>
        <time>2021-01-16T09:58:23Z</time>
      </trkpt>
      <trkpt lat="45.28557" lon="5.77694">
        <ele>1524.4</ele>
        <time>2021-01-16T09:58:25Z</time>
      </trkpt>
      <trkpt lat="45.28558" lon="5.77698">
        <ele>1525.7</ele>
        <time>2021-01-16T09:58:28Z</time>
      </trkpt>
      <trkpt lat="45.28557" lon="5.777">
        <ele>1526.8</ele>
        <time>2021-01-16T09:58:30Z</time>
      </trkpt>
      <trkpt lat="45.28556" lon="5.77703">
        <ele>1528.3</ele>
        <time>2021-01-16T09:58:32Z</time>
      </trkpt>
      <trkpt lat="45.28554" lon="5.77704">
        <ele>1529.2</ele>
        <time>2021-01-16T09:58:34Z</time>
      </trkpt>
      <trkpt lat="45.28553" lon="5.77706">
        <ele>1530.3</ele>
        <time>2021-01-16T09:58:37Z</time>
      </trkpt>
      <trkpt lat="45.28551" lon="5.77708">
        <ele>1531.6</ele>
        <time>2021-01-16T09:58:39Z</time>
      </trkpt>
      <trkpt lat="45.28551" lon="5.77711">
        <ele>1537.4</ele>
        <time>2021-01-16T09:58:41Z</time>
      </trkpt>
      <trkpt lat="45.28551" lon="5.77713">
        <ele>1533.6</ele>
        <time>2021-01-16T09:58:43Z</time>
      </trkpt>
      <trkpt lat="45.28553" lon="5.77715">
        <ele>1533.9</ele>
        <time>2021-01-16T09:58:47Z</time>
      </trkpt>
      <trkpt lat="45.28555" lon="5.77718">
        <ele>1534.5</ele>
        <time>2021-01-16T09:58:50Z</time>
      </trkpt>
      <trkpt lat="45.28556" lon="5.77718">
        <ele>1534.2</ele>
        <time>2021-01-16T09:58:52Z</time>
      </trkpt>
      <trkpt lat="45.2856" lon="5.77722">
        <ele>1534.6</ele>
        <time>2021-01-16T09:58:56Z</time>
      </trkpt>
      <trkpt lat="45.28564" lon="5.77734">
        <ele>1538.7</ele>
        <time>2021-01-16T09:59:05Z</time>
      </trkpt>
      <trkpt lat="45.28567" lon="5.77748">
        <ele>1543.8</ele>
        <time>2021-01-16T09:59:20Z</time>
      </trkpt>
      <trkpt lat="45.28571" lon="5.77758">
        <ele>1547.2</ele>
        <time>2021-01-16T09:59:32Z</time>
      </trkpt>
      <trkpt lat="45.28572" lon="5.77761">
        <ele>1548.3</ele>
        <time>2021-01-16T09:59:36Z</time>
      </trkpt>
      <trkpt lat="45.28577" lon="5.77774">
        <ele>1552.9</ele>
        <time>2021-01-16T09:59:50Z</time>
      </trkpt>
      <trkpt lat="45.2858" lon="5.77785">
        <ele>1557.2</ele>
        <time>2021-01-16T09:59:58Z</time>
      </trkpt>
      <trkpt lat="45.28581" lon="5.77798">
        <ele>1563.1</ele>
        <time>2021-01-16T10:00:10Z</time>
      </trkpt>
      <trkpt lat="45.28578" lon="5.7781">
        <ele>1569.4</ele>
        <time>2021-01-16T10:00:22Z</time>
      </trkpt>
      <trkpt lat="45.28582" lon="5.7781">
        <ele>1568.4</ele>
        <time>2021-01-16T10:00:29Z</time>
      </trkpt>
      <trkpt lat="45.28587" lon="5.77821">
        <ele>1572.7</ele>
        <time>2021-01-16T10:01:46Z</time>
      </trkpt>
      <trkpt lat="45.28584" lon="5.77809">
        <ele>1567.5</ele>
        <time>2021-01-16T10:02:06Z</time>
      </trkpt>
      <trkpt lat="45.28581" lon="5.77795">
        <ele>1564.6</ele>
        <time>2021-01-16T10:02:11Z</time>
      </trkpt>
      <trkpt lat="45.28577" lon="5.77783">
        <ele>1557</ele>
        <time>2021-01-16T10:02:14Z</time>
      </trkpt>
      <trkpt lat="45.28575" lon="5.77769">
        <ele>1551.1</ele>
        <time>2021-01-16T10:02:20Z</time>
      </trkpt>
      <trkpt lat="45.28571" lon="5.77754">
        <ele>1545.4</ele>
        <time>2021-01-16T10:02:25Z</time>
      </trkpt>
      <trkpt lat="45.28565" lon="5.77742">
        <ele>1541.8</ele>
        <time>2021-01-16T10:02:29Z</time>
      </trkpt>
      <trkpt lat="45.28561" lon="5.77736">
        <ele>1540.4</ele>
        <time>2021-01-16T10:02:37Z</time>
      </trkpt>
      <trkpt lat="45.2856" lon="5.77734">
        <ele>1539.8</ele>
        <time>2021-01-16T10:02:40Z</time>
      </trkpt>
      <trkpt lat="45.28559" lon="5.77731">
        <ele>1538.8</ele>
        <time>2021-01-16T10:02:44Z</time>
      </trkpt>
      <trkpt lat="45.28557" lon="5.77728">
        <ele>1538.1</ele>
        <time>2021-01-16T10:02:46Z</time>
      </trkpt>
      <trkpt lat="45.28553" lon="5.77723">
        <ele>1537.1</ele>
        <time>2021-01-16T10:02:47Z</time>
      </trkpt>
      <trkpt lat="45.28549" lon="5.77718">
        <ele>1536.2</ele>
        <time>2021-01-16T10:02:48Z</time>
      </trkpt>
      <trkpt lat="45.28545" lon="5.77712">
        <ele>1534.9</ele>
        <time>2021-01-16T10:02:49Z</time>
      </trkpt>
      <trkpt lat="45.28541" lon="5.77706">
        <ele>1533.5</ele>
        <time>2021-01-16T10:02:50Z</time>
      </trkpt>
      <trkpt lat="45.28537" lon="5.777">
        <ele>1541.8</ele>
        <time>2021-01-16T10:02:51Z</time>
      </trkpt>
      <trkpt lat="45.28536" lon="5.77695">
        <ele>1530.2</ele>
        <time>2021-01-16T10:02:52Z</time>
      </trkpt>
      <trkpt lat="45.28537" lon="5.77691">
        <ele>1528.3</ele>
        <time>2021-01-16T10:02:54Z</time>
      </trkpt>
      <trkpt lat="45.28539" lon="5.7769">
        <ele>1527.4</ele>
        <time>2021-01-16T10:02:56Z</time>
      </trkpt>
      <trkpt lat="45.28541" lon="5.7769">
        <ele>1526.9</ele>
        <time>2021-01-16T10:03:00Z</time>
      </trkpt>
      <trkpt lat="45.28544" lon="5.77691">
        <ele>1526.5</ele>
        <time>2021-01-16T10:03:14Z</time>
      </trkpt>
      <trkpt lat="45.28546" lon="5.77691">
        <ele>1526</ele>
        <time>2021-01-16T10:03:20Z</time>
      </trkpt>
      <trkpt lat="45.28547" lon="5.77691">
        <ele>1525.8</ele>
        <time>2021-01-16T10:04:49Z</time>
      </trkpt>
      <trkpt lat="45.28549" lon="5.77693">
        <ele>1538.4</ele>
        <time>2021-01-16T10:09:01Z</time>
      </trkpt>
      <trkpt lat="45.2855" lon="5.77695">
        <ele>1526.6</ele>
        <time>2021-01-16T10:11:29Z</time>
      </trkpt>
      <trkpt lat="45.2855" lon="5.77698">
        <ele>1538.6</ele>
        <time>2021-01-16T10:12:21Z</time>
      </trkpt>
      <trkpt lat="45.28549" lon="5.77701">
        <ele>1529.3</ele>
        <time>2021-01-16T10:14:59Z</time>
      </trkpt>
      <trkpt lat="45.2855" lon="5.77697">
        <ele>1527.4</ele>
        <time>2021-01-16T10:15:04Z</time>
      </trkpt>
      <trkpt lat="45.28552" lon="5.77698">
        <ele>1527.3</ele>
        <time>2021-01-16T10:15:10Z</time>
      </trkpt>
      <trkpt lat="45.28554" lon="5.77698">
        <ele>1526.8</ele>
        <time>2021-01-16T10:15:57Z</time>
      </trkpt>
      <trkpt lat="45.28554" lon="5.77695">
        <ele>1525.6</ele>
        <time>2021-01-16T10:16:03Z</time>
      </trkpt>
      <trkpt lat="45.28551" lon="5.77698">
        <ele>1527.6</ele>
        <time>2021-01-16T10:18:03Z</time>
      </trkpt>
      <trkpt lat="45.2855" lon="5.77699">
        <ele>1528.2</ele>
        <time>2021-01-16T10:18:04Z</time>
      </trkpt>
      <trkpt lat="45.2855" lon="5.77703">
        <ele>1529.8</ele>
        <time>2021-01-16T10:18:08Z</time>
      </trkpt>
      <trkpt lat="45.28552" lon="5.77705">
        <ele>1530.1</ele>
        <time>2021-01-16T10:18:10Z</time>
      </trkpt>
      <trkpt lat="45.28553" lon="5.77707">
        <ele>1530.7</ele>
        <time>2021-01-16T10:18:12Z</time>
      </trkpt>
      <trkpt lat="45.28554" lon="5.77709">
        <ele>1531.2</ele>
        <time>2021-01-16T10:18:16Z</time>
      </trkpt>
      <trkpt lat="45.28556" lon="5.77712">
        <ele>1531.8</ele>
        <time>2021-01-16T10:18:20Z</time>
      </trkpt>
      <trkpt lat="45.28557" lon="5.77714">
        <ele>1532.3</ele>
        <time>2021-01-16T10:18:23Z</time>
      </trkpt>
      <trkpt lat="45.28558" lon="5.77717">
        <ele>1533.2</ele>
        <time>2021-01-16T10:18:27Z</time>
      </trkpt>
      <trkpt lat="45.2856" lon="5.77718">
        <ele>1533</ele>
        <time>2021-01-16T10:18:34Z</time>
      </trkpt>
      <trkpt lat="45.28562" lon="5.7772">
        <ele>1533.3</ele>
        <time>2021-01-16T10:18:36Z</time>
      </trkpt>
      <trkpt lat="45.28567" lon="5.77731">
        <ele>1536.5</ele>
        <time>2021-01-16T10:18:48Z</time>
      </trkpt>
      <trkpt lat="45.2857" lon="5.77744">
        <ele>1541.2</ele>
        <time>2021-01-16T10:19:06Z</time>
      </trkpt>
      <trkpt lat="45.28573" lon="5.77757">
        <ele>1546.2</ele>
        <time>2021-01-16T10:19:22Z</time>
      </trkpt>
      <trkpt lat="45.28579" lon="5.77767">
        <ele>1549.1</ele>
        <time>2021-01-16T10:19:33Z</time>
      </trkpt>
      <trkpt lat="45.28581" lon="5.7778">
        <ele>1554.6</ele>
        <time>2021-01-16T10:19:45Z</time>
      </trkpt>
      <trkpt lat="45.28584" lon="5.77792">
        <ele>1559.5</ele>
        <time>2021-01-16T10:19:57Z</time>
      </trkpt>
      <trkpt lat="45.28588" lon="5.77804">
        <ele>1564.6</ele>
        <time>2021-01-16T10:20:03Z</time>
      </trkpt>
      <trkpt lat="45.28593" lon="5.77816">
        <ele>1569.5</ele>
        <time>2021-01-16T10:20:13Z</time>
      </trkpt>
      <trkpt lat="45.28595" lon="5.77829">
        <ele>1575.3</ele>
        <time>2021-01-16T10:20:24Z</time>
      </trkpt>
      <trkpt lat="45.28597" lon="5.77842">
        <ele>1580.8</ele>
        <time>2021-01-16T10:20:38Z</time>
      </trkpt>
      <trkpt lat="45.28602" lon="5.77853">
        <ele>1584.8</ele>
        <time>2021-01-16T10:20:47Z</time>
      </trkpt>
      <trkpt lat="45.28608" lon="5.77864">
        <ele>1588.7</ele>
        <time>2021-01-16T10:21:02Z</time>
      </trkpt>
      <trkpt lat="45.28614" lon="5.77873">
        <ele>1592.1</ele>
        <time>2021-01-16T10:21:15Z</time>
      </trkpt>
      <trkpt lat="45.28622" lon="5.77881">
        <ele>1595.3</ele>
        <time>2021-01-16T10:21:26Z</time>
      </trkpt>
      <trkpt lat="45.28627" lon="5.77885">
        <ele>1596.8</ele>
        <time>2021-01-16T10:21:32Z</time>
      </trkpt>
      <trkpt lat="45.28628" lon="5.77886">
        <ele>1597.2</ele>
        <time>2021-01-16T10:21:33Z</time>
      </trkpt>
      <trkpt lat="45.2863" lon="5.77888">
        <ele>1598</ele>
        <time>2021-01-16T10:21:38Z</time>
      </trkpt>
      <trkpt lat="45.28631" lon="5.77889">
        <ele>1598.3</ele>
        <time>2021-01-16T10:21:42Z</time>
      </trkpt>
      <trkpt lat="45.28633" lon="5.7789">
        <ele>1598.6</ele>
        <time>2021-01-16T10:21:52Z</time>
      </trkpt>
      <trkpt lat="45.28636" lon="5.77891">
        <ele>1598.9</ele>
        <time>2021-01-16T10:21:56Z</time>
      </trkpt>
      <trkpt lat="45.28639" lon="5.7789">
        <ele>1598.4</ele>
        <time>2021-01-16T10:22:03Z</time>
      </trkpt>
      <trkpt lat="45.28641" lon="5.77892">
        <ele>1601.4</ele>
        <time>2021-01-16T10:22:11Z</time>
      </trkpt>
      <trkpt lat="45.28642" lon="5.77894">
        <ele>1600.4</ele>
        <time>2021-01-16T10:22:27Z</time>
      </trkpt>
      <trkpt lat="45.28648" lon="5.77897">
        <ele>1602.7</ele>
        <time>2021-01-16T10:22:42Z</time>
      </trkpt>
      <trkpt lat="45.28647" lon="5.779">
        <ele>1605.4</ele>
        <time>2021-01-16T10:22:51Z</time>
      </trkpt>
      <trkpt lat="45.28645" lon="5.77907">
        <ele>1605.8</ele>
        <time>2021-01-16T10:22:58Z</time>
      </trkpt>
      <trkpt lat="45.28643" lon="5.7791">
        <ele>1606.5</ele>
        <time>2021-01-16T10:23:02Z</time>
      </trkpt>
      <trkpt lat="45.28637" lon="5.7792">
        <ele>1609.3</ele>
        <time>2021-01-16T10:23:14Z</time>
      </trkpt>
      <trkpt lat="45.28632" lon="5.77932">
        <ele>1613.8</ele>
        <time>2021-01-16T10:23:26Z</time>
      </trkpt>
      <trkpt lat="45.28624" lon="5.77937">
        <ele>1615.9</ele>
        <time>2021-01-16T10:23:35Z</time>
      </trkpt>
      <trkpt lat="45.28618" lon="5.77946">
        <ele>1619.4</ele>
        <time>2021-01-16T10:23:46Z</time>
      </trkpt>
      <trkpt lat="45.28617" lon="5.77949">
        <ele>1620.6</ele>
        <time>2021-01-16T10:23:49Z</time>
      </trkpt>
      <trkpt lat="45.2861" lon="5.77956">
        <ele>1627.6</ele>
        <time>2021-01-16T10:24:01Z</time>
      </trkpt>
      <trkpt lat="45.28602" lon="5.77964">
        <ele>1628.4</ele>
        <time>2021-01-16T10:24:12Z</time>
      </trkpt>
      <trkpt lat="45.28599" lon="5.77963">
        <ele>1628.5</ele>
        <time>2021-01-16T10:24:17Z</time>
      </trkpt>
      <trkpt lat="45.2859" lon="5.77963">
        <ele>1630.1</ele>
        <time>2021-01-16T10:24:29Z</time>
      </trkpt>
      <trkpt lat="45.28587" lon="5.77975">
        <ele>1644.4</ele>
        <time>2021-01-16T10:24:51Z</time>
      </trkpt>
      <trkpt lat="45.28586" lon="5.77989">
        <ele>1641.3</ele>
        <time>2021-01-16T10:25:04Z</time>
      </trkpt>
      <trkpt lat="45.2859" lon="5.78001">
        <ele>1654</ele>
        <time>2021-01-16T10:25:21Z</time>
      </trkpt>
      <trkpt lat="45.28598" lon="5.78008">
        <ele>1647.6</ele>
        <time>2021-01-16T10:25:29Z</time>
      </trkpt>
      <trkpt lat="45.28608" lon="5.78013">
        <ele>1648.5</ele>
        <time>2021-01-16T10:25:39Z</time>
      </trkpt>
      <trkpt lat="45.28617" lon="5.78019">
        <ele>1650.5</ele>
        <time>2021-01-16T10:25:49Z</time>
      </trkpt>
      <trkpt lat="45.28621" lon="5.78021">
        <ele>1651.2</ele>
        <time>2021-01-16T10:25:52Z</time>
      </trkpt>
      <trkpt lat="45.28623" lon="5.78021">
        <ele>1651.2</ele>
        <time>2021-01-16T10:25:55Z</time>
      </trkpt>
      <trkpt lat="45.28625" lon="5.78022">
        <ele>1651.6</ele>
        <time>2021-01-16T10:25:58Z</time>
      </trkpt>
      <trkpt lat="45.28628" lon="5.78024">
        <ele>1666.2</ele>
        <time>2021-01-16T10:26:01Z</time>
      </trkpt>
      <trkpt lat="45.2863" lon="5.78024">
        <ele>1652.4</ele>
        <time>2021-01-16T10:26:03Z</time>
      </trkpt>
      <trkpt lat="45.28632" lon="5.78024">
        <ele>1652.4</ele>
        <time>2021-01-16T10:26:05Z</time>
      </trkpt>
      <trkpt lat="45.28634" lon="5.78025">
        <ele>1652.8</ele>
        <time>2021-01-16T10:26:07Z</time>
      </trkpt>
      <trkpt lat="45.28642" lon="5.7803">
        <ele>1655.5</ele>
        <time>2021-01-16T10:26:19Z</time>
      </trkpt>
      <trkpt lat="45.28652" lon="5.78032">
        <ele>1658.1</ele>
        <time>2021-01-16T10:26:30Z</time>
      </trkpt>
      <trkpt lat="45.28656" lon="5.78033">
        <ele>1659.2</ele>
        <time>2021-01-16T10:26:36Z</time>
      </trkpt>
      <trkpt lat="45.28664" lon="5.78036">
        <ele>1661.8</ele>
        <time>2021-01-16T10:26:49Z</time>
      </trkpt>
      <trkpt lat="45.28674" lon="5.78035">
        <ele>1663.9</ele>
        <time>2021-01-16T10:26:59Z</time>
      </trkpt>
      <trkpt lat="45.28683" lon="5.78034">
        <ele>1666</ele>
        <time>2021-01-16T10:27:10Z</time>
      </trkpt>
      <trkpt lat="45.28692" lon="5.78033">
        <ele>1684.2</ele>
        <time>2021-01-16T10:27:21Z</time>
      </trkpt>
      <trkpt lat="45.28695" lon="5.78033">
        <ele>1686.2</ele>
        <time>2021-01-16T10:27:31Z</time>
      </trkpt>
      <trkpt lat="45.28696" lon="5.78034">
        <ele>1669.3</ele>
        <time>2021-01-16T10:27:33Z</time>
      </trkpt>
      <trkpt lat="45.28699" lon="5.78035">
        <ele>1669.8</ele>
        <time>2021-01-16T10:27:35Z</time>
      </trkpt>
      <trkpt lat="45.28701" lon="5.78037">
        <ele>1670.6</ele>
        <time>2021-01-16T10:27:38Z</time>
      </trkpt>
      <trkpt lat="45.28704" lon="5.78038">
        <ele>1688.4</ele>
        <time>2021-01-16T10:27:41Z</time>
      </trkpt>
      <trkpt lat="45.28707" lon="5.78039">
        <ele>1671.7</ele>
        <time>2021-01-16T10:27:44Z</time>
      </trkpt>
      <trkpt lat="45.28709" lon="5.78041">
        <ele>1672.5</ele>
        <time>2021-01-16T10:27:47Z</time>
      </trkpt>
      <trkpt lat="45.28711" lon="5.78042">
        <ele>1673</ele>
        <time>2021-01-16T10:27:50Z</time>
      </trkpt>
      <trkpt lat="45.28713" lon="5.78044">
        <ele>1673.9</ele>
        <time>2021-01-16T10:27:53Z</time>
      </trkpt>
      <trkpt lat="45.28714" lon="5.78046">
        <ele>1674.7</ele>
        <time>2021-01-16T10:27:56Z</time>
      </trkpt>
      <trkpt lat="45.28716" lon="5.78047">
        <ele>1675.2</ele>
        <time>2021-01-16T10:27:59Z</time>
      </trkpt>
      <trkpt lat="45.28717" lon="5.78049">
        <ele>1676.1</ele>
        <time>2021-01-16T10:28:02Z</time>
      </trkpt>
      <trkpt lat="45.28719" lon="5.78051">
        <ele>1677</ele>
        <time>2021-01-16T10:28:04Z</time>
      </trkpt>
      <trkpt lat="45.28723" lon="5.78054">
        <ele>1678.3</ele>
        <time>2021-01-16T10:28:09Z</time>
      </trkpt>
      <trkpt lat="45.28727" lon="5.7806">
        <ele>1680.6</ele>
        <time>2021-01-16T10:28:16Z</time>
      </trkpt>
      <trkpt lat="45.28729" lon="5.78061">
        <ele>1680.9</ele>
        <time>2021-01-16T10:28:18Z</time>
      </trkpt>
      <trkpt lat="45.2873" lon="5.78063">
        <ele>1681.7</ele>
        <time>2021-01-16T10:28:20Z</time>
      </trkpt>
      <trkpt lat="45.28733" lon="5.78067">
        <ele>1683.2</ele>
        <time>2021-01-16T10:28:25Z</time>
      </trkpt>
      <trkpt lat="45.28735" lon="5.78068">
        <ele>1683.5</ele>
        <time>2021-01-16T10:28:28Z</time>
      </trkpt>
      <trkpt lat="45.28737" lon="5.7807">
        <ele>1684.2</ele>
        <time>2021-01-16T10:28:32Z</time>
      </trkpt>
      <trkpt lat="45.28739" lon="5.78073">
        <ele>1685.3</ele>
        <time>2021-01-16T10:28:36Z</time>
      </trkpt>
      <trkpt lat="45.28743" lon="5.78078">
        <ele>1704</ele>
        <time>2021-01-16T10:28:41Z</time>
      </trkpt>
      <trkpt lat="45.28742" lon="5.7808">
        <ele>1688.1</ele>
        <time>2021-01-16T10:28:49Z</time>
      </trkpt>
      <trkpt lat="45.28739" lon="5.78081">
        <ele>1688.8</ele>
        <time>2021-01-16T10:28:52Z</time>
      </trkpt>
      <trkpt lat="45.28738" lon="5.78082">
        <ele>1689.3</ele>
        <time>2021-01-16T10:28:54Z</time>
      </trkpt>
      <trkpt lat="45.28736" lon="5.78083">
        <ele>1689.9</ele>
        <time>2021-01-16T10:28:57Z</time>
      </trkpt>
      <trkpt lat="45.28734" lon="5.78084">
        <ele>1690.4</ele>
        <time>2021-01-16T10:29:00Z</time>
      </trkpt>
      <trkpt lat="45.28732" lon="5.78085">
        <ele>1691</ele>
        <time>2021-01-16T10:29:04Z</time>
      </trkpt>
      <trkpt lat="45.28733" lon="5.78087">
        <ele>1691.8</ele>
        <time>2021-01-16T10:29:09Z</time>
      </trkpt>
      <trkpt lat="45.28734" lon="5.78091">
        <ele>1693.5</ele>
        <time>2021-01-16T10:29:13Z</time>
      </trkpt>
      <trkpt lat="45.28735" lon="5.78094">
        <ele>1694.7</ele>
        <time>2021-01-16T10:29:16Z</time>
      </trkpt>
      <trkpt lat="45.28736" lon="5.78096">
        <ele>1695.5</ele>
        <time>2021-01-16T10:29:19Z</time>
      </trkpt>
      <trkpt lat="45.28738" lon="5.78099">
        <ele>1696.6</ele>
        <time>2021-01-16T10:29:22Z</time>
      </trkpt>
      <trkpt lat="45.28739" lon="5.78101">
        <ele>1697.4</ele>
        <time>2021-01-16T10:29:25Z</time>
      </trkpt>
      <trkpt lat="45.28741" lon="5.78104">
        <ele>1698.6</ele>
        <time>2021-01-16T10:29:28Z</time>
      </trkpt>
      <trkpt lat="45.28743" lon="5.78106">
        <ele>1714.8</ele>
        <time>2021-01-16T10:29:31Z</time>
      </trkpt>
      <trkpt lat="45.28744" lon="5.78108">
        <ele>1700.1</ele>
        <time>2021-01-16T10:29:34Z</time>
      </trkpt>
      <trkpt lat="45.28743" lon="5.78111">
        <ele>1701.5</ele>
        <time>2021-01-16T10:29:39Z</time>
      </trkpt>
      <trkpt lat="45.28742" lon="5.78114">
        <ele>1702.7</ele>
        <time>2021-01-16T10:29:43Z</time>
      </trkpt>
      <trkpt lat="45.2874" lon="5.78116">
        <ele>1703.7</ele>
        <time>2021-01-16T10:29:46Z</time>
      </trkpt>
      <trkpt lat="45.28738" lon="5.78115">
        <ele>1703.5</ele>
        <time>2021-01-16T10:29:49Z</time>
      </trkpt>
      <trkpt lat="45.28736" lon="5.78115">
        <ele>1703.6</ele>
        <time>2021-01-16T10:29:52Z</time>
      </trkpt>
      <trkpt lat="45.28733" lon="5.78115">
        <ele>1703.8</ele>
        <time>2021-01-16T10:29:55Z</time>
      </trkpt>
      <trkpt lat="45.28731" lon="5.78115">
        <ele>1704</ele>
        <time>2021-01-16T10:29:57Z</time>
      </trkpt>
      <trkpt lat="45.28729" lon="5.78116">
        <ele>1704.6</ele>
        <time>2021-01-16T10:29:59Z</time>
      </trkpt>
      <trkpt lat="45.28727" lon="5.78117">
        <ele>1705.2</ele>
        <time>2021-01-16T10:30:02Z</time>
      </trkpt>
      <trkpt lat="45.28725" lon="5.78119">
        <ele>1706.2</ele>
        <time>2021-01-16T10:30:05Z</time>
      </trkpt>
      <trkpt lat="45.28723" lon="5.7812">
        <ele>1706.8</ele>
        <time>2021-01-16T10:30:08Z</time>
      </trkpt>
      <trkpt lat="45.28721" lon="5.78122">
        <ele>1723.4</ele>
        <time>2021-01-16T10:30:11Z</time>
      </trkpt>
      <trkpt lat="45.28719" lon="5.78124">
        <ele>1708.3</ele>
        <time>2021-01-16T10:30:14Z</time>
      </trkpt>
      <trkpt lat="45.28717" lon="5.78126">
        <ele>1709.1</ele>
        <time>2021-01-16T10:30:18Z</time>
      </trkpt>
      <trkpt lat="45.28714" lon="5.78128">
        <ele>1709.7</ele>
        <time>2021-01-16T10:30:22Z</time>
      </trkpt>
      <trkpt lat="45.28713" lon="5.78129">
        <ele>1710.1</ele>
        <time>2021-01-16T10:30:24Z</time>
      </trkpt>
      <trkpt lat="45.28711" lon="5.7813">
        <ele>1710.4</ele>
        <time>2021-01-16T10:30:27Z</time>
      </trkpt>
      <trkpt lat="45.2871" lon="5.78132">
        <ele>1711.1</ele>
        <time>2021-01-16T10:30:29Z</time>
      </trkpt>
      <trkpt lat="45.28708" lon="5.78134">
        <ele>1728.6</ele>
        <time>2021-01-16T10:30:31Z</time>
      </trkpt>
      <trkpt lat="45.28707" lon="5.78135">
        <ele>1712.2</ele>
        <time>2021-01-16T10:30:34Z</time>
      </trkpt>
      <trkpt lat="45.28706" lon="5.78138">
        <ele>1713.4</ele>
        <time>2021-01-16T10:30:38Z</time>
      </trkpt>
      <trkpt lat="45.28713" lon="5.78147">
        <ele>1717.8</ele>
        <time>2021-01-16T10:30:50Z</time>
      </trkpt>
      <trkpt lat="45.2872" lon="5.78156">
        <ele>1722.2</ele>
        <time>2021-01-16T10:31:06Z</time>
      </trkpt>
      <trkpt lat="45.28716" lon="5.78166">
        <ele>1726.3</ele>
        <time>2021-01-16T10:31:25Z</time>
      </trkpt>
      <trkpt lat="45.28715" lon="5.78168">
        <ele>1727.1</ele>
        <time>2021-01-16T10:31:28Z</time>
      </trkpt>
      <trkpt lat="45.28713" lon="5.7817">
        <ele>1727.9</ele>
        <time>2021-01-16T10:31:32Z</time>
      </trkpt>
      <trkpt lat="45.28712" lon="5.78172">
        <ele>1728.7</ele>
        <time>2021-01-16T10:31:35Z</time>
      </trkpt>
      <trkpt lat="45.2871" lon="5.78174">
        <ele>1729.4</ele>
        <time>2021-01-16T10:31:38Z</time>
      </trkpt>
      <trkpt lat="45.28708" lon="5.78174">
        <ele>1747</ele>
        <time>2021-01-16T10:31:41Z</time>
      </trkpt>
      <trkpt lat="45.28706" lon="5.78175">
        <ele>1729.6</ele>
        <time>2021-01-16T10:31:43Z</time>
      </trkpt>
      <trkpt lat="45.28704" lon="5.78177">
        <ele>1730.3</ele>
        <time>2021-01-16T10:31:46Z</time>
      </trkpt>
      <trkpt lat="45.28702" lon="5.78179">
        <ele>1731</ele>
        <time>2021-01-16T10:31:49Z</time>
      </trkpt>
      <trkpt lat="45.287" lon="5.78182">
        <ele>1732.1</ele>
        <time>2021-01-16T10:31:52Z</time>
      </trkpt>
      <trkpt lat="45.28698" lon="5.78186">
        <ele>1733.7</ele>
        <time>2021-01-16T10:31:55Z</time>
      </trkpt>
      <trkpt lat="45.28697" lon="5.78188">
        <ele>1734.5</ele>
        <time>2021-01-16T10:31:58Z</time>
      </trkpt>
      <trkpt lat="45.28695" lon="5.78191">
        <ele>1735.6</ele>
        <time>2021-01-16T10:32:00Z</time>
      </trkpt>
      <trkpt lat="45.28694" lon="5.78193">
        <ele>1736.3</ele>
        <time>2021-01-16T10:32:02Z</time>
      </trkpt>
      <trkpt lat="45.28693" lon="5.78195">
        <ele>1737</ele>
        <time>2021-01-16T10:32:04Z</time>
      </trkpt>
      <trkpt lat="45.28691" lon="5.78196">
        <ele>1737</ele>
        <time>2021-01-16T10:32:08Z</time>
      </trkpt>
      <trkpt lat="45.28689" lon="5.782">
        <ele>1753.4</ele>
        <time>2021-01-16T10:32:11Z</time>
      </trkpt>
      <trkpt lat="45.28687" lon="5.78202">
        <ele>1739.2</ele>
        <time>2021-01-16T10:32:14Z</time>
      </trkpt>
      <trkpt lat="45.28685" lon="5.78204">
        <ele>1739.8</ele>
        <time>2021-01-16T10:32:17Z</time>
      </trkpt>
      <trkpt lat="45.28684" lon="5.78206">
        <ele>1740.6</ele>
        <time>2021-01-16T10:32:19Z</time>
      </trkpt>
      <trkpt lat="45.28682" lon="5.78207">
        <ele>1740.6</ele>
        <time>2021-01-16T10:32:22Z</time>
      </trkpt>
      <trkpt lat="45.28679" lon="5.7821">
        <ele>1741.5</ele>
        <time>2021-01-16T10:32:25Z</time>
      </trkpt>
      <trkpt lat="45.28678" lon="5.78211">
        <ele>1741.8</ele>
        <time>2021-01-16T10:32:27Z</time>
      </trkpt>
      <trkpt lat="45.28676" lon="5.78212">
        <ele>1741.9</ele>
        <time>2021-01-16T10:32:29Z</time>
      </trkpt>
      <trkpt lat="45.28674" lon="5.78213">
        <ele>1757.2</ele>
        <time>2021-01-16T10:32:31Z</time>
      </trkpt>
      <trkpt lat="45.28672" lon="5.78213">
        <ele>1741.5</ele>
        <time>2021-01-16T10:32:33Z</time>
      </trkpt>
      <trkpt lat="45.2867" lon="5.78213">
        <ele>1741.1</ele>
        <time>2021-01-16T10:32:35Z</time>
      </trkpt>
      <trkpt lat="45.28668" lon="5.78214">
        <ele>1741.1</ele>
        <time>2021-01-16T10:32:38Z</time>
      </trkpt>
      <trkpt lat="45.28667" lon="5.78215">
        <ele>1741.4</ele>
        <time>2021-01-16T10:32:40Z</time>
      </trkpt>
      <trkpt lat="45.28664" lon="5.78215">
        <ele>1741.5</ele>
        <time>2021-01-16T10:32:43Z</time>
      </trkpt>
      <trkpt lat="45.28663" lon="5.78217">
        <ele>1742.6</ele>
        <time>2021-01-16T10:32:46Z</time>
      </trkpt>
      <trkpt lat="45.28661" lon="5.78218">
        <ele>1743.2</ele>
        <time>2021-01-16T10:32:49Z</time>
      </trkpt>
      <trkpt lat="45.28659" lon="5.7822">
        <ele>1763</ele>
        <time>2021-01-16T10:32:51Z</time>
      </trkpt>
      <trkpt lat="45.2865" lon="5.78226">
        <ele>1748.5</ele>
        <time>2021-01-16T10:33:04Z</time>
      </trkpt>
      <trkpt lat="45.28641" lon="5.78223">
        <ele>1747.3</ele>
        <time>2021-01-16T10:33:15Z</time>
      </trkpt>
      <trkpt lat="45.28632" lon="5.78216">
        <ele>1746.1</ele>
        <time>2021-01-16T10:33:24Z</time>
      </trkpt>
      <trkpt lat="45.2863" lon="5.78213">
        <ele>1745.1</ele>
        <time>2021-01-16T10:33:26Z</time>
      </trkpt>
      <trkpt lat="45.28629" lon="5.78212">
        <ele>1744.9</ele>
        <time>2021-01-16T10:33:28Z</time>
      </trkpt>
      <trkpt lat="45.28627" lon="5.7821">
        <ele>1744.5</ele>
        <time>2021-01-16T10:33:30Z</time>
      </trkpt>
      <trkpt lat="45.28625" lon="5.78208">
        <ele>1744.1</ele>
        <time>2021-01-16T10:33:32Z</time>
      </trkpt>
      <trkpt lat="45.28623" lon="5.78206">
        <ele>1743.6</ele>
        <time>2021-01-16T10:33:34Z</time>
      </trkpt>
      <trkpt lat="45.28621" lon="5.78205">
        <ele>1743.7</ele>
        <time>2021-01-16T10:33:36Z</time>
      </trkpt>
      <trkpt lat="45.28619" lon="5.78205">
        <ele>1744.4</ele>
        <time>2021-01-16T10:33:38Z</time>
      </trkpt>
      <trkpt lat="45.28616" lon="5.78204">
        <ele>1771.8</ele>
        <time>2021-01-16T10:33:41Z</time>
      </trkpt>
      <trkpt lat="45.28612" lon="5.78204">
        <ele>1746.2</ele>
        <time>2021-01-16T10:33:48Z</time>
      </trkpt>
      <trkpt lat="45.28611" lon="5.78203">
        <ele>1746</ele>
        <time>2021-01-16T10:33:50Z</time>
      </trkpt>
      <trkpt lat="45.28608" lon="5.78203">
        <ele>1747.2</ele>
        <time>2021-01-16T10:33:53Z</time>
      </trkpt>
      <trkpt lat="45.28606" lon="5.78203">
        <ele>1748</ele>
        <time>2021-01-16T10:33:56Z</time>
      </trkpt>
      <trkpt lat="45.28604" lon="5.78204">
        <ele>1749.3</ele>
        <time>2021-01-16T10:33:59Z</time>
      </trkpt>
      <trkpt lat="45.28602" lon="5.78204">
        <ele>1776.6</ele>
        <time>2021-01-16T10:34:01Z</time>
      </trkpt>
      <trkpt lat="45.286" lon="5.78205">
        <ele>1751.5</ele>
        <time>2021-01-16T10:34:04Z</time>
      </trkpt>
      <trkpt lat="45.28597" lon="5.78205">
        <ele>1752.7</ele>
        <time>2021-01-16T10:34:07Z</time>
      </trkpt>
      <trkpt lat="45.28595" lon="5.78206">
        <ele>1754</ele>
        <time>2021-01-16T10:34:10Z</time>
      </trkpt>
      <trkpt lat="45.2859" lon="5.78204">
        <ele>1754.9</ele>
        <time>2021-01-16T10:34:15Z</time>
      </trkpt>
      <trkpt lat="45.28589" lon="5.78203">
        <ele>1754.7</ele>
        <time>2021-01-16T10:34:17Z</time>
      </trkpt>
      <trkpt lat="45.28586" lon="5.78202">
        <ele>1755.3</ele>
        <time>2021-01-16T10:34:19Z</time>
      </trkpt>
      <trkpt lat="45.28584" lon="5.78203">
        <ele>1756.7</ele>
        <time>2021-01-16T10:34:22Z</time>
      </trkpt>
      <trkpt lat="45.28577" lon="5.78212">
        <ele>1764.7</ele>
        <time>2021-01-16T10:34:36Z</time>
      </trkpt>
      <trkpt lat="45.28573" lon="5.78213">
        <ele>1766.9</ele>
        <time>2021-01-16T10:34:40Z</time>
      </trkpt>
      <trkpt lat="45.28571" lon="5.78213">
        <ele>1767.7</ele>
        <time>2021-01-16T10:34:43Z</time>
      </trkpt>
      <trkpt lat="45.28567" lon="5.78211">
        <ele>1768.2</ele>
        <time>2021-01-16T10:34:48Z</time>
      </trkpt>
      <trkpt lat="45.28565" lon="5.78212">
        <ele>1769.6</ele>
        <time>2021-01-16T10:34:50Z</time>
      </trkpt>
      <trkpt lat="45.28563" lon="5.78212">
        <ele>1770.4</ele>
        <time>2021-01-16T10:34:54Z</time>
      </trkpt>
      <trkpt lat="45.28561" lon="5.78212">
        <ele>1771.3</ele>
        <time>2021-01-16T10:34:57Z</time>
      </trkpt>
      <trkpt lat="45.28558" lon="5.78214">
        <ele>1773.6</ele>
        <time>2021-01-16T10:35:00Z</time>
      </trkpt>
      <trkpt lat="45.28557" lon="5.78214">
        <ele>1774</ele>
        <time>2021-01-16T10:35:03Z</time>
      </trkpt>
      <trkpt lat="45.28554" lon="5.78215">
        <ele>1775.6</ele>
        <time>2021-01-16T10:35:06Z</time>
      </trkpt>
      <trkpt lat="45.28552" lon="5.78215">
        <ele>1776.3</ele>
        <time>2021-01-16T10:35:08Z</time>
      </trkpt>
      <trkpt lat="45.2855" lon="5.78215">
        <ele>1777</ele>
        <time>2021-01-16T10:35:10Z</time>
      </trkpt>
      <trkpt lat="45.28548" lon="5.78215">
        <ele>1777.7</ele>
        <time>2021-01-16T10:35:13Z</time>
      </trkpt>
      <trkpt lat="45.28545" lon="5.78214">
        <ele>1778.2</ele>
        <time>2021-01-16T10:35:16Z</time>
      </trkpt>
      <trkpt lat="45.28543" lon="5.78216">
        <ele>1779.9</ele>
        <time>2021-01-16T10:35:20Z</time>
      </trkpt>
      <trkpt lat="45.28541" lon="5.78217">
        <ele>1781.1</ele>
        <time>2021-01-16T10:35:23Z</time>
      </trkpt>
      <trkpt lat="45.28538" lon="5.78219">
        <ele>1783.1</ele>
        <time>2021-01-16T10:35:26Z</time>
      </trkpt>
      <trkpt lat="45.28536" lon="5.78221">
        <ele>1784.7</ele>
        <time>2021-01-16T10:35:30Z</time>
      </trkpt>
      <trkpt lat="45.2853" lon="5.78224">
        <ele>1788.1</ele>
        <time>2021-01-16T10:35:42Z</time>
      </trkpt>
      <trkpt lat="45.28528" lon="5.78225">
        <ele>1789.1</ele>
        <time>2021-01-16T10:35:46Z</time>
      </trkpt>
      <trkpt lat="45.28526" lon="5.78224">
        <ele>1789.3</ele>
        <time>2021-01-16T10:36:40Z</time>
      </trkpt>
      <trkpt lat="45.28524" lon="5.78224">
        <ele>1789.8</ele>
        <time>2021-01-16T10:36:57Z</time>
      </trkpt>
      <trkpt lat="45.28522" lon="5.78225">
        <ele>1790.8</ele>
        <time>2021-01-16T10:37:00Z</time>
      </trkpt>
      <trkpt lat="45.28521" lon="5.78226">
        <ele>1791.6</ele>
        <time>2021-01-16T10:37:03Z</time>
      </trkpt>
      <trkpt lat="45.28519" lon="5.78227">
        <ele>1792.5</ele>
        <time>2021-01-16T10:37:08Z</time>
      </trkpt>
      <trkpt lat="45.2851" lon="5.78232">
        <ele>1797.1</ele>
        <time>2021-01-16T10:37:24Z</time>
      </trkpt>
      <trkpt lat="45.285" lon="5.78233">
        <ele>1800.3</ele>
        <time>2021-01-16T10:37:35Z</time>
      </trkpt>
      <trkpt lat="45.28497" lon="5.78232">
        <ele>1818.8</ele>
        <time>2021-01-16T10:37:41Z</time>
      </trkpt>
      <trkpt lat="45.28495" lon="5.78231">
        <ele>1800.7</ele>
        <time>2021-01-16T10:37:43Z</time>
      </trkpt>
      <trkpt lat="45.28491" lon="5.78229">
        <ele>1800.9</ele>
        <time>2021-01-16T10:37:49Z</time>
      </trkpt>
      <trkpt lat="45.28481" lon="5.7823">
        <ele>1803.7</ele>
        <time>2021-01-16T10:38:00Z</time>
      </trkpt>
      <trkpt lat="45.28473" lon="5.78234">
        <ele>1826.2</ele>
        <time>2021-01-16T10:38:11Z</time>
      </trkpt>
      <trkpt lat="45.28464" lon="5.78232">
        <ele>1808.2</ele>
        <time>2021-01-16T10:38:24Z</time>
      </trkpt>
      <trkpt lat="45.28461" lon="5.78233">
        <ele>1809.1</ele>
        <time>2021-01-16T10:38:29Z</time>
      </trkpt>
      <trkpt lat="45.2846" lon="5.78236">
        <ele>1810.4</ele>
        <time>2021-01-16T10:38:32Z</time>
      </trkpt>
      <trkpt lat="45.2846" lon="5.78246">
        <ele>1813.8</ele>
        <time>2021-01-16T10:38:50Z</time>
      </trkpt>
      <trkpt lat="45.28458" lon="5.78249">
        <ele>1815.2</ele>
        <time>2021-01-16T10:38:56Z</time>
      </trkpt>
      <trkpt lat="45.28456" lon="5.78249">
        <ele>1815.6</ele>
        <time>2021-01-16T10:38:59Z</time>
      </trkpt>
      <trkpt lat="45.28454" lon="5.78249">
        <ele>1837</ele>
        <time>2021-01-16T10:39:01Z</time>
      </trkpt>
      <trkpt lat="45.28451" lon="5.78249">
        <ele>1816.5</ele>
        <time>2021-01-16T10:39:05Z</time>
      </trkpt>
      <trkpt lat="45.28449" lon="5.78249">
        <ele>1816.9</ele>
        <time>2021-01-16T10:39:07Z</time>
      </trkpt>
      <trkpt lat="45.28447" lon="5.78249">
        <ele>1817.2</ele>
        <time>2021-01-16T10:39:10Z</time>
      </trkpt>
      <trkpt lat="45.28445" lon="5.78249">
        <ele>1817.6</ele>
        <time>2021-01-16T10:39:12Z</time>
      </trkpt>
      <trkpt lat="45.28443" lon="5.78248">
        <ele>1817.6</ele>
        <time>2021-01-16T10:39:16Z</time>
      </trkpt>
      <trkpt lat="45.28441" lon="5.7825">
        <ele>1818.6</ele>
        <time>2021-01-16T10:39:19Z</time>
      </trkpt>
      <trkpt lat="45.28439" lon="5.78252">
        <ele>1819.6</ele>
        <time>2021-01-16T10:39:22Z</time>
      </trkpt>
      <trkpt lat="45.28438" lon="5.78254">
        <ele>1820.5</ele>
        <time>2021-01-16T10:39:24Z</time>
      </trkpt>
      <trkpt lat="45.28438" lon="5.78256">
        <ele>1821.1</ele>
        <time>2021-01-16T10:39:26Z</time>
      </trkpt>
      <trkpt lat="45.28439" lon="5.7827">
        <ele>1845.6</ele>
        <time>2021-01-16T10:39:41Z</time>
      </trkpt>
      <trkpt lat="45.28441" lon="5.78283">
        <ele>1829.3</ele>
        <time>2021-01-16T10:39:55Z</time>
      </trkpt>
      <trkpt lat="45.2844" lon="5.78296">
        <ele>1833.5</ele>
        <time>2021-01-16T10:40:09Z</time>
      </trkpt>
      <trkpt lat="45.28436" lon="5.78309">
        <ele>1837.9</ele>
        <time>2021-01-16T10:40:23Z</time>
      </trkpt>
      <trkpt lat="45.28436" lon="5.78312">
        <ele>1838.7</ele>
        <time>2021-01-16T10:40:27Z</time>
      </trkpt>
      <trkpt lat="45.28435" lon="5.78315">
        <ele>1859.4</ele>
        <time>2021-01-16T10:40:31Z</time>
      </trkpt>
      <trkpt lat="45.28434" lon="5.7832">
        <ele>1841.1</ele>
        <time>2021-01-16T10:40:36Z</time>
      </trkpt>
      <trkpt lat="45.28433" lon="5.78333">
        <ele>1844.7</ele>
        <time>2021-01-16T10:40:47Z</time>
      </trkpt>
      <trkpt lat="45.28433" lon="5.78346">
        <ele>1848.7</ele>
        <time>2021-01-16T10:41:02Z</time>
      </trkpt>
      <trkpt lat="45.28438" lon="5.78358">
        <ele>1852.2</ele>
        <time>2021-01-16T10:41:14Z</time>
      </trkpt>
      <trkpt lat="45.28445" lon="5.78367">
        <ele>1854.9</ele>
        <time>2021-01-16T10:41:23Z</time>
      </trkpt>
      <trkpt lat="45.28452" lon="5.78376">
        <ele>1857.6</ele>
        <time>2021-01-16T10:41:33Z</time>
      </trkpt>
      <trkpt lat="45.28459" lon="5.78384">
        <ele>1859.9</ele>
        <time>2021-01-16T10:41:44Z</time>
      </trkpt>
      <trkpt lat="45.28463" lon="5.78396">
        <ele>1863.7</ele>
        <time>2021-01-16T10:41:57Z</time>
      </trkpt>
      <trkpt lat="45.28461" lon="5.78399">
        <ele>1884.4</ele>
        <time>2021-01-16T10:42:01Z</time>
      </trkpt>
      <trkpt lat="45.28459" lon="5.78401">
        <ele>1865.4</ele>
        <time>2021-01-16T10:42:05Z</time>
      </trkpt>
      <trkpt lat="45.28457" lon="5.78403">
        <ele>1866.1</ele>
        <time>2021-01-16T10:42:09Z</time>
      </trkpt>
      <trkpt lat="45.28455" lon="5.78404">
        <ele>1866.4</ele>
        <time>2021-01-16T10:42:14Z</time>
      </trkpt>
      <trkpt lat="45.28453" lon="5.78405">
        <ele>1866.7</ele>
        <time>2021-01-16T10:42:17Z</time>
      </trkpt>
      <trkpt lat="45.28451" lon="5.78406">
        <ele>1867</ele>
        <time>2021-01-16T10:42:20Z</time>
      </trkpt>
      <trkpt lat="45.28449" lon="5.78408">
        <ele>1867.6</ele>
        <time>2021-01-16T10:42:24Z</time>
      </trkpt>
      <trkpt lat="45.28448" lon="5.78409">
        <ele>1867.8</ele>
        <time>2021-01-16T10:42:27Z</time>
      </trkpt>
      <trkpt lat="45.28446" lon="5.78411">
        <ele>1868.4</ele>
        <time>2021-01-16T10:42:30Z</time>
      </trkpt>
      <trkpt lat="45.28444" lon="5.78414">
        <ele>1869.3</ele>
        <time>2021-01-16T10:42:33Z</time>
      </trkpt>
      <trkpt lat="45.28442" lon="5.78415">
        <ele>1869.7</ele>
        <time>2021-01-16T10:42:36Z</time>
      </trkpt>
      <trkpt lat="45.2844" lon="5.78417">
        <ele>1870.4</ele>
        <time>2021-01-16T10:42:39Z</time>
      </trkpt>
      <trkpt lat="45.28439" lon="5.7842">
        <ele>1891.8</ele>
        <time>2021-01-16T10:42:41Z</time>
      </trkpt>
      <trkpt lat="45.28437" lon="5.78422">
        <ele>1872.3</ele>
        <time>2021-01-16T10:42:44Z</time>
      </trkpt>
      <trkpt lat="45.28435" lon="5.78424">
        <ele>1873.1</ele>
        <time>2021-01-16T10:42:46Z</time>
      </trkpt>
      <trkpt lat="45.28434" lon="5.78426">
        <ele>1873.8</ele>
        <time>2021-01-16T10:42:48Z</time>
      </trkpt>
      <trkpt lat="45.28432" lon="5.78428">
        <ele>1874.6</ele>
        <time>2021-01-16T10:42:50Z</time>
      </trkpt>
      <trkpt lat="45.28431" lon="5.7843">
        <ele>1875.3</ele>
        <time>2021-01-16T10:42:52Z</time>
      </trkpt>
      <trkpt lat="45.28428" lon="5.78432">
        <ele>1876.2</ele>
        <time>2021-01-16T10:42:55Z</time>
      </trkpt>
      <trkpt lat="45.28427" lon="5.78435">
        <ele>1877.2</ele>
        <time>2021-01-16T10:42:57Z</time>
      </trkpt>
      <trkpt lat="45.28425" lon="5.78439">
        <ele>1898.6</ele>
        <time>2021-01-16T10:43:01Z</time>
      </trkpt>
      <trkpt lat="45.28429" lon="5.7845">
        <ele>1882.1</ele>
        <time>2021-01-16T10:43:14Z</time>
      </trkpt>
      <trkpt lat="45.28429" lon="5.78463">
        <ele>1886.8</ele>
        <time>2021-01-16T10:43:34Z</time>
      </trkpt>
      <trkpt lat="45.28428" lon="5.78465">
        <ele>1887.6</ele>
        <time>2021-01-16T10:43:37Z</time>
      </trkpt>
      <trkpt lat="45.28428" lon="5.78481">
        <ele>1893.5</ele>
        <time>2021-01-16T10:43:52Z</time>
      </trkpt>
      <trkpt lat="45.2843" lon="5.78492">
        <ele>1915.4</ele>
        <time>2021-01-16T10:44:01Z</time>
      </trkpt>
      <trkpt lat="45.28427" lon="5.78491">
        <ele>1897.4</ele>
        <time>2021-01-16T10:44:06Z</time>
      </trkpt>
      <trkpt lat="45.28426" lon="5.78493">
        <ele>1898.3</ele>
        <time>2021-01-16T10:44:09Z</time>
      </trkpt>
      <trkpt lat="45.28423" lon="5.78493">
        <ele>1898.6</ele>
        <time>2021-01-16T10:44:12Z</time>
      </trkpt>
      <trkpt lat="45.28421" lon="5.78495">
        <ele>1899.6</ele>
        <time>2021-01-16T10:44:15Z</time>
      </trkpt>
      <trkpt lat="45.28419" lon="5.78497">
        <ele>1900.6</ele>
        <time>2021-01-16T10:44:18Z</time>
      </trkpt>
      <trkpt lat="45.28417" lon="5.78498">
        <ele>1919.8</ele>
        <time>2021-01-16T10:44:21Z</time>
      </trkpt>
      <trkpt lat="45.28415" lon="5.785">
        <ele>1902.3</ele>
        <time>2021-01-16T10:44:24Z</time>
      </trkpt>
      <trkpt lat="45.28414" lon="5.78502">
        <ele>1903.3</ele>
        <time>2021-01-16T10:44:26Z</time>
      </trkpt>
      <trkpt lat="45.28411" lon="5.78502">
        <ele>1903.8</ele>
        <time>2021-01-16T10:44:29Z</time>
      </trkpt>
      <trkpt lat="45.28409" lon="5.78502">
        <ele>1904.2</ele>
        <time>2021-01-16T10:44:32Z</time>
      </trkpt>
      <trkpt lat="45.28408" lon="5.78504">
        <ele>1905.1</ele>
        <time>2021-01-16T10:44:35Z</time>
      </trkpt>
      <trkpt lat="45.28406" lon="5.78505">
        <ele>1905.8</ele>
        <time>2021-01-16T10:44:37Z</time>
      </trkpt>
      <trkpt lat="45.28403" lon="5.78505">
        <ele>1906.4</ele>
        <time>2021-01-16T10:44:39Z</time>
      </trkpt>
      <trkpt lat="45.28401" lon="5.78505">
        <ele>1925.8</ele>
        <time>2021-01-16T10:44:41Z</time>
      </trkpt>
      <trkpt lat="45.28399" lon="5.78506">
        <ele>1907.4</ele>
        <time>2021-01-16T10:44:44Z</time>
      </trkpt>
      <trkpt lat="45.28397" lon="5.78507">
        <ele>1908.1</ele>
        <time>2021-01-16T10:44:47Z</time>
      </trkpt>
      <trkpt lat="45.28396" lon="5.78509">
        <ele>1909</ele>
        <time>2021-01-16T10:44:52Z</time>
      </trkpt>
      <trkpt lat="45.28397" lon="5.78513">
        <ele>1910.4</ele>
        <time>2021-01-16T10:44:56Z</time>
      </trkpt>
      <trkpt lat="45.28402" lon="5.78524">
        <ele>1913.7</ele>
        <time>2021-01-16T10:45:09Z</time>
      </trkpt>
      <trkpt lat="45.28409" lon="5.78533">
        <ele>1916</ele>
        <time>2021-01-16T10:45:18Z</time>
      </trkpt>
      <trkpt lat="45.28411" lon="5.78539">
        <ele>1917.9</ele>
        <time>2021-01-16T10:45:24Z</time>
      </trkpt>
      <trkpt lat="45.28409" lon="5.78539">
        <ele>1918.1</ele>
        <time>2021-01-16T10:45:27Z</time>
      </trkpt>
      <trkpt lat="45.28407" lon="5.78539">
        <ele>1918.4</ele>
        <time>2021-01-16T10:45:29Z</time>
      </trkpt>
      <trkpt lat="45.28405" lon="5.78541">
        <ele>1919.4</ele>
        <time>2021-01-16T10:45:32Z</time>
      </trkpt>
      <trkpt lat="45.28403" lon="5.78542">
        <ele>1920.1</ele>
        <time>2021-01-16T10:45:35Z</time>
      </trkpt>
      <trkpt lat="45.28401" lon="5.78543">
        <ele>1920.7</ele>
        <time>2021-01-16T10:45:37Z</time>
      </trkpt>
      <trkpt lat="45.28399" lon="5.78545">
        <ele>1921.7</ele>
        <time>2021-01-16T10:45:39Z</time>
      </trkpt>
      <trkpt lat="45.28397" lon="5.78546">
        <ele>1922.4</ele>
        <time>2021-01-16T10:45:42Z</time>
      </trkpt>
      <trkpt lat="45.28396" lon="5.78548">
        <ele>1923.3</ele>
        <time>2021-01-16T10:45:45Z</time>
      </trkpt>
      <trkpt lat="45.28393" lon="5.78548">
        <ele>1923.7</ele>
        <time>2021-01-16T10:45:48Z</time>
      </trkpt>
      <trkpt lat="45.28391" lon="5.7855">
        <ele>1944</ele>
        <time>2021-01-16T10:45:51Z</time>
      </trkpt>
      <trkpt lat="45.28389" lon="5.7855">
        <ele>1925</ele>
        <time>2021-01-16T10:45:54Z</time>
      </trkpt>
      <trkpt lat="45.28386" lon="5.78551">
        <ele>1925.1</ele>
        <time>2021-01-16T10:45:57Z</time>
      </trkpt>
      <trkpt lat="45.28384" lon="5.78553">
        <ele>1925.6</ele>
        <time>2021-01-16T10:46:00Z</time>
      </trkpt>
      <trkpt lat="45.28382" lon="5.78554">
        <ele>1925.8</ele>
        <time>2021-01-16T10:46:04Z</time>
      </trkpt>
      <trkpt lat="45.28383" lon="5.78559">
        <ele>1927.2</ele>
        <time>2021-01-16T10:46:10Z</time>
      </trkpt>
      <trkpt lat="45.28385" lon="5.78562">
        <ele>1928.3</ele>
        <time>2021-01-16T10:46:13Z</time>
      </trkpt>
      <trkpt lat="45.28393" lon="5.7857">
        <ele>1931.3</ele>
        <time>2021-01-16T10:46:23Z</time>
      </trkpt>
      <trkpt lat="45.284" lon="5.78577">
        <ele>1933.3</ele>
        <time>2021-01-16T10:46:35Z</time>
      </trkpt>
      <trkpt lat="45.28408" lon="5.78586">
        <ele>1935.8</ele>
        <time>2021-01-16T10:46:46Z</time>
      </trkpt>
      <trkpt lat="45.28417" lon="5.78592">
        <ele>1937.8</ele>
        <time>2021-01-16T10:46:58Z</time>
      </trkpt>
      <trkpt lat="45.2842" lon="5.78601">
        <ele>1963.4</ele>
        <time>2021-01-16T10:47:11Z</time>
      </trkpt>
      <trkpt lat="45.28418" lon="5.78601">
        <ele>1940.8</ele>
        <time>2021-01-16T10:47:14Z</time>
      </trkpt>
      <trkpt lat="45.28416" lon="5.78603">
        <ele>1941.2</ele>
        <time>2021-01-16T10:47:18Z</time>
      </trkpt>
      <trkpt lat="45.28413" lon="5.78616">
        <ele>1970.4</ele>
        <time>2021-01-16T10:47:31Z</time>
      </trkpt>
      <trkpt lat="45.28412" lon="5.78617">
        <ele>1942</ele>
        <time>2021-01-16T10:47:34Z</time>
      </trkpt>
      <trkpt lat="45.28414" lon="5.78618">
        <ele>1971.4</ele>
        <time>2021-01-16T10:47:41Z</time>
      </trkpt>
      <trkpt lat="45.28415" lon="5.78619">
        <ele>1943.6</ele>
        <time>2021-01-16T10:47:49Z</time>
      </trkpt>
      <trkpt lat="45.28417" lon="5.78617">
        <ele>1944.5</ele>
        <time>2021-01-16T10:48:02Z</time>
      </trkpt>
      <trkpt lat="45.28419" lon="5.78618">
        <ele>1944.9</ele>
        <time>2021-01-16T10:48:04Z</time>
      </trkpt>
      <trkpt lat="45.28421" lon="5.78619">
        <ele>1945.4</ele>
        <time>2021-01-16T10:48:29Z</time>
      </trkpt>
      <trkpt lat="45.28422" lon="5.78621">
        <ele>1945.9</ele>
        <time>2021-01-16T10:48:34Z</time>
      </trkpt>
      <trkpt lat="45.28425" lon="5.78622">
        <ele>1946.7</ele>
        <time>2021-01-16T10:48:49Z</time>
      </trkpt>
      <trkpt lat="45.28427" lon="5.78621">
        <ele>1947</ele>
        <time>2021-01-16T10:48:53Z</time>
      </trkpt>
      <trkpt lat="45.28429" lon="5.78621">
        <ele>1947.5</ele>
        <time>2021-01-16T10:48:57Z</time>
      </trkpt>
      <trkpt lat="45.28428" lon="5.78619">
        <ele>1946.8</ele>
        <time>2021-01-16T10:49:55Z</time>
      </trkpt>
      <trkpt lat="45.28431" lon="5.78619">
        <ele>1947.4</ele>
        <time>2021-01-16T10:50:24Z</time>
      </trkpt>
      <trkpt lat="45.28433" lon="5.78617">
        <ele>1947.3</ele>
        <time>2021-01-16T10:51:23Z</time>
      </trkpt>
      <trkpt lat="45.28435" lon="5.78614">
        <ele>1946.8</ele>
        <time>2021-01-16T10:51:25Z</time>
      </trkpt>
      <trkpt lat="45.28437" lon="5.78612">
        <ele>1946.5</ele>
        <time>2021-01-16T10:51:26Z</time>
      </trkpt>
      <trkpt lat="45.28439" lon="5.7861">
        <ele>1945.9</ele>
        <time>2021-01-16T10:51:27Z</time>
      </trkpt>
      <trkpt lat="45.28444" lon="5.78604">
        <ele>1943.6</ele>
        <time>2021-01-16T10:51:29Z</time>
      </trkpt>
      <trkpt lat="45.28446" lon="5.78602">
        <ele>1942.7</ele>
        <time>2021-01-16T10:51:30Z</time>
      </trkpt>
      <trkpt lat="45.28448" lon="5.78599">
        <ele>1967</ele>
        <time>2021-01-16T10:51:31Z</time>
      </trkpt>
      <trkpt lat="45.28451" lon="5.78596">
        <ele>1939.9</ele>
        <time>2021-01-16T10:51:32Z</time>
      </trkpt>
      <trkpt lat="45.28454" lon="5.78591">
        <ele>1937.6</ele>
        <time>2021-01-16T10:51:33Z</time>
      </trkpt>
      <trkpt lat="45.28457" lon="5.78585">
        <ele>1934.8</ele>
        <time>2021-01-16T10:51:34Z</time>
      </trkpt>
      <trkpt lat="45.28458" lon="5.78578">
        <ele>1931.9</ele>
        <time>2021-01-16T10:51:35Z</time>
      </trkpt>
      <trkpt lat="45.28455" lon="5.78569">
        <ele>1928.2</ele>
        <time>2021-01-16T10:51:36Z</time>
      </trkpt>
      <trkpt lat="45.28449" lon="5.7856">
        <ele>1924.2</ele>
        <time>2021-01-16T10:51:37Z</time>
      </trkpt>
      <trkpt lat="45.28443" lon="5.7855">
        <ele>1919.9</ele>
        <time>2021-01-16T10:51:38Z</time>
      </trkpt>
      <trkpt lat="45.2844" lon="5.78537">
        <ele>1914.9</ele>
        <time>2021-01-16T10:51:39Z</time>
      </trkpt>
      <trkpt lat="45.28437" lon="5.78523">
        <ele>1909.5</ele>
        <time>2021-01-16T10:51:40Z</time>
      </trkpt>
      <trkpt lat="45.28431" lon="5.78513">
        <ele>1949.6</ele>
        <time>2021-01-16T10:51:41Z</time>
      </trkpt>
      <trkpt lat="45.28425" lon="5.78502">
        <ele>1901.9</ele>
        <time>2021-01-16T10:51:42Z</time>
      </trkpt>
      <trkpt lat="45.2842" lon="5.7848">
        <ele>1893.8</ele>
        <time>2021-01-16T10:51:44Z</time>
      </trkpt>
      <trkpt lat="45.28412" lon="5.78459">
        <ele>1886.9</ele>
        <time>2021-01-16T10:51:46Z</time>
      </trkpt>
      <trkpt lat="45.2841" lon="5.78439">
        <ele>1880.2</ele>
        <time>2021-01-16T10:51:48Z</time>
      </trkpt>
      <trkpt lat="45.28405" lon="5.78418">
        <ele>1874.1</ele>
        <time>2021-01-16T10:51:50Z</time>
      </trkpt>
      <trkpt lat="45.28405" lon="5.78395">
        <ele>1866.7</ele>
        <time>2021-01-16T10:51:52Z</time>
      </trkpt>
      <trkpt lat="45.28403" lon="5.78382">
        <ele>1862.9</ele>
        <time>2021-01-16T10:51:53Z</time>
      </trkpt>
      <trkpt lat="45.28395" lon="5.78359">
        <ele>1857.2</ele>
        <time>2021-01-16T10:51:55Z</time>
      </trkpt>
      <trkpt lat="45.28388" lon="5.7835">
        <ele>1855.6</ele>
        <time>2021-01-16T10:51:56Z</time>
      </trkpt>
      <trkpt lat="45.28381" lon="5.78342">
        <ele>1854.7</ele>
        <time>2021-01-16T10:51:57Z</time>
      </trkpt>
      <trkpt lat="45.28374" lon="5.78334">
        <ele>1854</ele>
        <time>2021-01-16T10:51:58Z</time>
      </trkpt>
      <trkpt lat="45.28367" lon="5.78325">
        <ele>1853.1</ele>
        <time>2021-01-16T10:51:59Z</time>
      </trkpt>
      <trkpt lat="45.2836" lon="5.78317">
        <ele>1852.6</ele>
        <time>2021-01-16T10:52:00Z</time>
      </trkpt>
      <trkpt lat="45.28354" lon="5.78309">
        <ele>1881</ele>
        <time>2021-01-16T10:52:01Z</time>
      </trkpt>
      <trkpt lat="45.28345" lon="5.78293">
        <ele>1849</ele>
        <time>2021-01-16T10:52:03Z</time>
      </trkpt>
      <trkpt lat="45.28344" lon="5.78276">
        <ele>1843.8</ele>
        <time>2021-01-16T10:52:05Z</time>
      </trkpt>
      <trkpt lat="45.28348" lon="5.78256">
        <ele>1836.6</ele>
        <time>2021-01-16T10:52:07Z</time>
      </trkpt>
      <trkpt lat="45.28355" lon="5.78235">
        <ele>1828.7</ele>
        <time>2021-01-16T10:52:09Z</time>
      </trkpt>
      <trkpt lat="45.28367" lon="5.78221">
        <ele>1858.6</ele>
        <time>2021-01-16T10:52:11Z</time>
      </trkpt>
      <trkpt lat="45.28367" lon="5.78201">
        <ele>1815.9</ele>
        <time>2021-01-16T10:52:13Z</time>
      </trkpt>
      <trkpt lat="45.28358" lon="5.78203">
        <ele>1818.5</ele>
        <time>2021-01-16T10:52:17Z</time>
      </trkpt>
      <trkpt lat="45.28357" lon="5.78189">
        <ele>1814.3</ele>
        <time>2021-01-16T10:52:20Z</time>
      </trkpt>
      <trkpt lat="45.28354" lon="5.7818">
        <ele>1839.4</ele>
        <time>2021-01-16T10:52:21Z</time>
      </trkpt>
      <trkpt lat="45.28352" lon="5.78168">
        <ele>1808.7</ele>
        <time>2021-01-16T10:52:22Z</time>
      </trkpt>
      <trkpt lat="45.28353" lon="5.78158">
        <ele>1805.2</ele>
        <time>2021-01-16T10:52:23Z</time>
      </trkpt>
      <trkpt lat="45.28359" lon="5.78152">
        <ele>1801.8</ele>
        <time>2021-01-16T10:52:24Z</time>
      </trkpt>
      <trkpt lat="45.28372" lon="5.78139">
        <ele>1793.9</ele>
        <time>2021-01-16T10:52:26Z</time>
      </trkpt>
      <trkpt lat="45.28381" lon="5.78136">
        <ele>1790.2</ele>
        <time>2021-01-16T10:52:28Z</time>
      </trkpt>
      <trkpt lat="45.28379" lon="5.78137">
        <ele>1791.1</ele>
        <time>2021-01-16T10:52:34Z</time>
      </trkpt>
      <trkpt lat="45.28379" lon="5.78134">
        <ele>1790</ele>
        <time>2021-01-16T10:52:38Z</time>
      </trkpt>
      <trkpt lat="45.2838" lon="5.78126">
        <ele>1786.6</ele>
        <time>2021-01-16T10:52:39Z</time>
      </trkpt>
      <trkpt lat="45.28381" lon="5.78116">
        <ele>1782.4</ele>
        <time>2021-01-16T10:52:40Z</time>
      </trkpt>
      <trkpt lat="45.28379" lon="5.78103">
        <ele>1811</ele>
        <time>2021-01-16T10:52:41Z</time>
      </trkpt>
      <trkpt lat="45.28382" lon="5.78084">
        <ele>1769.2</ele>
        <time>2021-01-16T10:52:43Z</time>
      </trkpt>
      <trkpt lat="45.28384" lon="5.78069">
        <ele>1762.2</ele>
        <time>2021-01-16T10:52:45Z</time>
      </trkpt>
      <trkpt lat="45.28381" lon="5.78061">
        <ele>1760.4</ele>
        <time>2021-01-16T10:52:49Z</time>
      </trkpt>
      <trkpt lat="45.28382" lon="5.78055">
        <ele>1757.5</ele>
        <time>2021-01-16T10:52:50Z</time>
      </trkpt>
      <trkpt lat="45.28383" lon="5.78048">
        <ele>1791.2</ele>
        <time>2021-01-16T10:52:51Z</time>
      </trkpt>
      <trkpt lat="45.28392" lon="5.78038">
        <ele>1743.9</ele>
        <time>2021-01-16T10:52:54Z</time>
      </trkpt>
      <trkpt lat="45.28399" lon="5.78035">
        <ele>1738.3</ele>
        <time>2021-01-16T10:53:04Z</time>
      </trkpt>
      <trkpt lat="45.28397" lon="5.78033">
        <ele>1738.5</ele>
        <time>2021-01-16T10:53:06Z</time>
      </trkpt>
      <trkpt lat="45.28401" lon="5.78033">
        <ele>1736.1</ele>
        <time>2021-01-16T10:53:09Z</time>
      </trkpt>
      <trkpt lat="45.28402" lon="5.78036">
        <ele>1772.8</ele>
        <time>2021-01-16T10:53:11Z</time>
      </trkpt>
      <trkpt lat="45.28403" lon="5.78038">
        <ele>1737.3</ele>
        <time>2021-01-16T10:53:15Z</time>
      </trkpt>
      <trkpt lat="45.28404" lon="5.78051">
        <ele>1743.1</ele>
        <time>2021-01-16T10:53:50Z</time>
      </trkpt>
      <trkpt lat="45.28406" lon="5.78053">
        <ele>1742.9</ele>
        <time>2021-01-16T10:54:06Z</time>
      </trkpt>
      <trkpt lat="45.28408" lon="5.78053">
        <ele>1765.8</ele>
        <time>2021-01-16T10:54:11Z</time>
      </trkpt>
      <trkpt lat="45.28409" lon="5.78054">
        <ele>1741.6</ele>
        <time>2021-01-16T10:54:15Z</time>
      </trkpt>
      <trkpt lat="45.28407" lon="5.78055">
        <ele>1743.3</ele>
        <time>2021-01-16T10:54:20Z</time>
      </trkpt>
      <trkpt lat="45.28415" lon="5.78062">
        <ele>1742.2</ele>
        <time>2021-01-16T10:55:03Z</time>
      </trkpt>
      <trkpt lat="45.28414" lon="5.7806">
        <ele>1741.7</ele>
        <time>2021-01-16T10:55:10Z</time>
      </trkpt>
      <trkpt lat="45.28412" lon="5.7806">
        <ele>1742.9</ele>
        <time>2021-01-16T10:55:18Z</time>
      </trkpt>
      <trkpt lat="45.2841" lon="5.78061">
        <ele>1744.5</ele>
        <time>2021-01-16T10:55:29Z</time>
      </trkpt>
      <trkpt lat="45.2841" lon="5.78058">
        <ele>1743</ele>
        <time>2021-01-16T10:55:49Z</time>
      </trkpt>
      <trkpt lat="45.28414" lon="5.78058">
        <ele>1740.8</ele>
        <time>2021-01-16T10:56:00Z</time>
      </trkpt>
      <trkpt lat="45.28421" lon="5.78048">
        <ele>1731.3</ele>
        <time>2021-01-16T10:56:04Z</time>
      </trkpt>
      <trkpt lat="45.28436" lon="5.78045">
        <ele>1720</ele>
        <time>2021-01-16T10:56:07Z</time>
      </trkpt>
      <trkpt lat="45.28431" lon="5.78024">
        <ele>1713.6</ele>
        <time>2021-01-16T10:56:09Z</time>
      </trkpt>
      <trkpt lat="45.28425" lon="5.78013">
        <ele>1712.3</ele>
        <time>2021-01-16T10:56:10Z</time>
      </trkpt>
      <trkpt lat="45.28413" lon="5.77996">
        <ele>1711.2</ele>
        <time>2021-01-16T10:56:12Z</time>
      </trkpt>
      <trkpt lat="45.28399" lon="5.77985">
        <ele>1713.5</ele>
        <time>2021-01-16T10:56:14Z</time>
      </trkpt>
      <trkpt lat="45.28391" lon="5.77992">
        <ele>1721.5</ele>
        <time>2021-01-16T10:56:25Z</time>
      </trkpt>
      <trkpt lat="45.28386" lon="5.77991">
        <ele>1723.8</ele>
        <time>2021-01-16T10:56:36Z</time>
      </trkpt>
      <trkpt lat="45.2838" lon="5.77983">
        <ele>1722.9</ele>
        <time>2021-01-16T10:56:42Z</time>
      </trkpt>
      <trkpt lat="45.28379" lon="5.7798">
        <ele>1721.7</ele>
        <time>2021-01-16T10:56:43Z</time>
      </trkpt>
      <trkpt lat="45.28378" lon="5.77978">
        <ele>1721.2</ele>
        <time>2021-01-16T10:56:44Z</time>
      </trkpt>
      <trkpt lat="45.2837" lon="5.77968">
        <ele>1730.6</ele>
        <time>2021-01-16T10:56:51Z</time>
      </trkpt>
      <trkpt lat="45.28363" lon="5.7796">
        <ele>1719</ele>
        <time>2021-01-16T10:57:00Z</time>
      </trkpt>
      <trkpt lat="45.28356" lon="5.77948">
        <ele>1715.8</ele>
        <time>2021-01-16T10:57:08Z</time>
      </trkpt>
      <trkpt lat="45.28352" lon="5.77933">
        <ele>1727</ele>
        <time>2021-01-16T10:57:11Z</time>
      </trkpt>
      <trkpt lat="45.28352" lon="5.77919">
        <ele>1701.9</ele>
        <time>2021-01-16T10:57:13Z</time>
      </trkpt>
      <trkpt lat="45.2835" lon="5.77904">
        <ele>1695.8</ele>
        <time>2021-01-16T10:57:15Z</time>
      </trkpt>
      <trkpt lat="45.28347" lon="5.77891">
        <ele>1691.1</ele>
        <time>2021-01-16T10:57:17Z</time>
      </trkpt>
      <trkpt lat="45.28349" lon="5.77875">
        <ele>1683.2</ele>
        <time>2021-01-16T10:57:20Z</time>
      </trkpt>
      <trkpt lat="45.28352" lon="5.77862">
        <ele>1676.3</ele>
        <time>2021-01-16T10:57:22Z</time>
      </trkpt>
      <trkpt lat="45.28361" lon="5.77852">
        <ele>1667.8</ele>
        <time>2021-01-16T10:57:25Z</time>
      </trkpt>
      <trkpt lat="45.28357" lon="5.77836">
        <ele>1662.2</ele>
        <time>2021-01-16T10:57:37Z</time>
      </trkpt>
      <trkpt lat="45.28364" lon="5.77826">
        <ele>1654.2</ele>
        <time>2021-01-16T10:57:42Z</time>
      </trkpt>
      <trkpt lat="45.28365" lon="5.77813">
        <ele>1647.7</ele>
        <time>2021-01-16T10:57:46Z</time>
      </trkpt>
      <trkpt lat="45.28375" lon="5.77809">
        <ele>1641.1</ele>
        <time>2021-01-16T10:57:56Z</time>
      </trkpt>
      <trkpt lat="45.28385" lon="5.77797">
        <ele>1630.8</ele>
        <time>2021-01-16T10:57:59Z</time>
      </trkpt>
      <trkpt lat="45.28392" lon="5.77779">
        <ele>1650.4</ele>
        <time>2021-01-16T10:58:01Z</time>
      </trkpt>
      <trkpt lat="45.284" lon="5.77769">
        <ele>1611</ele>
        <time>2021-01-16T10:58:03Z</time>
      </trkpt>
      <trkpt lat="45.28399" lon="5.77777">
        <ele>1614.9</ele>
        <time>2021-01-16T10:58:15Z</time>
      </trkpt>
      <trkpt lat="45.28398" lon="5.77775">
        <ele>1614.5</ele>
        <time>2021-01-16T10:58:24Z</time>
      </trkpt>
      <trkpt lat="45.28398" lon="5.77771">
        <ele>1612.8</ele>
        <time>2021-01-16T10:58:25Z</time>
      </trkpt>
      <trkpt lat="45.28397" lon="5.77756">
        <ele>1606.8</ele>
        <time>2021-01-16T10:58:28Z</time>
      </trkpt>
      <trkpt lat="45.28401" lon="5.77739">
        <ele>1597.8</ele>
        <time>2021-01-16T10:58:30Z</time>
      </trkpt>
      <trkpt lat="45.28401" lon="5.77726">
        <ele>1619</ele>
        <time>2021-01-16T10:58:31Z</time>
      </trkpt>
      <trkpt lat="45.28408" lon="5.77713">
        <ele>1583.4</ele>
        <time>2021-01-16T10:58:33Z</time>
      </trkpt>
      <trkpt lat="45.28419" lon="5.7771">
        <ele>1577.3</ele>
        <time>2021-01-16T10:58:35Z</time>
      </trkpt>
      <trkpt lat="45.28426" lon="5.77695">
        <ele>1567.6</ele>
        <time>2021-01-16T10:58:40Z</time>
      </trkpt>
      <trkpt lat="45.28434" lon="5.77689">
        <ele>1561.8</ele>
        <time>2021-01-16T10:58:43Z</time>
      </trkpt>
      <trkpt lat="45.28436" lon="5.77673">
        <ele>1554.1</ele>
        <time>2021-01-16T10:58:49Z</time>
      </trkpt>
      <trkpt lat="45.28448" lon="5.77673">
        <ele>1549.6</ele>
        <time>2021-01-16T10:58:56Z</time>
      </trkpt>
      <trkpt lat="45.28458" lon="5.77673">
        <ele>1546.2</ele>
        <time>2021-01-16T10:58:59Z</time>
      </trkpt>
      <trkpt lat="45.28462" lon="5.77685">
        <ele>1565.8</ele>
        <time>2021-01-16T10:59:41Z</time>
      </trkpt>
      <trkpt lat="45.28463" lon="5.77687">
        <ele>1550.3</ele>
        <time>2021-01-16T10:59:49Z</time>
      </trkpt>
      <trkpt lat="45.28472" lon="5.77678">
        <ele>1543.6</ele>
        <time>2021-01-16T10:59:58Z</time>
      </trkpt>
      <trkpt lat="45.28482" lon="5.77668">
        <ele>1554.6</ele>
        <time>2021-01-16T11:00:01Z</time>
      </trkpt>
      <trkpt lat="45.28492" lon="5.7767">
        <ele>1533.2</ele>
        <time>2021-01-16T11:00:05Z</time>
      </trkpt>
      <trkpt lat="45.28505" lon="5.77672">
        <ele>1529.7</ele>
        <time>2021-01-16T11:00:08Z</time>
      </trkpt>
      <trkpt lat="45.28515" lon="5.77674">
        <ele>1544</ele>
        <time>2021-01-16T11:00:11Z</time>
      </trkpt>
      <trkpt lat="45.28525" lon="5.77672">
        <ele>1523.9</ele>
        <time>2021-01-16T11:00:14Z</time>
      </trkpt>
      <trkpt lat="45.28537" lon="5.77672">
        <ele>1520.8</ele>
        <time>2021-01-16T11:00:18Z</time>
      </trkpt>
      <trkpt lat="45.28547" lon="5.77671">
        <ele>1517.9</ele>
        <time>2021-01-16T11:00:22Z</time>
      </trkpt>
      <trkpt lat="45.28549" lon="5.77672">
        <ele>1517.8</ele>
        <time>2021-01-16T11:00:23Z</time>
      </trkpt>
      <trkpt lat="45.2855" lon="5.77675">
        <ele>1518.7</ele>
        <time>2021-01-16T11:00:24Z</time>
      </trkpt>
      <trkpt lat="45.28551" lon="5.77677">
        <ele>1519.2</ele>
        <time>2021-01-16T11:00:33Z</time>
      </trkpt>
      <trkpt lat="45.28552" lon="5.7768">
        <ele>1520.2</ele>
        <time>2021-01-16T11:00:38Z</time>
      </trkpt>
      <trkpt lat="45.28554" lon="5.77684">
        <ele>1535</ele>
        <time>2021-01-16T11:00:41Z</time>
      </trkpt>
      <trkpt lat="45.28556" lon="5.77687">
        <ele>1521.9</ele>
        <time>2021-01-16T11:00:44Z</time>
      </trkpt>
      <trkpt lat="45.28557" lon="5.77691">
        <ele>1534.2</ele>
        <time>2021-01-16T11:00:51Z</time>
      </trkpt>
      <trkpt lat="45.28559" lon="5.77691">
        <ele>1522.7</ele>
        <time>2021-01-16T11:00:53Z</time>
      </trkpt>
      <trkpt lat="45.28557" lon="5.77688">
        <ele>1522</ele>
        <time>2021-01-16T11:01:22Z</time>
      </trkpt>
      <trkpt lat="45.28556" lon="5.77684">
        <ele>1520.7</ele>
        <time>2021-01-16T11:01:23Z</time>
      </trkpt>
      <trkpt lat="45.28554" lon="5.7768">
        <ele>1519.7</ele>
        <time>2021-01-16T11:01:24Z</time>
      </trkpt>
      <trkpt lat="45.28551" lon="5.77674">
        <ele>1518.1</ele>
        <time>2021-01-16T11:01:25Z</time>
      </trkpt>
      <trkpt lat="45.28548" lon="5.77668">
        <ele>1516.4</ele>
        <time>2021-01-16T11:01:26Z</time>
      </trkpt>
      <trkpt lat="45.28548" lon="5.7766">
        <ele>1513.7</ele>
        <time>2021-01-16T11:01:27Z</time>
      </trkpt>
      <trkpt lat="45.28549" lon="5.77652">
        <ele>1510.9</ele>
        <time>2021-01-16T11:01:28Z</time>
      </trkpt>
      <trkpt lat="45.2855" lon="5.77642">
        <ele>1507.4</ele>
        <time>2021-01-16T11:01:29Z</time>
      </trkpt>
      <trkpt lat="45.28551" lon="5.77632">
        <ele>1504.2</ele>
        <time>2021-01-16T11:01:30Z</time>
      </trkpt>
      <trkpt lat="45.28554" lon="5.77622">
        <ele>1522.6</ele>
        <time>2021-01-16T11:01:31Z</time>
      </trkpt>
      <trkpt lat="45.28561" lon="5.77608">
        <ele>1494.9</ele>
        <time>2021-01-16T11:01:33Z</time>
      </trkpt>
      <trkpt lat="45.28573" lon="5.77583">
        <ele>1486.2</ele>
        <time>2021-01-16T11:01:36Z</time>
      </trkpt>
      <trkpt lat="45.28576" lon="5.77573">
        <ele>1483.1</ele>
        <time>2021-01-16T11:01:37Z</time>
      </trkpt>
      <trkpt lat="45.28583" lon="5.77554">
        <ele>1476.7</ele>
        <time>2021-01-16T11:01:39Z</time>
      </trkpt>
      <trkpt lat="45.28589" lon="5.77535">
        <ele>1493.8</ele>
        <time>2021-01-16T11:01:41Z</time>
      </trkpt>
      <trkpt lat="45.28596" lon="5.77518">
        <ele>1463.8</ele>
        <time>2021-01-16T11:01:43Z</time>
      </trkpt>
      <trkpt lat="45.28604" lon="5.775">
        <ele>1456.5</ele>
        <time>2021-01-16T11:01:45Z</time>
      </trkpt>
      <trkpt lat="45.28613" lon="5.77487">
        <ele>1450.8</ele>
        <time>2021-01-16T11:01:47Z</time>
      </trkpt>
      <trkpt lat="45.2862" lon="5.77472">
        <ele>1445</ele>
        <time>2021-01-16T11:01:49Z</time>
      </trkpt>
      <trkpt lat="45.28625" lon="5.77456">
        <ele>1462.2</ele>
        <time>2021-01-16T11:01:51Z</time>
      </trkpt>
      <trkpt lat="45.28631" lon="5.77442">
        <ele>1434</ele>
        <time>2021-01-16T11:01:53Z</time>
      </trkpt>
      <trkpt lat="45.28636" lon="5.77431">
        <ele>1429.7</ele>
        <time>2021-01-16T11:01:55Z</time>
      </trkpt>
      <trkpt lat="45.2864" lon="5.77418">
        <ele>1425.2</ele>
        <time>2021-01-16T11:01:57Z</time>
      </trkpt>
      <trkpt lat="45.2864" lon="5.77395">
        <ele>1419.4</ele>
        <time>2021-01-16T11:01:59Z</time>
      </trkpt>
      <trkpt lat="45.28648" lon="5.77384">
        <ele>1415.5</ele>
        <time>2021-01-16T11:02:01Z</time>
      </trkpt>
      <trkpt lat="45.28657" lon="5.77392">
        <ele>1416.2</ele>
        <time>2021-01-16T11:02:03Z</time>
      </trkpt>
      <trkpt lat="45.28654" lon="5.77371">
        <ele>1411.7</ele>
        <time>2021-01-16T11:02:08Z</time>
      </trkpt>
      <trkpt lat="45.28659" lon="5.77353">
        <ele>1406.8</ele>
        <time>2021-01-16T11:02:10Z</time>
      </trkpt>
      <trkpt lat="45.28666" lon="5.7733">
        <ele>1400.3</ele>
        <time>2021-01-16T11:02:12Z</time>
      </trkpt>
      <trkpt lat="45.28668" lon="5.77318">
        <ele>1397.5</ele>
        <time>2021-01-16T11:02:13Z</time>
      </trkpt>
      <trkpt lat="45.28674" lon="5.77296">
        <ele>1392.1</ele>
        <time>2021-01-16T11:02:15Z</time>
      </trkpt>
      <trkpt lat="45.28687" lon="5.77295">
        <ele>1390.5</ele>
        <time>2021-01-16T11:02:17Z</time>
      </trkpt>
      <trkpt lat="45.28696" lon="5.7729">
        <ele>1388.4</ele>
        <time>2021-01-16T11:02:19Z</time>
      </trkpt>
      <trkpt lat="45.28698" lon="5.77276">
        <ele>1393.6</ele>
        <time>2021-01-16T11:02:21Z</time>
      </trkpt>
      <trkpt lat="45.28698" lon="5.77257">
        <ele>1381.1</ele>
        <time>2021-01-16T11:02:23Z</time>
      </trkpt>
      <trkpt lat="45.28701" lon="5.77237">
        <ele>1377.4</ele>
        <time>2021-01-16T11:02:25Z</time>
      </trkpt>
      <trkpt lat="45.28703" lon="5.77209">
        <ele>1372.8</ele>
        <time>2021-01-16T11:02:27Z</time>
      </trkpt>
      <trkpt lat="45.28703" lon="5.77194">
        <ele>1370.3</ele>
        <time>2021-01-16T11:02:28Z</time>
      </trkpt>
      <trkpt lat="45.28701" lon="5.77178">
        <ele>1368.2</ele>
        <time>2021-01-16T11:02:29Z</time>
      </trkpt>
      <trkpt lat="45.28699" lon="5.77162">
        <ele>1365.9</ele>
        <time>2021-01-16T11:02:30Z</time>
      </trkpt>
      <trkpt lat="45.28697" lon="5.77146">
        <ele>1373.8</ele>
        <time>2021-01-16T11:02:31Z</time>
      </trkpt>
      <trkpt lat="45.28694" lon="5.77131">
        <ele>1360.6</ele>
        <time>2021-01-16T11:02:32Z</time>
      </trkpt>
      <trkpt lat="45.28692" lon="5.77116">
        <ele>1358</ele>
        <time>2021-01-16T11:02:33Z</time>
      </trkpt>
      <trkpt lat="45.28688" lon="5.771">
        <ele>1355.5</ele>
        <time>2021-01-16T11:02:34Z</time>
      </trkpt>
      <trkpt lat="45.28685" lon="5.77085">
        <ele>1353.3</ele>
        <time>2021-01-16T11:02:35Z</time>
      </trkpt>
      <trkpt lat="45.28682" lon="5.77071">
        <ele>1350.8</ele>
        <time>2021-01-16T11:02:36Z</time>
      </trkpt>
      <trkpt lat="45.2868" lon="5.77058">
        <ele>1348.4</ele>
        <time>2021-01-16T11:02:37Z</time>
      </trkpt>
      <trkpt lat="45.28676" lon="5.77046">
        <ele>1346.4</ele>
        <time>2021-01-16T11:02:38Z</time>
      </trkpt>
      <trkpt lat="45.2867" lon="5.77024">
        <ele>1342.6</ele>
        <time>2021-01-16T11:02:40Z</time>
      </trkpt>
      <trkpt lat="45.28671" lon="5.77">
        <ele>1339.2</ele>
        <time>2021-01-16T11:02:42Z</time>
      </trkpt>
      <trkpt lat="45.28669" lon="5.76981">
        <ele>1336.5</ele>
        <time>2021-01-16T11:02:44Z</time>
      </trkpt>
      <trkpt lat="45.28667" lon="5.76956">
        <ele>1333.9</ele>
        <time>2021-01-16T11:02:46Z</time>
      </trkpt>
      <trkpt lat="45.28665" lon="5.76933">
        <ele>1332.4</ele>
        <time>2021-01-16T11:02:48Z</time>
      </trkpt>
      <trkpt lat="45.28661" lon="5.76914">
        <ele>1331.3</ele>
        <time>2021-01-16T11:02:50Z</time>
      </trkpt>
      <trkpt lat="45.28653" lon="5.76908">
        <ele>1330.2</ele>
        <time>2021-01-16T11:02:52Z</time>
      </trkpt>
      <trkpt lat="45.28644" lon="5.76899">
        <ele>1328.9</ele>
        <time>2021-01-16T11:02:54Z</time>
      </trkpt>
      <trkpt lat="45.28632" lon="5.76896">
        <ele>1326.8</ele>
        <time>2021-01-16T11:03:05Z</time>
      </trkpt>
      <trkpt lat="45.28624" lon="5.76891">
        <ele>1325.3</ele>
        <time>2021-01-16T11:03:07Z</time>
      </trkpt>
      <trkpt lat="45.28614" lon="5.76886">
        <ele>1323.6</ele>
        <time>2021-01-16T11:03:09Z</time>
      </trkpt>
      <trkpt lat="45.28602" lon="5.76879">
        <ele>1311.8</ele>
        <time>2021-01-16T11:03:11Z</time>
      </trkpt>
      <trkpt lat="45.28588" lon="5.7687">
        <ele>1320.4</ele>
        <time>2021-01-16T11:03:13Z</time>
      </trkpt>
      <trkpt lat="45.28579" lon="5.76865">
        <ele>1319.1</ele>
        <time>2021-01-16T11:03:14Z</time>
      </trkpt>
      <trkpt lat="45.28571" lon="5.76858">
        <ele>1318.1</ele>
        <time>2021-01-16T11:03:15Z</time>
      </trkpt>
      <trkpt lat="45.28563" lon="5.7685">
        <ele>1317.7</ele>
        <time>2021-01-16T11:03:16Z</time>
      </trkpt>
      <trkpt lat="45.2855" lon="5.76835">
        <ele>1317.8</ele>
        <time>2021-01-16T11:03:18Z</time>
      </trkpt>
      <trkpt lat="45.28542" lon="5.76828">
        <ele>1317.4</ele>
        <time>2021-01-16T11:03:19Z</time>
      </trkpt>
      <trkpt lat="45.28533" lon="5.76822">
        <ele>1316.9</ele>
        <time>2021-01-16T11:03:20Z</time>
      </trkpt>
      <trkpt lat="45.28518" lon="5.76813">
        <ele>1315.9</ele>
        <time>2021-01-16T11:03:22Z</time>
      </trkpt>
      <trkpt lat="45.28503" lon="5.76804">
        <ele>1314.9</ele>
        <time>2021-01-16T11:03:24Z</time>
      </trkpt>
      <trkpt lat="45.28491" lon="5.76797">
        <ele>1313.7</ele>
        <time>2021-01-16T11:03:25Z</time>
      </trkpt>
      <trkpt lat="45.28475" lon="5.76789">
        <ele>1311.1</ele>
        <time>2021-01-16T11:03:27Z</time>
      </trkpt>
      <trkpt lat="45.2846" lon="5.76783">
        <ele>1306.5</ele>
        <time>2021-01-16T11:03:29Z</time>
      </trkpt>
      <trkpt lat="45.28451" lon="5.76779">
        <ele>1303.5</ele>
        <time>2021-01-16T11:03:30Z</time>
      </trkpt>
      <trkpt lat="45.28436" lon="5.7677">
        <ele>1298.3</ele>
        <time>2021-01-16T11:03:32Z</time>
      </trkpt>
      <trkpt lat="45.28418" lon="5.76759">
        <ele>1291</ele>
        <time>2021-01-16T11:03:34Z</time>
      </trkpt>
      <trkpt lat="45.28408" lon="5.76754">
        <ele>1287.4</ele>
        <time>2021-01-16T11:03:35Z</time>
      </trkpt>
      <trkpt lat="45.28399" lon="5.76748">
        <ele>1284.1</ele>
        <time>2021-01-16T11:03:36Z</time>
      </trkpt>
      <trkpt lat="45.28392" lon="5.76739">
        <ele>1281.7</ele>
        <time>2021-01-16T11:03:37Z</time>
      </trkpt>
      <trkpt lat="45.28384" lon="5.76729">
        <ele>1279.1</ele>
        <time>2021-01-16T11:03:38Z</time>
      </trkpt>
      <trkpt lat="45.28371" lon="5.76717">
        <ele>1274.8</ele>
        <time>2021-01-16T11:03:40Z</time>
      </trkpt>
      <trkpt lat="45.28358" lon="5.767">
        <ele>1270.9</ele>
        <time>2021-01-16T11:03:42Z</time>
      </trkpt>
      <trkpt lat="45.28345" lon="5.76683">
        <ele>1267.9</ele>
        <time>2021-01-16T11:03:44Z</time>
      </trkpt>
      <trkpt lat="45.28329" lon="5.76673">
        <ele>1263.6</ele>
        <time>2021-01-16T11:03:46Z</time>
      </trkpt>
      <trkpt lat="45.28315" lon="5.76658">
        <ele>1260</ele>
        <time>2021-01-16T11:03:48Z</time>
      </trkpt>
      <trkpt lat="45.28308" lon="5.76648">
        <ele>1258.4</ele>
        <time>2021-01-16T11:03:49Z</time>
      </trkpt>
      <trkpt lat="45.28303" lon="5.76637">
        <ele>1257.5</ele>
        <time>2021-01-16T11:03:50Z</time>
      </trkpt>
      <trkpt lat="45.28292" lon="5.76618">
        <ele>1256.1</ele>
        <time>2021-01-16T11:03:52Z</time>
      </trkpt>
      <trkpt lat="45.28287" lon="5.76601">
        <ele>1256.1</ele>
        <time>2021-01-16T11:03:54Z</time>
      </trkpt>
      <trkpt lat="45.28281" lon="5.76588">
        <ele>1255.5</ele>
        <time>2021-01-16T11:03:56Z</time>
      </trkpt>
      <trkpt lat="45.28277" lon="5.76573">
        <ele>1256</ele>
        <time>2021-01-16T11:03:59Z</time>
      </trkpt>
      <trkpt lat="45.28273" lon="5.7656">
        <ele>1256.5</ele>
        <time>2021-01-16T11:04:02Z</time>
      </trkpt>
      <trkpt lat="45.28263" lon="5.76548">
        <ele>1255.5</ele>
        <time>2021-01-16T11:04:08Z</time>
      </trkpt>
      <trkpt lat="45.28259" lon="5.76557">
        <ele>1233.2</ele>
        <time>2021-01-16T11:04:21Z</time>
      </trkpt>
      <trkpt lat="45.28254" lon="5.76568">
        <ele>1251.9</ele>
        <time>2021-01-16T11:04:33Z</time>
      </trkpt>
      <trkpt lat="45.28251" lon="5.76581">
        <ele>1250.4</ele>
        <time>2021-01-16T11:04:44Z</time>
      </trkpt>
      <trkpt lat="45.28247" lon="5.76592">
        <ele>1231.4</ele>
        <time>2021-01-16T11:04:51Z</time>
      </trkpt>
      <trkpt lat="45.28238" lon="5.76589">
        <ele>1247.9</ele>
        <time>2021-01-16T11:05:03Z</time>
      </trkpt>
      <trkpt lat="45.28229" lon="5.76587">
        <ele>1246.7</ele>
        <time>2021-01-16T11:05:12Z</time>
      </trkpt>
      <trkpt lat="45.28229" lon="5.76591">
        <ele>1231</ele>
        <time>2021-01-16T11:05:41Z</time>
      </trkpt>
      <trkpt lat="45.28231" lon="5.76594">
        <ele>1246.5</ele>
        <time>2021-01-16T11:05:58Z</time>
      </trkpt>
    </trkseg>
  </trk>
</gpx>